[[{"header":{"parameterUnit":"m.s-1","parameterCategory":1,"la1":30.6,"la2":29.2853,"lo1":-89.7004,"lo2":-87.6739,"dy":0.0162,"dx":0.0183,"nx":112,"ny":82,"refTime":"2023-09-25T00:00:00:Z","depth":0,"parameterNumber":2,"parameterNumberName":"U-component_of_WINDS"},"data":[0.0,0.0,0.0,0.0,0.0,0.0,0.0,0.0,0.0,0.0,0.0,0.0,0.0,0.0,0.0,0.0,0.0,0.0,0.0,0.0,0.0,0.0,0.0,0.0,0.0,0.0,0.0,0.0,0.0,0.0,0.0,0.0,0.0,0.0,0.0,0.0,0.0,0.0,0.0,0.0,0.0,0.0,0.0,0.0,0.0,0.0,0.0,0.0,0.0,0.0,0.0,0.0,0.0,0.0,0.0,0.0,0.0,0.0,0.0,0.0,0.0,0.0,0.0,0.0,0.0,0.0,0.0,0.0,0.0,0.0,0.0,0.0,0.0,0.0,0.0,0.0,0.0,0.0,0.0,0.0,0.0,0.0,0.0,0.0,0.0,0.0,0.0,0.0,0.0,0.0,1.6913,1.897,2.1665,2.3318,2.3295,2.2382,2.1443,2.057,0.0,0.0,0.0,0.0,0.0,0.0,0.0,0.0,0.0,0.0,0.0,0.0,0.0,0.0,0.0,0.0,0.0,0.0,0.0,0.0,0.0,0.0,0.0,0.0,0.0,0.0,0.0,0.0,0.0,0.0,0.0,0.0,0.0,0.0,0.0,0.0,0.0,0.0,0.0,0.0,0.0,0.0,0.0,0.0,0.0,0.0,0.0,0.0,0.0,0.0,0.0,0.0,0.0,0.0,0.0,0.0,0.0,0.0,0.0,0.0,0.0,0.0,0.0,0.0,0.0,0.0,0.0,0.0,0.0,0.0,0.0,0.0,0.0,0.0,0.0,0.0,0.0,0.0,0.0,0.0,0.0,0.0,0.0,0.0,0.0,0.0,0.0,0.0,0.0,0.0,0.0,0.0,0.0,0.0,0.0,0.0,0.0,0.0,0.0,0.0,0.0,0.0,0.0,0.0,1.8367,2.1488,2.2762,2.3569,2.4081,2.3309,2.2383,2.1452,0.0,0.0,0.0,0.0,0.0,0.0,0.0,0.0,0.0,0.0,0.0,0.0,0.0,0.0,0.0,0.0,0.0,0.0,0.0,0.0,0.0,0.0,0.0,0.0,0.0,0.0,0.0,0.0,0.0,0.0,0.0,0.0,0.0,0.0,0.0,0.0,0.0,0.0,0.0,0.0,0.0,0.0,0.0,0.0,0.0,0.0,0.0,0.0,0.0,0.0,0.0,0.0,0.0,0.0,0.0,0.0,0.0,0.0,0.0,0.0,0.0,0.0,0.0,0.0,0.0,0.0,0.0,0.0,0.0,0.0,0.0,0.0,0.0,0.0,0.0,0.0,0.0,0.0,0.0,0.0,0.0,0.0,0.0,0.0,0.0,0.0,0.0,0.0,0.0,0.0,0.0,0.0,0.0,0.0,0.0,0.0,0.0,0.0,0.0,0.0,0.0,0.0,0.0,1.9082,2.0251,2.2187,2.3425,2.4006,2.3734,2.2873,2.1959,2.1058,1.9863,0.0,0.0,0.0,0.0,0.0,0.0,0.0,0.0,0.0,0.0,0.0,0.0,0.0,0.0,0.0,0.0,0.0,0.0,0.0,0.0,0.0,0.0,0.0,0.0,0.0,0.0,0.0,0.0,0.0,0.0,0.0,0.0,0.0,0.0,0.0,0.0,0.0,0.0,0.0,0.0,0.0,0.0,0.0,0.0,0.0,0.0,0.0,0.0,0.0,0.0,0.0,0.0,0.0,0.0,0.0,0.0,0.0,0.0,0.0,0.0,0.0,0.0,0.0,0.0,0.0,0.0,0.0,0.0,0.0,0.0,0.0,0.0,0.0,0.0,0.0,0.0,0.0,0.0,0.0,0.0,0.0,0.0,0.0,0.0,0.0,0.0,0.0,0.0,0.0,0.0,0.0,0.0,0.0,0.0,0.0,0.0,0.0,0.0,0.0,0.0,0.0,0.0,2.0413,2.1825,2.2375,2.3611,2.4091,2.3262,2.236,2.1432,2.0551,1.9904,0.0,0.0,0.0,0.0,0.0,0.0,0.0,0.0,0.0,0.0,0.0,0.0,0.0,0.0,0.0,0.0,0.0,0.0,0.0,0.0,0.0,0.0,0.0,0.0,0.0,0.0,0.0,0.0,0.0,0.0,0.0,0.0,0.0,0.0,0.0,0.0,0.0,0.0,0.0,0.0,0.0,0.0,0.0,0.0,0.0,0.0,0.0,0.0,0.0,0.0,0.0,0.0,0.0,0.0,0.0,0.0,0.0,0.0,0.0,0.0,0.0,0.0,0.0,0.0,0.0,0.0,0.0,0.0,0.0,0.0,0.0,0.0,0.0,0.0,0.0,0.0,0.0,0.0,0.0,0.0,0.0,0.0,0.0,0.0,0.0,0.0,0.0,0.0,0.0,0.0,0.0,0.0,0.0,0.0,0.0,0.0,0.0,0.0,0.0,0.0,0.0,0.0,2.0977,2.2496,2.2487,2.3149,2.3491,2.3215,2.2403,2.1492,2.056,2.0391,0.0,0.0,0.0,0.0,0.0,0.0,0.0,0.0,0.0,0.0,0.0,0.0,0.0,0.0,0.0,0.0,0.0,0.0,0.0,0.0,0.0,0.0,0.0,0.0,0.0,0.0,0.0,0.0,0.0,0.0,0.0,0.0,0.0,0.0,0.0,0.0,0.0,0.0,0.0,0.0,0.0,0.0,0.0,0.0,0.0,0.0,0.0,0.0,0.0,0.0,0.0,0.0,0.0,0.0,0.0,0.0,0.0,0.0,0.0,0.0,0.0,0.0,0.0,0.0,0.0,0.0,0.0,0.0,0.0,0.0,0.0,0.0,0.0,0.0,0.0,0.0,0.0,0.0,0.0,0.0,0.0,0.0,0.0,0.0,0.0,0.0,0.0,0.0,0.0,0.0,0.0,0.0,0.0,0.0,0.0,0.0,0.0,0.0,0.0,0.0,0.0,0.0,2.0861,2.1757,2.1638,2.2254,2.2393,2.1707,2.129,2.0707,1.9809,0.0,0.0,0.0,0.0,0.0,0.0,0.0,0.0,0.0,0.0,0.0,0.0,0.0,0.0,0.0,0.0,0.0,0.0,0.0,0.0,0.0,0.0,0.0,0.0,0.0,0.0,0.0,0.0,0.0,0.0,0.0,0.0,0.0,0.0,0.0,0.0,0.0,0.0,0.0,0.0,0.0,0.0,0.0,0.0,0.0,0.0,0.0,0.0,0.0,0.0,0.0,0.0,0.0,0.0,0.0,0.0,0.0,0.0,0.0,0.0,0.0,0.0,0.0,0.0,0.0,0.0,0.0,0.0,0.0,0.0,0.0,0.0,0.0,0.0,0.0,0.0,0.0,0.0,0.0,0.0,0.0,0.0,0.0,0.0,0.0,0.0,0.0,0.0,0.0,0.0,0.0,0.0,0.0,0.0,0.0,0.0,0.0,0.0,0.0,0.0,0.0,0.0,1.9971,2.0736,2.1212,2.1086,2.1504,2.1494,2.0771,2.0375,2.0018,1.9608,0.0,0.0,0.0,0.0,0.0,0.0,0.0,0.0,0.0,0.0,0.0,0.0,0.0,0.0,0.0,0.0,0.0,0.0,0.0,0.0,0.0,0.0,0.0,0.0,0.0,0.0,0.0,0.0,0.0,0.0,0.0,0.0,0.0,0.0,0.0,0.0,0.0,0.0,0.0,0.0,0.0,0.0,0.0,0.0,0.0,0.0,0.0,0.0,0.0,0.0,0.0,0.0,0.0,0.0,0.0,0.0,0.0,0.0,0.0,0.0,0.0,0.0,0.0,0.0,0.0,0.0,0.0,0.0,0.0,0.0,0.0,0.0,0.0,0.0,0.0,0.0,0.0,0.0,0.0,0.0,0.0,0.0,0.0,0.0,0.0,0.0,0.0,0.0,0.0,0.0,0.0,0.0,0.0,0.0,0.0,0.0,0.0,0.0,0.0,0.0,0.0,0.0,1.9889,2.0656,2.1136,2.1003,2.0928,2.0834,2.068,1.9821,1.9551,0.0,0.0,0.0,0.0,0.0,0.0,0.0,0.0,0.0,0.0,0.0,0.0,0.0,0.0,0.0,0.0,0.0,0.0,0.0,0.0,0.0,0.0,0.0,0.0,0.0,0.0,0.0,0.0,0.0,0.0,0.0,0.0,0.0,0.0,0.0,0.0,0.0,0.0,0.0,0.0,0.0,0.0,0.0,0.0,0.0,0.0,0.0,0.0,0.0,0.0,0.0,0.0,0.0,0.0,0.0,0.0,0.0,0.0,0.0,0.0,0.0,0.0,0.0,0.0,0.0,0.0,0.0,0.0,0.0,0.0,0.0,0.0,0.0,0.0,0.0,0.0,0.0,0.0,0.0,0.0,0.0,0.0,0.0,0.0,0.0,0.0,0.0,0.0,0.0,0.0,0.0,0.0,0.0,0.0,0.0,0.0,0.0,0.0,0.0,0.0,0.0,0.0,0.0,1.9938,2.0051,2.0164,2.0029,2.0006,1.9706,1.9007,1.912,1.9273,1.9345,0.0,0.0,0.0,0.0,0.0,0.0,0.0,0.0,0.0,0.0,0.0,0.0,0.0,0.0,0.0,0.0,0.0,0.0,0.0,0.0,0.0,0.0,0.0,0.0,0.0,0.0,0.0,0.0,0.0,0.0,0.0,0.0,0.0,0.0,0.0,0.0,0.0,0.0,0.0,0.0,0.0,0.0,0.0,0.0,0.0,0.0,0.0,0.0,0.0,0.0,0.0,0.0,0.0,0.0,0.0,0.0,0.0,0.0,0.0,0.0,0.0,0.0,0.0,0.0,0.0,0.0,0.0,0.0,0.0,0.0,0.0,0.0,0.0,0.0,0.0,0.0,0.0,0.0,0.0,0.0,0.0,0.0,0.0,0.0,0.0,0.0,0.0,0.0,0.0,0.0,0.0,0.0,0.0,0.0,0.0,0.0,0.0,0.0,0.0,0.0,0.0,0.0,2.028,1.9925,1.9661,1.9534,1.9529,1.9158,1.8242,1.8018,1.8202,1.8847,0.0,0.0,0.0,0.0,0.0,0.0,0.0,0.0,0.0,0.0,0.0,0.0,0.0,0.0,0.0,0.0,0.0,0.0,0.0,0.0,0.0,0.0,0.0,0.0,0.0,0.0,0.0,0.0,0.0,0.0,0.0,0.0,0.0,0.0,0.0,0.0,0.0,0.0,0.0,0.0,0.0,0.0,0.0,0.0,0.0,0.0,0.0,0.0,0.0,0.0,0.0,0.0,0.0,0.0,0.0,0.0,0.0,0.0,0.0,0.0,0.0,0.0,0.0,0.0,0.0,0.0,0.0,0.0,0.0,0.0,0.0,0.0,0.0,0.0,0.0,0.0,0.0,0.0,0.0,0.0,0.0,0.0,0.0,0.0,0.0,0.0,0.0,0.0,0.0,0.0,0.0,0.0,0.0,0.0,0.0,0.0,0.0,0.0,0.0,0.0,0.0,0.0,2.0837,2.0185,1.966,1.9435,1.9402,1.9026,1.8067,1.6873,1.683,1.8387,0.0,0.0,0.0,0.0,0.0,0.0,0.0,0.0,0.0,0.0,0.0,0.0,0.0,0.0,0.0,0.0,0.0,0.0,0.0,0.0,0.0,0.0,0.0,0.0,0.0,0.0,0.0,0.0,0.0,0.0,0.0,0.0,0.0,0.0,0.0,0.0,0.0,0.0,0.0,0.0,0.0,0.0,0.0,0.0,0.0,0.0,0.0,0.0,0.0,0.0,0.0,0.0,0.0,0.0,0.0,0.0,0.0,0.0,0.0,0.0,2.3563,2.2937,0.0,0.0,0.0,0.0,0.0,0.0,0.0,0.0,0.0,0.0,0.0,0.0,0.0,0.0,0.0,0.0,0.0,0.0,0.0,0.0,0.0,0.0,0.0,0.0,0.0,0.0,0.0,0.0,0.0,0.0,0.0,0.0,0.0,0.0,0.0,0.0,0.0,0.0,0.0,0.0,2.1126,2.087,2.0503,1.9571,1.9427,1.8779,1.7284,1.7324,1.7269,1.6908,1.7758,0.0,0.0,0.0,0.0,0.0,0.0,0.0,0.0,0.0,0.0,0.0,0.0,0.0,0.0,0.0,0.0,0.0,0.0,0.0,0.0,0.0,0.0,0.0,0.0,0.0,0.0,0.0,0.0,0.0,0.0,0.0,0.0,0.0,0.0,0.0,0.0,0.0,0.0,0.0,0.0,0.0,0.0,0.0,0.0,0.0,0.0,0.0,0.0,0.0,0.0,0.0,0.0,0.0,0.0,0.0,0.0,0.0,0.0,0.0,2.3013,2.2518,0.0,0.0,0.0,0.0,0.0,0.0,0.0,0.0,0.0,0.0,0.0,0.0,0.0,0.0,0.0,0.0,0.0,0.0,0.0,0.0,0.0,0.0,0.0,0.0,0.0,0.0,0.0,0.0,0.0,0.0,0.0,0.0,0.0,0.0,0.0,0.0,0.0,0.0,0.0,0.0,2.2177,2.1756,2.1175,2.0136,1.9612,1.8656,1.6911,1.7196,1.7092,1.6262,1.7337,0.0,0.0,0.0,0.0,0.0,0.0,0.0,0.0,0.0,0.0,0.0,0.0,0.0,0.0,0.0,0.0,0.0,0.0,0.0,0.0,0.0,0.0,0.0,0.0,0.0,0.0,0.0,0.0,0.0,0.0,0.0,0.0,0.0,0.0,0.0,0.0,0.0,0.0,0.0,0.0,0.0,0.0,0.0,0.0,0.0,0.0,0.0,0.0,0.0,0.0,0.0,0.0,0.0,2.7024,2.6439,2.536,2.5187,2.5466,2.6004,2.4183,2.3502,2.366,2.3555,0.0,0.0,0.0,0.0,0.0,0.0,0.0,0.0,0.0,0.0,0.0,0.0,0.0,0.0,0.0,0.0,0.0,0.0,0.0,0.0,0.0,0.0,2.3448,2.3983,2.4172,2.4228,2.4083,0.0,0.0,0.0,0.0,0.0,0.0,0.0,0.0,0.0,0.0,0.0,2.3252,2.2627,2.1795,2.0688,1.9918,1.8749,1.6933,1.7009,1.6896,1.6229,1.7212,1.7786,0.0,0.0,0.0,0.0,0.0,0.0,0.0,0.0,0.0,0.0,0.0,0.0,0.0,0.0,0.0,0.0,0.0,0.0,0.0,0.0,0.0,0.0,0.0,0.0,0.0,0.0,0.0,0.0,0.0,0.0,0.0,0.0,2.1447,2.27,0.0,0.0,0.0,0.0,0.0,0.0,0.0,0.0,0.0,0.0,0.0,0.0,0.0,2.4122,2.4151,2.4151,2.5664,2.8675,2.8675,2.7875,2.6361,2.4966,2.5881,2.8666,3.1083,0.0,2.3935,2.3682,0.0,0.0,0.0,0.0,0.0,0.0,0.0,0.0,0.0,0.0,0.0,0.0,0.0,0.0,0.0,0.0,0.0,0.0,0.0,0.0,0.0,0.0,2.4887,2.5804,2.6085,2.5957,2.5244,2.4358,2.3667,2.3522,2.3448,2.3401,0.0,0.0,0.0,0.0,0.0,0.0,2.3459,2.3169,2.2387,2.068,2.0322,1.946,1.7694,1.7487,1.7303,1.6975,1.6968,1.7203,1.7783,1.7854,0.0,0.0,0.0,0.0,0.0,0.0,0.0,0.0,0.0,0.0,0.0,0.0,0.0,0.0,0.0,0.0,0.0,0.0,0.0,0.0,0.0,0.0,0.0,0.0,0.0,0.0,0.0,0.0,0.0,2.1533,2.1091,2.1592,2.1817,2.2452,0.0,0.0,0.0,0.0,0.0,0.0,0.0,0.0,0.0,2.7024,2.608,2.5988,2.6877,2.6895,2.851,3.1702,3.1702,3.0852,2.9237,2.764,2.7666,2.9189,3.2412,3.2166,2.9356,2.7266,2.5207,2.3342,0.0,0.0,0.0,0.0,2.301,2.3809,2.7246,2.8232,2.7646,2.5605,0.0,0.0,0.0,0.0,0.0,0.0,0.0,2.4512,2.5249,2.5604,2.5866,2.6334,2.6519,2.646,2.6062,2.5604,2.4965,2.3876,2.3609,2.3576,2.3576,2.3782,0.0,0.0,0.0,2.4418,2.4062,2.3508,2.2614,2.1256,2.0571,1.9453,1.764,1.7769,1.766,1.6964,1.7236,1.7532,1.7783,1.8142,1.8333,0.0,0.0,0.0,0.0,0.0,0.0,0.0,0.0,0.0,0.0,0.0,0.0,0.0,0.0,0.0,0.0,0.0,0.0,0.0,0.0,0.0,0.0,0.0,0.0,0.0,0.0,0.0,0.0,2.1698,2.1158,2.1394,2.168,2.2287,0.0,0.0,0.0,0.0,0.0,0.0,2.7805,2.7813,2.7996,2.8411,2.7629,2.7978,2.9592,3.0014,3.1849,3.5055,3.5055,3.4431,3.322,3.2032,3.1482,3.161,3.4009,3.4578,3.3537,3.0033,2.7096,2.4748,2.4068,2.3263,2.2542,2.2725,2.3797,2.547,2.7864,2.8523,2.8094,2.6891,2.5542,2.4319,2.408,0.0,0.0,0.0,0.0,2.593,2.6444,2.6654,2.6794,2.7068,2.7185,2.7141,2.6889,2.6823,2.6304,2.4475,2.4103,2.4009,2.38,2.3917,0.0,2.4219,2.4384,2.449,2.4505,2.368,2.2683,2.1662,2.0625,1.9321,1.7667,1.7969,1.7904,1.7137,1.7599,1.7861,1.78,1.8335,1.8623,1.8623,0.0,0.0,0.0,0.0,0.0,0.0,0.0,0.0,0.0,0.0,0.0,0.0,0.0,0.0,0.0,0.0,0.0,0.0,0.0,0.0,0.0,0.0,0.0,0.0,0.0,0.0,0.0,0.0,0.0,2.2703,2.2813,0.0,0.0,0.0,0.0,2.4152,2.7097,2.9537,3.1085,2.9751,2.961,3.1158,2.9684,2.9659,3.1268,3.2797,3.522,3.845,3.845,3.8414,3.834,3.8248,3.8212,3.823,3.8377,3.6688,3.3537,3.0033,2.8496,2.8182,2.6371,2.46,2.307,2.3065,2.5476,2.8762,2.8927,2.8798,2.8492,2.8047,2.6347,2.4503,2.4547,2.48,0.0,0.0,2.5864,2.632,2.7367,2.7636,2.7848,2.8682,2.8877,2.8675,2.7897,2.7732,2.7211,2.5401,2.5073,2.4858,2.4024,0.0,2.4218,2.4275,2.4411,2.45,2.45,2.3628,2.2594,2.1514,2.0396,1.9298,1.8229,1.8142,1.8025,1.7854,1.7877,1.7861,1.78,1.7834,1.785,1.785,1.7884,0.0,0.0,0.0,0.0,0.0,0.0,0.0,0.0,0.0,0.0,0.0,0.0,0.0,0.0,0.0,0.0,0.0,0.0,0.0,0.0,0.0,0.0,0.0,0.0,0.0,0.0,0.0,0.0,2.5758,2.5531,0.0,2.6421,2.402,2.3283,2.5463,2.7724,3.062,3.4339,3.2952,3.2316,3.2926,3.2394,3.2357,3.2944,3.5605,3.7551,3.8707,3.8707,3.8707,3.8692,3.8488,3.8391,3.8391,3.8391,3.7828,3.6857,3.5615,3.3853,3.1884,3.1203,3.0542,3.0,3.0,3.087,3.21,3.21,3.2036,3.1583,2.9361,2.8023,2.7327,2.7651,2.7995,2.8333,2.8742,2.9053,2.9368,2.988,3.0033,2.999,2.98,2.9757,2.9537,2.876,2.8565,2.8223,2.705,2.6017,2.523,2.4927,2.4509,2.4199,2.4237,2.4275,2.4294,2.4247,2.295,2.1842,2.1323,1.9838,1.8665,1.8176,1.8042,1.7933,1.7845,1.7845,1.7822,1.78,1.78,1.802,1.8504,1.8036,1.7665,0.0,0.0,0.0,0.0,0.0,0.0,0.0,0.0,0.0,0.0,0.0,0.0,0.0,0.0,0.0,0.0,0.0,0.0,0.0,0.0,0.0,0.0,0.0,0.0,0.0,2.5125,2.5975,2.7915,2.7907,2.8263,2.9552,2.6955,2.5766,2.7163,2.9886,3.3128,3.6909,3.5498,3.4558,3.4549,3.4055,3.4339,3.544,3.75,3.8535,3.8535,3.8535,3.8469,3.8322,3.8106,3.8003,3.8003,3.8003,3.8207,3.8535,3.8535,3.7256,3.5301,3.5416,3.5459,3.5445,3.533,3.4607,3.3643,3.3545,3.3426,3.2952,3.0687,2.9834,2.9782,3.0161,3.0282,3.0337,3.0749,3.0872,3.092,3.1114,3.1224,3.1148,3.0693,3.0369,3.0063,2.9519,2.9189,2.884,2.8278,2.6866,2.5674,2.5409,2.4654,2.4103,2.4141,2.4094,2.4054,2.4006,2.2712,2.173,2.1536,1.9864,1.8704,1.8517,1.8124,1.7872,1.7845,1.7811,1.78,1.78,1.8036,1.8403,1.8888,1.8443,1.8347,1.8642,0.0,0.0,0.0,0.0,0.0,0.0,0.0,0.0,0.0,0.0,0.0,0.0,0.0,0.0,0.0,0.0,0.0,0.0,0.0,0.0,0.0,0.0,0.0,2.5298,2.6676,2.8153,2.903,2.9886,3.0705,3.1513,3.2063,3.15,2.939,3.3678,3.7055,3.86,3.7206,3.6271,3.6088,3.4682,3.5463,3.864,3.834,3.8192,3.8192,3.8175,3.7969,3.7577,3.7576,3.7558,3.7558,3.7577,3.781,3.8192,3.8192,3.8192,3.8207,3.8549,3.8692,3.8645,3.8309,3.6148,3.3319,3.2995,3.2674,3.2319,3.1928,3.1721,3.1658,3.1812,3.1424,3.0994,3.1347,3.1087,3.0736,3.091,3.112,3.1271,3.1344,3.0784,3.0265,3.021,2.9592,2.9,2.8917,2.7624,2.6271,2.5476,2.4561,2.3943,2.3976,2.3876,0.0,2.3785,2.2962,2.2325,2.2114,2.0552,1.9475,1.9348,1.8511,1.7962,1.7962,1.7912,1.7867,1.7867,1.8555,1.8939,1.8939,1.9027,1.9473,2.0313,0.0,0.0,0.0,0.0,0.0,0.0,0.0,0.0,0.0,0.0,0.0,0.0,0.0,0.0,0.0,0.0,0.0,0.0,0.0,0.0,0.0,2.8506,2.8785,2.7869,2.9235,3.0858,3.2307,3.3666,3.4778,3.5597,3.6243,3.5969,3.4417,3.6615,3.8123,3.8322,3.7923,3.7765,3.7952,3.7327,3.7285,3.7898,3.781,3.7775,3.7757,3.7466,3.726,3.7145,3.6814,3.6673,3.6693,3.7029,3.7392,3.7775,3.7775,3.7775,3.781,3.8191,3.8342,3.829,3.7898,3.5596,3.2658,3.2575,3.2284,3.1946,3.1837,3.3012,3.4355,3.3726,3.3536,3.3436,3.2912,3.2791,3.2743,3.2534,3.2632,3.2696,3.2273,3.2054,3.161,3.0448,3.0026,2.9672,2.9027,2.7959,2.689,2.6088,2.5219,2.4396,2.375,2.3598,2.3542,2.3458,2.27,2.2154,2.2099,2.1054,2.0342,2.0252,1.9865,1.9621,1.9561,1.9459,1.9406,1.9406,1.9592,1.9735,1.9843,2.0427,2.0641,0.0,0.0,0.0,0.0,0.0,0.0,0.0,0.0,0.0,0.0,0.0,0.0,0.0,0.0,0.0,0.0,0.0,0.0,0.0,0.0,0.0,0.0,3.2329,3.3131,3.2004,3.2702,3.3803,3.5109,3.6583,3.7785,3.8571,3.8849,3.8722,3.8109,3.8468,3.9053,3.9878,3.9913,3.9914,3.9914,3.9541,3.9208,3.8983,3.7701,3.7069,3.705,3.6814,3.6591,3.6406,3.6131,3.6002,3.6023,3.6509,3.6834,3.7069,3.7069,3.7069,3.7108,0.0,0.0,0.0,0.0,3.5638,3.3565,3.2324,3.1744,3.1762,3.2992,3.4393,3.5498,3.4945,3.4907,3.4882,3.4185,3.3955,3.3793,3.3413,3.3573,3.3668,3.3053,3.2765,3.2344,3.1421,3.0644,2.9984,2.9442,2.8487,0.0,2.6564,2.5428,2.445,2.3892,2.3478,2.3235,2.3193,2.2823,2.2588,2.2646,2.1842,2.1287,2.1231,2.0679,0.0,0.0,0.0,2.0137,2.05,2.05,0.0,0.0,0.0,2.1815,2.1544,2.2259,0.0,0.0,2.2815,2.3196,0.0,0.0,0.0,0.0,0.0,0.0,0.0,0.0,0.0,0.0,0.0,0.0,0.0,0.0,0.0,0.0,3.6483,3.7885,3.6641,3.6574,3.6903,3.7445,3.876,3.9857,4.0492,4.031,4.031,4.0745,3.9753,4.0018,4.2106,4.2184,0.0,0.0,0.0,4.0912,4.0912,3.8136,3.656,3.6216,3.656,3.6515,3.609,3.5752,3.56,3.5622,3.6045,3.6216,3.6216,3.6216,3.6216,3.628,3.6751,3.6891,3.6791,3.6385,3.5958,3.5228,3.2611,0.0,0.0,3.4737,3.56,3.56,3.56,3.56,3.5514,3.5087,3.468,3.4248,3.3705,3.3959,3.4181,3.3604,3.3058,3.2672,3.258,3.1388,3.0233,2.9924,2.9079,2.8066,2.6996,2.5552,2.4444,2.4182,2.3484,2.2993,2.297,2.3107,2.3241,2.3383,2.2757,0.0,2.2221,2.1278,2.063,2.0546,2.0365,2.0572,2.1292,2.1326,2.1671,2.2405,2.2605,2.2816,2.3015,2.3365,2.3598,2.3714,2.3724,2.3806,0.0,0.0,0.0,0.0,0.0,0.0,0.0,0.0,0.0,0.0,0.0,0.0,0.0,0.0,0.0,3.6439,3.7229,3.7555,3.8534,3.9554,3.9896,3.9024,4.0058,4.0882,4.0978,4.1357,4.1841,4.2392,4.1912,4.1647,4.1744,4.138,4.1129,4.1035,4.0959,4.0912,4.0912,3.9863,3.8133,3.5773,3.8201,0.0,3.9165,3.6721,3.56,3.56,3.5711,3.5734,3.5734,3.5734,3.5734,3.5783,3.6259,3.6195,3.5849,3.5778,3.5689,3.5515,3.494,3.4737,3.4839,3.5414,3.56,3.56,3.56,3.56,0.0,3.4933,3.4805,3.4625,3.3608,3.3688,3.3864,3.3314,3.3204,3.3081,3.2428,3.2014,3.1374,2.9927,2.9325,2.8681,2.7601,2.6589,2.5442,2.4019,2.3695,2.3438,2.2899,2.299,2.3193,2.3372,2.3259,2.3124,2.3,2.2603,2.2263,2.2097,2.1953,2.1924,2.209,2.209,2.2214,2.2487,2.2672,2.2906,2.3168,2.351,2.3736,2.3847,2.3917,2.3986,0.0,0.0,0.0,0.0,0.0,0.0,0.0,0.0,0.0,0.0,0.0,2.7688,0.0,0.0,3.5652,3.8833,3.9139,3.9228,4.0036,4.0873,4.1093,4.025,4.0889,4.1404,4.1444,4.1658,4.1917,4.2231,4.1852,4.1498,4.1267,4.1012,4.0776,4.051,4.051,4.051,4.051,4.0221,3.9351,3.7872,3.9385,4.0096,4.0045,3.8531,3.7043,3.56,3.56,3.56,3.56,3.56,3.56,3.5622,3.5849,3.5822,3.56,3.56,3.56,3.56,3.56,3.56,3.56,3.56,3.56,3.56,3.56,3.56,3.5554,3.5243,3.5364,3.5297,3.3986,3.4019,3.4161,3.315,3.3086,3.3133,3.2736,3.2277,3.1685,3.0781,2.9695,2.8721,2.8091,2.7225,2.6037,2.4391,2.3859,2.3419,2.2789,2.2889,2.3132,2.3324,2.3372,2.336,2.3265,2.2919,2.2605,2.2405,2.2338,2.2296,2.2296,2.2296,2.2349,2.2501,2.2699,2.2932,2.3205,2.3492,2.3732,2.3842,2.3876,2.3996,0.0,0.0,0.0,0.0,0.0,0.0,0.0,0.0,2.9924,2.8907,2.9185,3.0271,3.2372,3.598,3.9084,4.0379,4.0753,4.0948,4.1129,4.1357,4.1363,4.1011,4.1288,4.1542,4.1613,4.152,4.1426,4.1318,4.0948,4.0752,4.0752,4.0752,4.0558,4.0096,4.0096,4.0096,4.0096,4.0096,4.0096,4.0096,4.0096,4.0096,4.0096,4.0096,3.8751,3.6428,3.5853,3.56,3.56,3.56,3.56,3.56,3.56,3.56,3.56,3.56,3.56,3.56,3.5509,3.5464,3.5441,3.5333,3.5379,3.5464,3.5464,3.5532,3.5566,3.538,3.5606,3.5578,3.4112,3.4126,3.4181,3.2856,3.2718,3.2896,3.2896,3.2286,3.1694,3.1491,3.0094,2.8861,2.8421,2.7656,2.6587,2.5024,2.4175,2.3502,2.286,2.289,2.3028,2.3217,2.3301,2.3301,2.3193,2.2803,2.2487,2.231,2.2296,2.2296,2.2296,2.2296,2.2366,2.2487,2.2672,2.2906,2.3144,2.3412,2.3623,2.3732,2.3761,2.3896,2.0079,2.0801,2.214,2.4332,2.6114,2.7545,0.0,0.0,3.1972,3.1836,3.2964,3.4375,3.5587,3.6929,3.8437,4.0296,4.0517,4.076,4.1601,4.1388,4.11,4.0938,4.1059,4.1134,4.1012,4.0989,4.0776,4.0296,4.0221,4.0196,4.0196,4.0196,4.0146,4.0096,4.0096,4.0096,4.0096,4.0096,4.0096,4.0096,4.0096,4.0096,4.0096,4.0096,3.9926,3.9453,3.6772,3.56,3.56,3.56,3.56,3.56,3.56,3.56,3.56,3.56,3.56,3.5554,3.5118,3.4994,3.4906,3.4407,3.4594,3.4994,3.4994,3.5258,3.543,3.4573,3.4618,3.4538,3.3123,3.2945,3.2932,3.2175,3.2056,3.2109,3.2109,3.2039,3.176,3.1029,3.0612,2.9903,2.8391,2.7998,2.7335,2.5726,2.4911,2.4241,2.3559,2.3112,2.2881,2.3033,2.3077,2.3028,2.279,2.2569,2.2394,2.231,2.2296,2.2296,2.2296,2.2296,2.2338,2.2405,2.2605,2.279,2.2927,2.3265,2.3464,2.3538,2.3584,2.3703,2.2009,2.3227,2.4717,0.0,2.8946,3.0816,3.1774,3.3507,3.4917,3.4917,3.5835,3.6922,3.7917,3.8453,3.9185,0.0,4.0597,4.0655,4.1197,4.0836,4.0566,4.0655,3.9562,3.9333,4.0761,4.0631,4.032,4.0138,4.0096,4.0096,4.0096,4.0096,4.0096,4.0096,4.0096,4.0096,4.0096,3.9807,3.9625,3.9625,3.9265,3.9104,3.9131,3.9451,3.8866,3.7415,3.614,3.56,3.56,3.56,3.56,3.56,3.56,3.56,3.56,3.56,3.5418,3.5118,3.4618,3.4226,3.3924,3.371,3.3771,3.4025,3.4349,3.4787,3.5034,3.4263,3.3727,3.3271,3.2615,3.2573,3.2563,3.1882,3.182,3.1876,3.1876,3.1821,3.168,3.1333,3.0793,3.0133,2.9429,2.8506,2.7656,2.6979,2.5912,2.4774,2.3675,2.3377,2.3154,2.2868,2.2816,2.2751,2.2609,2.2474,2.238,2.231,2.2296,2.2296,2.2296,2.2296,2.2338,2.2391,2.2528,2.2646,2.279,2.2952,2.3095,2.3163,2.3194,2.3224,2.3647,0.0,0.0,2.9356,3.1706,3.3776,3.5094,3.6545,3.7607,3.7655,3.7898,3.8335,3.9057,3.9027,3.9116,3.9864,3.9951,3.9955,4.0124,3.9714,3.911,3.8256,3.6711,3.653,3.8715,3.9208,3.9581,4.0062,4.0096,4.0096,4.0096,4.0096,4.002,3.9867,3.9884,3.979,3.9635,3.9255,3.8975,3.8794,3.8363,3.8135,3.8164,3.8782,3.7639,3.5195,3.5195,3.5195,3.5195,3.5195,3.5264,3.5418,3.5418,3.5418,3.5396,3.5241,3.4961,3.4594,3.4075,3.3513,3.3011,3.2866,3.292,3.316,3.372,3.425,3.4567,3.4074,3.3317,3.2538,3.1937,3.1931,3.1939,3.147,3.1445,3.1502,3.1559,3.1485,3.1447,3.1466,3.0944,3.0425,3.0221,2.9214,2.8297,2.7874,2.6894,2.5692,2.4264,2.3777,2.3417,2.2993,2.2716,2.2528,2.2474,2.2405,2.2352,2.231,2.2296,2.2296,2.2296,2.2296,2.2324,2.238,2.2432,2.2528,2.2623,2.2699,2.2777,2.2829,2.2842,2.2838,2.4521,2.6279,2.8326,3.1505,3.3763,3.574,3.7725,3.8922,3.9636,3.9774,3.9041,3.8429,3.8581,3.7928,3.7418,3.7575,3.8095,3.8404,3.8221,3.7899,3.6319,3.2673,3.2219,3.2619,0.0,3.6141,3.8286,3.9969,4.0096,4.0096,4.0096,4.0096,3.9858,3.9352,3.9325,3.9056,3.8448,3.842,3.8135,3.7569,3.7539,3.7539,3.7539,3.8135,3.6848,3.4151,3.4151,3.4151,3.4151,3.4151,3.4448,3.4923,3.4923,3.4923,3.4875,3.4349,3.4151,3.405,3.3503,3.2931,3.2342,3.1754,3.1966,3.2535,3.3134,3.3694,3.4126,3.4093,3.3604,3.2675,3.0987,3.0667,3.0736,3.0733,3.0733,3.0794,3.0975,3.1015,3.1055,3.119,3.1193,3.0937,3.0226,3.0074,2.9514,2.8027,2.7773,2.7198,2.5744,2.435,2.3522,2.3559,2.2872,2.2422,2.2391,2.2338,2.2296,2.2296,2.2296,2.2296,2.2296,2.2296,2.2296,2.231,2.238,2.2422,2.2405,2.2542,2.2623,2.2605,2.2672,2.2712,2.6957,2.9244,3.156,3.4535,3.6754,3.8461,3.94,3.9591,3.9413,3.8878,3.7617,3.6455,3.596,3.5597,3.525,3.4844,3.5638,3.6521,3.7275,3.6613,3.5207,3.2881,3.2514,0.0,0.0,0.0,0.0,3.6066,3.8249,3.9573,3.9573,3.9202,3.8903,3.8699,3.8319,3.802,3.7788,3.7359,3.7029,3.6831,3.6398,3.6398,3.6769,3.5164,3.4108,3.3581,3.3581,3.3581,3.3581,3.3581,3.3684,3.3848,3.3848,3.3848,3.3771,3.3208,3.298,3.2953,3.2753,3.233,3.1768,3.1553,3.164,3.191,3.2508,3.2834,3.306,3.3461,3.3409,3.3031,3.2192,3.1501,3.1172,3.1699,3.1907,3.1905,3.165,3.1674,3.1621,3.1272,3.119,3.1123,3.0869,3.0355,2.9585,2.8444,2.7178,2.6134,2.5595,2.4683,2.3875,2.3278,2.2992,2.2656,2.2109,2.2166,2.2225,2.2225,2.2268,2.2296,2.2296,2.2296,2.2296,2.2296,2.2324,2.2338,2.2338,2.2394,2.2391,2.2391,2.2419,2.2432,2.931,3.1854,3.434,3.7165,3.8888,4.0033,4.0501,3.9654,3.8454,3.7343,3.529,3.3437,3.2587,3.2144,3.1838,3.1645,3.2746,3.397,3.4926,3.4675,3.3873,3.2589,3.2303,3.2327,0.0,0.0,0.0,3.4236,3.6436,3.8003,3.8623,3.8307,3.7963,3.7714,3.7329,3.7014,3.68,3.6367,3.6147,3.6147,3.5731,3.5219,3.4653,3.2871,3.2795,3.4076,3.4076,3.4076,3.4076,3.4076,3.4219,3.4351,3.3349,3.2985,3.2904,3.2287,3.2079,3.2079,3.2079,3.1824,3.1511,3.1511,3.1511,3.1582,3.1966,3.2079,3.2163,3.2551,3.2796,3.2924,3.2663,3.221,3.1871,3.2097,3.2256,3.2329,3.2269,3.216,3.1967,3.1584,3.13,3.1112,3.1032,3.0255,2.9465,2.8843,2.7426,2.6349,2.6133,2.543,2.4646,2.3768,2.3219,2.2722,2.2227,2.2111,2.208,2.2137,2.2209,2.2268,2.2296,2.2296,2.2296,2.2296,2.2296,2.2296,2.2296,2.2296,2.2296,2.2296,2.2296,2.2296,3.1512,3.4131,3.6621,3.9275,4.0135,4.0418,4.0918,3.9061,3.6821,3.5435,3.2407,2.9682,0.0,0.0,2.7388,2.8044,2.9543,3.0839,3.1384,3.216,3.2412,0.0,0.0,0.0,0.0,0.0,0.0,3.4514,3.4781,3.5629,3.7275,3.7373,3.7105,3.646,3.646,3.6147,3.5504,3.5504,3.5504,3.5504,3.5504,3.4188,3.1705,3.157,3.296,3.5504,3.5504,3.5504,3.5504,3.5504,3.5876,3.6184,3.3446,3.2342,3.2287,3.1726,3.1511,3.1511,3.1467,3.1467,3.1511,3.1511,3.1511,3.1511,3.1511,3.1511,3.1511,3.1539,3.1966,3.2398,3.2398,3.2648,3.2714,3.1974,3.1918,3.2185,3.2818,3.251,3.2119,3.2118,3.153,3.0929,3.0692,2.9869,2.9206,2.9202,2.8494,2.7791,2.7283,2.6521,2.5726,2.4968,2.3571,2.2687,2.2719,2.2203,2.194,2.2034,2.2173,2.2276,2.2296,2.2296,2.2296,2.2296,2.2296,2.2296,2.2296,2.2296,2.2296,2.2296,2.2296,2.2296,3.4333,3.6789,3.89,4.0051,4.0464,4.0248,3.8975,3.6592,3.4575,3.4297,3.1385,2.8007,0.0,0.0,0.0,2.462,2.6864,0.0,2.9562,3.1121,0.0,3.1974,0.0,3.3076,3.2925,3.3197,0.0,0.0,3.4919,3.5212,3.554,3.5845,3.594,3.5748,3.5748,3.5666,3.5504,3.5504,3.5504,3.5504,3.5504,3.5145,3.4427,3.2407,3.296,3.5504,3.5504,3.5504,3.5504,3.5504,3.5602,3.5492,3.2794,3.171,3.1726,3.1553,3.1511,3.1453,3.0999,3.1117,3.1511,3.1511,3.1511,3.1511,3.1511,3.1511,3.1582,3.2035,3.2287,3.2398,3.2398,3.2648,3.2964,3.3144,3.3376,3.3551,3.3581,3.3522,3.3312,3.2734,3.191,3.1016,3.019,2.9821,2.9518,2.9166,2.8933,2.8484,2.7616,2.6877,2.6047,2.4997,2.4243,2.3578,2.3031,2.3078,2.3029,2.2766,2.2916,2.2798,2.2313,2.2296,2.2296,2.2296,2.2296,2.2296,2.2296,2.2296,2.2296,2.2296,2.2296,2.2296,3.6684,3.8621,4.0289,4.1032,4.0315,3.8951,3.7252,3.4897,3.2636,3.1285,2.8467,2.5357,2.2396,2.1255,2.1233,0.0,0.0,0.0,2.8745,3.0186,3.1261,0.0,3.2976,0.0,3.344,3.3647,3.411,3.4846,3.4986,3.514,3.5292,3.5501,3.5587,3.5504,3.5504,3.5504,3.5504,3.4865,3.4783,3.5213,3.5096,3.4967,3.4899,3.3783,3.3769,3.4622,3.4622,3.4786,3.507,3.5385,3.5504,3.5235,3.2542,3.1322,3.1117,3.1117,3.0925,3.0612,3.0266,3.0387,3.0717,3.1029,3.1292,3.1511,3.1511,3.1511,3.164,3.2231,3.2398,3.2398,3.2398,3.2551,3.2812,3.3398,3.3745,3.3987,3.4101,3.3914,3.3469,3.258,3.1792,3.1064,3.0469,2.9995,2.9563,2.932,2.899,2.8568,2.7942,2.7363,2.663,2.5665,2.4806,2.4169,2.3906,2.3628,2.3471,2.3437,2.3307,2.3089,2.2786,2.2465,2.2296,2.2296,2.2296,2.2296,2.2296,2.2296,2.2465,2.2784,2.2784,2.2784,3.8603,3.99,4.1007,4.1798,3.9944,3.741,3.544,3.3032,3.0363,2.7476,0.0,2.2388,2.0358,1.8727,1.8636,2.143,0.0,2.6137,2.8146,2.9289,3.0312,3.1377,3.2972,3.3989,3.3893,3.4024,3.441,3.5136,3.5095,3.5241,3.5737,3.5767,3.5621,3.5309,3.5228,3.5195,3.5115,3.3888,3.3785,3.4721,3.4501,3.4376,3.432,3.5123,3.4876,3.3739,3.3395,3.3694,3.4518,3.5011,3.534,3.5265,3.2706,3.1205,3.0462,3.0357,2.996,2.9477,2.9477,2.954,2.9696,3.0387,3.0999,3.1511,3.1511,3.1511,3.164,3.2231,3.2398,3.2398,3.2398,3.2398,3.2535,3.3134,3.3513,3.3882,3.4325,3.3876,3.308,3.2088,3.1506,3.1127,3.0983,3.0202,2.9543,2.9425,2.8849,2.8367,2.8137,2.7726,2.7203,2.6526,2.5284,2.4627,2.4936,2.4098,2.369,2.4083,2.3632,2.3383,2.3395,2.2871,2.2485,2.2296,2.2398,2.2398,2.2296,2.2296,2.2668,2.3378,2.3378,2.3363,3.9764,4.0638,4.1246,4.1156,4.0072,3.7671,3.2422,2.8485,0.0,0.0,2.2661,2.0274,1.8154,1.7203,1.751,1.984,2.2968,2.5274,2.5864,2.8211,3.0312,0.0,3.3677,3.4973,3.4364,3.4507,0.0,0.0,3.5142,3.5257,3.5554,3.5554,3.5129,3.4191,3.3854,3.3514,3.3185,3.3269,3.3479,3.3831,3.4216,3.4509,3.4791,3.5267,3.537,3.504,3.2796,3.2751,3.4233,3.3963,3.4502,3.5322,3.3459,3.1513,2.9696,2.9149,2.8876,2.878,2.878,2.9131,2.9696,3.0387,3.0999,3.1511,3.1511,3.1511,3.164,3.2231,3.2398,3.2398,3.2398,3.2398,3.2508,3.2947,3.3346,3.371,3.3949,3.3608,3.2996,3.2145,3.1737,3.1254,3.0422,3.0118,2.9754,2.9026,2.8808,2.8485,2.7801,2.7446,2.7131,2.6773,2.5681,2.5075,2.5294,2.5005,2.4748,2.4668,2.4728,2.4313,2.3356,2.3777,2.3504,2.2313,2.2902,2.2919,2.2296,2.2296,2.2639,2.3321,2.3321,2.3229,4.0514,4.1017,4.1268,4.1241,3.8822,3.5271,3.0585,0.0,0.0,0.0,1.926,1.7585,1.6955,1.665,0.0,1.9575,2.2242,2.4278,2.5085,2.8263,3.0774,3.1422,3.353,3.465,3.3902,3.4122,3.4428,3.4716,3.4949,3.518,3.5472,3.5359,3.4949,3.4191,3.3199,3.2417,3.1813,3.2114,3.2376,3.2613,3.322,3.3791,3.4356,3.4935,3.4976,3.4535,3.3139,3.2886,3.3484,3.3765,3.411,3.4351,3.3367,3.1375,2.9004,2.8281,2.7789,2.7556,2.7901,2.8476,2.9257,3.0266,3.0999,3.1511,3.1511,3.1511,3.1553,3.1853,3.1938,3.1938,3.1938,3.2148,3.2398,3.2484,3.285,3.3182,3.3129,3.2873,3.2482,3.1869,3.1493,3.1108,3.0569,3.0129,2.969,2.9284,2.8702,2.8207,2.7802,2.7439,2.721,2.721,2.6537,2.6024,2.5879,2.5676,2.544,2.513,2.4993,2.4694,2.4165,2.413,2.3829,2.3143,2.3492,2.3308,2.262,2.262,2.2789,2.3093,2.3062,2.2968,4.0728,4.0883,4.0824,4.0646,3.7052,3.2552,2.8704,2.4332,0.0,1.814,1.6429,1.5595,1.6372,1.65,1.7233,0.0,2.1356,2.3007,2.4348,2.7831,3.0776,0.0,3.3568,0.0,3.3347,3.3605,0.0,3.4142,3.4702,3.518,3.5472,3.5294,3.4949,3.4414,3.3094,3.2019,3.1235,3.132,3.1479,3.17,3.2331,3.303,3.3748,3.452,3.4614,3.4127,3.3676,3.3455,3.3424,3.3852,3.3988,3.3842,3.2999,3.0911,2.8295,2.7556,2.6964,2.6589,2.7268,2.8085,2.9004,3.0205,3.0999,3.1511,3.1511,3.1511,3.1511,3.1511,3.1511,3.1511,3.1511,3.1853,3.212,3.1783,3.2104,3.2434,3.2216,3.1992,3.1724,3.1364,3.1014,3.0777,3.0658,3.0147,2.9666,2.9522,2.8609,2.7921,2.7817,2.7354,2.7141,2.7331,2.6945,2.6516,2.6176,2.5802,2.5494,2.524,2.4975,2.4821,2.4801,2.4459,2.4131,2.3836,2.3984,2.3737,2.3027,2.3027,2.2996,2.2931,2.2834,2.2639,4.0136,4.0071,3.949,3.8046,3.5054,3.1075,2.5901,0.0,1.8315,1.6921,1.5868,1.5477,1.633,1.65,1.699,1.8495,1.9921,2.1263,2.2484,2.5479,2.9428,3.453,0.0,0.0,3.3347,3.3326,3.3361,3.3382,3.4683,3.5472,3.5504,3.5472,3.5129,3.4414,3.3805,3.2988,3.2019,3.174,3.1593,3.1629,3.2164,3.2818,3.3541,3.4433,3.4986,3.5277,3.4053,3.4173,3.5175,3.4022,3.4277,3.5085,3.2602,2.9972,2.7523,2.6829,2.6555,2.6589,2.7268,2.8365,2.9634,3.0357,3.0999,3.1511,3.1511,3.1511,3.1511,3.1511,3.1511,3.1511,3.1511,3.1539,3.1438,3.0866,3.116,3.1551,3.1349,3.097,3.0629,3.0614,3.0388,3.019,3.016,3.0103,2.9857,2.9255,2.8583,2.801,2.7505,2.6926,2.6563,2.659,2.5957,2.5565,2.5661,2.4809,2.4374,2.4659,2.48,2.477,2.4463,2.5086,2.4866,2.3652,2.4291,2.424,2.3435,2.3435,2.3298,2.2986,2.2867,2.2238,3.8896,3.934,3.8947,3.7048,3.4007,3.0146,2.5086,0.0,1.8433,1.7528,1.6302,1.5563,1.6138,1.6389,1.6782,1.7612,1.8607,0.0,2.0798,2.3068,2.6728,3.2422,3.3862,0.0,0.0,0.0,3.366,3.4549,3.5162,3.5504,3.5504,3.5504,3.5228,3.4601,3.3825,3.2868,3.1736,3.1408,3.1163,3.1066,3.1713,3.2436,3.3239,3.3929,3.4569,3.513,3.482,3.5011,3.5459,3.4921,3.5026,3.5367,3.3846,3.0899,2.7423,2.676,2.6499,2.6589,2.7268,2.8151,2.9194,3.0266,3.0999,3.1511,3.1511,3.1511,3.1511,3.1511,3.1511,3.1511,3.1511,3.0925,3.0326,3.019,3.0418,3.0598,3.0313,3.0101,2.9825,2.9376,2.9202,2.9075,2.8853,2.8821,2.8753,2.8474,2.8081,2.7626,2.7034,2.6623,2.6245,2.5893,2.6049,2.5887,2.5184,2.4953,2.4618,2.4166,2.4374,2.4525,2.4461,2.4812,2.4705,2.4081,2.4372,2.409,2.3208,2.3117,2.2568,2.1609,2.134,2.0786,3.6981,3.7591,3.7308,3.5726,3.2602,2.8973,0.0,0.0,1.8591,1.7809,1.6477,1.5579,1.5949,1.6279,1.665,1.7115,1.7716,1.8628,2.0038,2.1881,2.4755,2.9227,0.0,3.3282,3.2553,3.3186,3.4142,3.5407,3.5504,3.5392,3.5195,3.4983,3.4735,3.4438,3.3652,3.2618,3.1405,3.1147,3.0927,3.0791,3.1547,3.232,3.3178,3.3769,3.4376,3.4913,3.5317,3.5504,3.5504,3.5504,3.5374,3.5096,3.4346,3.1943,2.8739,2.7548,2.7134,2.7201,2.7656,2.8295,2.9085,3.0235,3.0999,3.1511,3.1511,3.1511,3.1511,3.1511,3.138,3.1073,3.0478,2.9822,2.9306,2.931,2.9467,2.9529,2.9202,2.9107,2.8917,2.8384,2.8222,2.8124,2.7875,2.7842,2.7842,2.7842,2.7533,2.7122,2.6566,2.6167,2.5729,2.5131,2.5618,2.5599,2.459,2.4641,2.441,2.3641,2.3909,2.4177,2.438,2.4421,2.4369,2.4251,2.4188,2.3783,2.2992,2.2868,2.212,2.0793,2.0518,1.993,3.4298,3.4393,3.4041,3.3635,3.0558,2.7413,0.0,2.2293,1.8308,1.7239,1.6147,1.5478,1.5762,1.6187,1.665,1.7115,1.7365,1.8282,2.0491,2.2358,2.4037,0.0,0.0,3.1308,3.0701,3.2919,3.4683,3.5439,3.5504,3.5162,3.4448,3.3736,3.3465,3.3796,3.329,3.2426,3.122,3.1086,3.0991,3.0996,3.1752,3.2589,3.354,3.4128,3.4568,3.4913,3.5317,3.5504,3.5504,3.5504,3.5063,3.4346,3.3591,3.2838,3.1857,2.9469,2.8587,2.8587,2.8587,2.9035,2.9696,3.0387,3.0999,3.1511,3.1511,3.1511,3.1511,3.1511,3.1058,3.0129,2.8072,2.8066,2.849,2.8039,2.8222,2.8417,2.8105,2.7908,2.7809,2.7809,2.7656,2.749,2.749,2.749,2.749,2.749,2.6981,2.6444,2.6056,2.5476,2.4909,2.4387,2.4321,2.4183,2.3828,2.3572,2.3344,2.3127,2.3421,2.3745,2.4099,2.403,2.3967,2.39,2.3724,2.3406,2.2988,2.2876,2.2186,2.0985,2.0849,2.0148,3.0563,3.1438,3.1686,3.0448,2.7666,2.5113,2.4748,2.0564,1.6728,1.6609,1.5693,1.5266,1.6355,1.6515,1.6629,1.6989,1.7323,1.8282,0.0,0.0,0.0,2.5681,2.9559,3.2766,0.0,3.4949,3.5261,3.5472,3.503,3.3977,3.2164,3.185,3.2019,3.2618,3.2725,3.2309,3.1296,3.136,3.1279,3.0995,3.1753,3.2538,3.3393,3.3547,3.3966,3.4574,3.5237,3.5504,3.5504,3.5504,3.5063,3.438,3.4142,3.3591,3.2667,3.0192,2.9289,2.9289,2.9289,2.9713,3.0326,3.0522,3.0999,3.1409,3.1029,3.1176,3.1409,3.0984,2.9701,2.8287,2.741,2.739,2.7556,2.7284,2.7237,2.717,2.6765,2.6778,2.6769,2.6543,2.6645,2.6714,2.6636,2.6739,2.6829,2.6829,2.6731,2.6499,2.6,2.553,2.5024,2.4425,2.4055,2.3788,2.3676,2.345,2.3275,2.3179,2.3136,2.3246,2.3545,2.3436,2.329,2.3084,2.2889,2.2526,2.2049,2.1813,2.1131,2.0035,1.9565,1.8998,0.0,2.7946,2.8318,2.8006,2.5281,0.0,2.2577,1.9027,1.5739,1.5689,1.5223,1.5159,1.6235,1.649,1.6629,1.701,1.7261,1.8104,0.0,0.0,0.0,2.655,0.0,0.0,3.6261,3.5908,3.5162,3.4332,3.3548,3.2489,3.1099,3.0986,3.1123,3.1371,3.1836,3.174,3.1099,3.1261,3.1354,3.1312,3.1947,3.2713,3.3566,3.3667,3.4118,3.4824,3.5287,3.5504,0.0,3.5504,3.5228,3.4831,3.4831,3.4549,3.3941,3.2389,3.1193,3.0326,3.0326,3.0598,3.0896,3.0657,3.0687,3.0657,3.0052,3.0282,3.0657,3.0007,2.8325,2.6667,2.6586,2.653,2.6461,2.6333,2.6183,2.5975,2.5627,2.5662,2.5721,2.5606,2.5804,2.6013,2.6084,2.6258,2.6396,2.6499,2.6555,2.6409,2.5853,2.5572,2.5173,2.4595,2.4081,2.3765,2.3832,2.3619,2.3478,2.3417,2.3459,2.356,2.3768,2.3606,2.3267,2.279,2.2436,2.1966,2.1299,2.0921,2.0378,1.9671,1.9251,1.8855,0.0,2.4151,2.4326,2.6018,2.3354,0.0,2.011,1.7661,0.0,1.4534,1.4701,1.5132,1.5683,1.6191,1.6693,1.7157,1.722,1.7817,0.0,2.0658,0.0,0.0,3.1487,3.4272,3.6044,3.5589,3.4351,3.235,3.1471,3.0986,3.0986,3.0949,3.0685,3.0228,3.0685,3.0887,3.0736,3.0962,3.1292,3.183,3.2276,3.3022,3.396,3.4263,3.4774,3.5439,3.5472,3.5504,3.5504,3.5504,3.5504,3.5504,3.5439,3.5407,3.5407,3.5407,3.3721,3.1438,3.1482,3.1467,3.1322,3.0657,2.9991,2.932,2.8716,2.8972,2.932,2.8683,2.6981,2.5382,2.5687,2.5511,2.5229,2.5158,2.5016,2.4791,2.4564,2.4564,2.4636,2.4826,2.5087,2.5347,2.5758,2.6027,2.6236,2.6465,2.6499,2.6298,2.5724,2.5624,2.541,2.4888,2.4393,2.4104,2.4178,2.3922,2.3771,2.3792,2.4132,2.4405,2.4525,2.4212,2.3694,2.2922,2.2332,2.1605,2.0734,2.022,1.9901,1.9773,1.963,1.9396,2.0922,0.0,2.2383,2.2864,2.1138,1.9104,0.0,1.6139,1.4246,1.3628,0.0,1.5082,1.6378,1.6723,1.6926,1.7352,1.7303,1.7839,1.968,2.1729,0.0,2.797,3.3204,3.5646,3.3429,3.2511,3.2092,3.2105,3.1421,3.0911,3.0698,3.0279,3.0075,3.0114,3.0254,3.0496,3.0924,3.1288,3.1641,3.2048,3.2449,3.2941,3.3479,3.4129,3.4495,3.4683,3.5276,3.5504,3.5504,3.5504,3.5504,3.5439,3.4898,3.465,3.465,3.465,3.3045,3.0881,3.1322,3.1205,3.0628,2.9463,2.8573,2.7954,2.7789,2.7855,2.7954,2.7789,2.6586,2.5206,2.4718,2.4743,2.4647,2.3936,2.3618,2.335,2.3016,2.3165,2.346,2.3655,2.4179,2.4743,2.5123,2.5641,2.605,2.6236,2.6396,2.6449,2.6311,2.5908,2.5548,2.5423,2.4946,2.452,2.4203,2.3632,2.3425,2.3784,2.3788,2.3835,2.3909,2.3654,2.3301,2.2905,2.1852,2.0978,2.0182,1.9849,1.9617,1.9486,1.9251,1.8907,1.9752,2.0236,2.0662,2.0544,1.9315,1.7695,1.6078,0.0,0.0,0.0,0.0,1.4875,1.5968,1.6276,1.663,1.734,1.7123,1.8432,0.0,0.0,2.851,3.0881,3.3464,3.4298,3.2322,3.1458,3.1161,3.1556,3.1011,3.0609,3.0495,3.0152,2.996,2.9947,3.0125,3.042,3.085,3.1329,3.1798,3.2233,3.2144,3.2436,3.3034,3.3619,3.3273,3.2237,3.2626,3.2786,3.2873,3.402,3.4683,3.4931,3.4176,3.3695,3.3403,3.3403,3.2023,3.0174,3.0507,3.019,2.9512,2.8444,2.7623,2.6952,2.6598,2.6242,2.607,2.638,2.5652,2.4611,2.3849,2.3801,2.3754,2.3065,2.2665,2.2402,2.2176,2.2289,2.2553,2.2815,2.335,2.3961,2.46,2.5241,2.5758,2.6131,2.6361,2.6499,2.6499,2.6223,2.6021,2.6021,2.5498,2.5091,2.4841,2.4088,2.3732,2.4,2.4108,2.4123,2.4055,2.3865,2.3389,2.263,2.142,2.0541,2.0081,1.9636,1.933,1.9105,1.8827,1.8425,1.9383,1.9514,1.9476,1.9036,1.809,1.6655,1.4344,0.0,0.0,0.0,0.0,0.0,0.0,1.5977,0.0,1.7354,0.0,0.0,2.6634,3.0561,3.3096,3.4105,3.3086,3.2228,3.2055,3.1371,3.0949,3.0949,3.0495,3.0228,3.0368,3.0165,2.9922,2.9651,3.0047,3.033,3.0419,3.1155,3.1752,3.2313,3.1692,3.178,3.2423,3.2528,3.1364,2.9289,2.9383,2.9383,2.9442,3.1541,3.2952,3.3767,3.3311,3.2674,3.2036,3.2036,3.0856,2.9289,2.9289,2.8908,2.8327,2.759,2.6964,2.6349,2.5523,2.4718,2.4105,2.4623,2.4383,2.3824,2.3038,2.2852,2.2777,2.2365,2.1959,2.1655,2.1606,2.1655,2.1769,2.2138,2.2553,2.3128,2.4022,2.4719,2.5347,2.5945,2.6258,2.6383,2.6383,2.6349,2.6349,2.6314,2.5843,2.5519,2.5478,2.4682,2.4193,2.42,2.4474,2.452,2.4263,2.4118,2.3438,2.2176,2.0986,2.0305,2.0083,1.9388,1.8895,1.8625,1.8251,1.7788,1.8647,1.913,1.9701,1.8796,1.8306,1.7285,1.4444,0.0,0.0,0.0,0.0,0.0,0.0,1.7808,1.8562,0.0,0.0,2.3262,0.0,0.0,3.3931,3.3514,3.298,3.2403,3.1809,3.1073,3.066,3.0736,3.0343,3.0113,3.0152,2.9972,2.9614,2.9066,2.9448,2.9515,2.9252,3.0401,3.131,3.1896,3.1549,3.1323,3.1143,2.9904,2.8762,2.7855,2.8476,2.8392,2.7848,2.8239,2.9443,3.111,3.2012,3.1877,3.1174,3.1174,2.9772,2.7822,2.7822,2.7756,2.757,2.6863,2.6589,2.6349,2.5523,2.4299,2.3075,2.2505,2.274,2.3001,2.2176,2.2138,2.2203,2.1672,2.131,2.0974,2.0799,2.0935,2.1099,2.1359,2.1845,2.244,2.3102,2.3961,2.4671,2.5123,2.5641,2.5933,2.5746,2.5746,2.5676,2.5488,2.5415,2.522,2.4942,2.4464,2.4067,2.3804,2.3795,2.3586,2.3168,2.2944,2.2413,2.1457,2.0767,2.0153,1.9602,1.8701,1.8131,1.7859,1.7296,1.6708,1.7995,1.8894,1.9688,1.8877,1.867,1.7884,1.4773,1.5078,0.0,0.0,0.0,0.0,0.0,0.0,2.0195,2.3431,0.0,2.7865,2.948,3.1776,3.3317,3.3318,3.2739,3.2223,3.1796,3.0784,3.007,2.9807,2.9227,2.8813,2.8687,2.8631,2.8484,2.8307,2.8599,2.8764,2.8824,2.9377,3.0121,3.1029,3.0696,3.0461,3.0266,2.894,2.7828,2.6998,2.7323,2.7369,2.7273,2.7887,2.8664,2.9556,3.0765,3.0864,3.0202,2.901,2.7895,2.6964,2.6964,2.6964,2.6829,2.6094,2.5851,2.5629,2.4407,2.325,2.2176,2.1377,2.1405,2.1634,2.1262,2.1252,2.1252,2.0808,2.0479,2.0225,2.0108,2.0108,2.0313,2.077,2.1272,2.1845,2.2553,2.3386,2.4107,2.4504,2.4945,2.5229,2.5123,2.5123,2.5087,2.4981,2.4981,2.4802,2.4406,2.4004,2.3604,2.3282,2.3063,2.2811,2.2476,2.2044,2.1584,2.1194,2.0254,1.9627,1.9327,1.8322,1.768,1.7367,1.6674,1.6098,1.6824,1.8058,1.9006,1.835,0.0,1.856,1.6002,1.6854,0.0,0.0,0.0,0.0,0.0,1.9488,0.0,2.7674,2.9913,3.1128,3.1823,3.2089,3.2426,3.2954,3.228,3.1644,3.1362,3.0179,2.917,2.8662,2.8002,2.7521,2.7335,2.7313,2.7354,2.7406,2.77,2.797,2.8164,2.8237,2.8876,3.0048,2.9649,2.9424,2.9417,2.8505,2.7491,2.6499,2.6499,2.6636,2.696,2.7829,2.8202,2.8323,2.9322,2.9343,2.8537,2.6833,2.6211,2.6245,2.6418,2.6383,2.6094,2.5312,2.4921,2.4515,2.3139,2.2176,2.1339,2.0518,2.0167,2.005,2.0245,2.0128,1.9932,1.9678,1.9529,1.9381,1.9359,1.9399,1.9636,2.0177,2.0605,2.1156,2.1911,2.2729,2.3398,2.379,2.4179,2.4396,2.4324,2.4312,2.4288,2.4168,2.4064,2.3813,2.3352,2.3137,2.2811,2.2407,2.223,2.2021,2.1698,2.1144,2.0837,2.0752,1.9629,1.9044,1.9044,1.7991,1.7299,1.69,1.6182,1.5489,1.4538,1.5939,1.7142,1.6528,1.805,0.0,1.8891,1.8896,0.0,1.9045,0.0,0.0,0.0,2.1713,2.3833,2.6692,2.9103,3.1219,3.2928,3.2358,3.1868,3.2141,3.1375,3.0595,3.0001,2.8902,2.7989,2.7445,2.721,2.6949,2.6749,2.678,2.6588,2.6226,2.6789,2.6891,2.6568,2.7105,2.7958,2.9008,2.8592,2.8368,2.8303,2.8179,2.7491,2.6499,2.6499,2.6499,2.6533,2.6618,2.6845,2.7159,2.7561,2.6866,2.5587,2.5443,2.5382,2.5488,2.6245,2.6025,2.5276,2.4514,2.3776,2.3001,2.2138,2.1339,2.0527,1.9657,1.8825,1.8353,1.9183,1.8785,1.8193,1.8152,1.8385,1.8585,1.8576,1.8834,1.9112,1.9341,1.9706,2.0216,2.0905,2.169,2.2333,2.2729,2.3298,2.3556,2.3176,2.3113,2.299,2.2628,2.2193,2.1764,2.1352,2.1609,2.1524,2.0797,2.1198,2.1198,2.0549,2.0291,2.0042,1.9704,1.9008,1.8627,1.8627,1.7624,1.686,1.6347,1.5657,1.4722,1.4051,1.5407,1.6979,1.7791,1.9866,0.0,0.0,2.0734,2.1889,2.1889,2.3214,0.0,0.0,0.0,2.5071,2.7217,2.8828,3.008,3.0894,3.1026,3.0801,3.0077,2.9772,2.9415,2.88,2.7726,2.6761,2.611,2.5297,2.468,2.4342,2.4196,2.4122,2.4179,2.4499,2.4715,2.4786,2.5123,2.5494,2.5939,2.7209,2.7689,2.7459,2.7631,2.7383,2.6797,2.6606,2.6499,2.6499,2.6211,2.6361,2.6602,2.5769,2.4802,2.3948,2.4431,2.4611,2.4647,2.4969,2.4046,2.2628,2.1902,2.1141,2.0345,1.9108,1.8207,1.7248,1.5463,1.5242,1.5899,1.7326,1.7456,1.7057,1.6509,1.646,1.6698,1.7269,1.748,1.7804,1.8536,1.9054,1.9608,2.0411,2.1108,2.1645,2.1911,2.2138,2.2252,2.2111,2.1814,2.1549,2.1319,2.07,2.0355,2.0409,2.0388,2.0325,2.0172,2.0431,2.0387,1.9922,1.9528,1.9231,1.9108,1.8477,1.8112,1.7963,1.7252,1.6547,1.5863,1.51,1.4295,1.3743,1.4855,1.6532,1.8579,0.0,0.0,2.097,2.2493,2.4353,2.4777,2.6005,2.6754,2.5967,0.0,0.0,2.7403,2.8268,2.8898,2.9449,2.9772,2.9679,2.8795,2.8318,2.7853,2.728,2.609,2.5004,2.4261,2.3356,2.2687,2.2353,2.2171,2.2253,2.2651,2.2918,2.3204,2.3547,2.3739,2.3842,2.3875,2.5439,2.6144,2.6125,2.6815,2.6965,2.6618,2.6029,2.5781,2.5758,2.5477,2.5241,2.4898,2.3838,2.3113,2.2703,2.3224,2.3446,2.3393,2.3029,2.1891,2.0442,1.9933,1.9308,1.8539,1.7279,1.6202,1.4963,1.2886,1.3166,1.4377,1.5575,1.5865,1.5741,1.511,1.5151,1.5436,1.6049,1.6296,1.6665,1.761,1.8167,1.8798,1.9824,2.0411,2.0925,2.1244,2.131,2.1272,2.1156,2.0622,2.0117,1.9681,1.9332,1.9227,1.9462,1.9385,1.9407,1.9539,1.9649,1.9627,1.944,1.8975,1.8707,1.8707,1.8258,1.7932,1.7724,1.7126,1.6443,1.5634,1.4773,1.3987,1.3394,1.4086,1.5495,0.0,0.0,0.0,2.263,2.4155,2.5975,2.731,2.6586,2.5626,2.5434,2.5463,0.0,2.6985,2.7297,2.785,2.919,2.8799,2.8441,2.8653,2.7057,2.5804,2.5429,2.3916,2.2673,2.193,2.1559,2.1295,2.1085,2.1059,2.1309,2.1856,2.225,2.2612,2.2942,2.3156,2.3268,2.3268,2.3268,2.3549,2.4147,2.5689,2.6218,2.5812,2.4681,2.42,2.42,2.4189,2.3224,2.1807,2.1807,2.1807,2.1807,2.1787,2.1776,2.1593,2.0468,1.9638,1.9108,1.9065,1.8573,1.7837,1.7116,1.5806,1.4274,1.2739,1.316,1.4075,1.4075,1.4075,1.4082,1.4088,1.4538,1.4992,1.4992,1.5367,1.5906,1.6566,1.7082,1.7804,1.9054,1.9627,2.0108,2.079,2.0886,2.075,2.0333,1.9553,1.8667,1.7578,1.8022,1.8352,1.8275,1.8607,1.8808,1.8808,1.8808,1.8875,1.9108,1.8707,1.8516,1.8516,1.8381,1.8212,1.7974,1.7254,1.6517,1.5762,1.4768,1.3775,1.32,1.4594,0.0,1.7951,0.0,0.0,0.0,2.3105,0.0,0.0,2.5807,2.5117,2.5771,2.5366,2.5265,2.6257,2.6257,2.6535,2.7624,2.7207,2.6495,2.5691,2.485,2.4046,2.3432,2.2455,2.1664,2.1139,2.0478,2.0052,1.9978,1.9789,1.9716,1.9803,1.994,1.9965,1.9832,1.9789,1.9789,1.98,2.0069,2.1255,2.3214,2.414,2.4633,2.4646,2.3767,2.3372,2.3298,2.274,2.1911,2.0954,2.0954,2.0954,2.0804,1.9571,1.9123,1.9088,1.873,1.8472,1.8236,1.7716,1.7417,1.6968,1.5665,1.4597,1.3557,1.2261,1.2137,1.2415,1.2536,1.27,1.3037,1.3904,1.425,1.4419,1.4566,1.4692,1.5026,1.5858,1.6509,1.7269,1.8416,1.9192,1.9794,2.0147,2.0069,1.9476,1.807,1.7471,1.6858,1.6167,1.6581,1.7044,1.7289,1.7862,1.8347,1.8583,1.8583,1.8674,1.8875,1.8774,1.8707,1.8707,1.8438,1.8066,1.7588,1.6716,1.5833,1.4931,1.4258,1.3571,1.3868,1.5222,0.0,1.8037,2.0168,2.1978,2.1882,0.0,0.0,0.0,2.5599,2.5177,2.5592,2.5094,2.4844,2.5549,2.5387,2.5472,2.6411,2.5769,2.4739,2.3599,2.2838,2.2126,2.1565,2.0575,1.9792,1.9422,1.8859,1.8523,1.8512,1.8364,1.8293,1.8322,1.8394,1.836,1.8221,1.8129,1.8098,1.8098,1.8342,1.9232,2.0726,2.1822,2.2421,2.2488,2.1149,2.0581,2.0545,2.0056,1.9725,1.9588,1.9588,1.9588,1.9424,1.8389,1.8008,1.8008,1.8008,1.7803,1.7451,1.67,1.6237,1.5771,1.4525,1.3855,1.3273,1.2224,1.1706,1.1521,1.1765,1.1776,1.2024,1.3153,1.349,1.36,1.3831,1.4019,1.4356,1.5151,1.585,1.6665,1.7853,1.8705,1.935,1.9715,1.939,1.843,1.6674,1.6225,1.5786,1.5109,1.5614,1.6149,1.6508,1.7325,1.7898,1.8178,1.8472,1.8775,1.8985,1.8942,1.8942,1.9008,1.8539,1.7988,1.7398,1.6324,1.5338,1.4474,1.3941,1.3441,1.497,1.5831,1.7001,1.8561,2.0464,0.0,2.3156,2.3703,2.4316,2.5535,0.0,2.5447,2.5003,2.465,2.4522,2.4783,2.4501,2.4477,2.5154,2.423,2.3031,2.1893,2.0803,2.0083,1.9792,1.8522,1.7564,1.7274,1.7045,1.6933,1.6931,1.6947,1.7072,1.7358,1.7367,1.744,1.7585,1.7585,1.7585,1.7595,1.7626,1.7534,1.7409,1.9169,1.9901,1.9704,1.774,1.6908,1.6908,1.6908,1.7314,1.8008,1.8008,1.8008,1.8008,1.8008,1.8008,1.7974,1.7906,1.7426,1.6665,1.5938,1.515,1.4353,1.3528,1.3273,1.3119,1.2305,1.1558,1.1074,1.1446,1.1162,1.1039,1.191,1.2369,1.2638,1.2928,1.3273,1.3743,1.4434,1.515,1.6026,1.7359,1.8175,1.8816,1.9359,1.8705,1.755,1.5893,1.5605,1.5177,1.4271,1.4916,1.5539,1.5885,1.6884,1.7563,1.7772,1.8486,1.9038,1.9302,1.9196,1.9175,1.9252,1.8573,1.7876,1.7223,1.5965,1.4919,1.4122,1.3666,1.3346,1.4664,1.5875,0.0,0.0,2.093,2.1895,2.2448,2.2472,2.2842,2.4465,2.4704,2.4556,2.4338,2.4031,2.3743,2.353,2.2815,2.2231,2.197,2.1365,2.032,1.8566,1.7999,1.7833,1.803,1.743,1.6979,1.692,1.649,1.628,1.6437,1.6452,1.6395,1.6234,1.6356,1.6237,1.593,1.593,1.593,1.593,1.6277,1.6354,1.6219,1.8119,1.8476,1.7579,1.7107,1.6908,1.6908,1.6908,1.7314,1.8008,1.8008,1.8008,1.8008,1.8008,1.8008,1.7906,1.7358,1.6665,1.5903,1.5106,1.4353,1.3484,1.204,1.1632,1.1446,1.0625,1.0293,1.018,1.0255,1.0198,1.0078,0.9978,1.083,1.1728,1.1943,1.2199,1.2625,1.3503,1.4363,1.5305,1.647,1.748,1.8207,1.8327,1.748,1.6299,1.4946,1.4435,1.3964,1.3257,1.4102,1.4883,1.5324,1.6624,1.7696,1.8362,1.8856,1.9231,1.9462,1.9339,1.9142,1.8908,1.8037,1.7017,1.5834,1.4716,1.376,1.2966,1.3003,1.301,1.4573,0.0,0.0,1.9821,0.0,2.1375,2.1925,2.1891,2.1975,2.2874,2.3376,2.3505,2.2972,2.2857,2.2648,2.1916,2.1288,2.0612,1.9777,1.9433,1.8684,1.7024,1.6638,1.6492,1.6582,1.6052,1.5674,1.5565,1.5287,1.5155,1.5204,1.5204,1.5153,1.5102,1.5153,1.5139,1.5069,1.5059,1.5098,1.5196,1.5447,1.5538,1.5513,1.6873,1.7287,1.6874,1.6525,1.6351,1.6351,1.6351,1.6804,1.7461,1.7461,1.7461,1.7529,1.7872,1.7769,1.7358,1.663,1.5859,1.5114,1.4317,1.3557,1.2709,1.1484,1.0812,1.0363,0.9539,0.9041,0.8742,0.8742,0.8475,0.8131,0.7906,0.9019,1.0202,1.0596,1.1249,1.1944,1.273,1.3567,1.4554,1.5686,1.6806,1.748,1.7408,1.6755,1.5833,1.4696,1.4105,1.3596,1.3016,1.3752,1.4448,1.4897,1.638,1.7538,1.8119,1.8713,1.9091,1.916,1.8611,1.8282,1.8237,1.7084,1.5982,1.4906,1.3666,1.276,1.2161,1.2365,1.2562,1.4212,0.0,1.7504,1.9735,2.0561,0.0,2.1354,2.1236,2.1002,2.0966,2.1896,2.246,2.1597,2.1645,2.1476,2.0444,1.9942,1.9277,1.8228,1.7949,1.7372,1.6184,1.5801,1.5556,1.5247,1.4621,1.4155,1.3924,1.3806,1.3688,1.3599,1.3599,1.3628,1.3747,1.3865,1.4062,1.4346,1.4443,1.4606,1.4866,1.4844,1.4842,1.489,1.5318,1.593,1.6604,1.5877,1.5584,1.5584,1.5584,1.5964,1.6517,1.6517,1.6586,1.6769,1.7392,1.722,1.6595,1.5859,1.5078,1.4245,1.3375,1.2636,1.1929,1.0956,1.0137,0.9311,0.8513,0.7787,0.7292,0.7292,0.6799,0.63,0.63,0.7369,0.8535,0.9203,1.0214,1.1186,1.1903,1.2909,1.4024,1.5082,1.6079,1.6673,1.6484,1.6098,1.5531,1.4605,1.4062,1.3586,1.3083,1.3648,1.4219,1.4623,1.6192,1.7337,1.7783,1.8432,1.8728,1.8555,1.7455,1.6839,1.6814,1.5708,1.4691,1.3804,1.2537,1.1723,1.1331,1.1646,1.204,1.278,0.0,1.8003,0.0,2.0611,2.1168,0.0,0.0,1.9021,0.0,2.0271,2.144,2.1212,2.0864,2.0427,1.9889,1.8926,1.8024,1.7364,1.6521,1.5693,1.5009,1.4771,1.4444,1.3843,1.3438,1.3081,1.2748,1.2225,1.1931,1.1931,1.1931,1.1931,1.1959,1.2442,1.2805,1.2964,1.3369,1.3812,1.4307,1.4184,1.4096,1.396,1.3159,1.3794,1.5498,1.4967,1.4748,1.4748,1.4748,1.482,1.4919,1.4919,1.5328,1.5973,1.6044,1.6044,1.5832,1.5034,1.4281,1.3419,1.1892,1.1335,1.0999,0.949,0.847,0.7633,0.6834,0.6528,0.6451,0.6451,0.6377,0.63,0.63,0.6644,0.7227,0.8107,0.8851,0.964,1.0706,1.2578,1.4189,1.4918,1.5346,1.5602,1.556,1.5193,1.4705,1.4151,1.3804,1.3507,1.3219,1.3846,1.4441,1.4914,1.6211,1.7349,1.8188,1.8311,1.8154,1.7626,1.6181,1.4852,1.3729,1.3724,1.3014,1.1455,1.0796,1.0256,0.9826,1.0589,1.126,1.3057,1.5034,1.7048,0.0,1.8341,1.9103,1.8883,1.839,1.7915,1.7714,1.8173,1.8804,1.9427,1.923,1.8701,1.779,1.6718,1.5861,1.5334,1.4655,1.4054,1.3643,1.3235,1.2846,1.2456,1.2175,1.1874,1.1608,1.1354,1.1164,1.1107,1.1164,1.1249,1.1334,1.1712,1.2095,1.2408,1.2776,1.3094,1.3366,1.2972,1.2697,1.2549,1.1639,1.2258,1.3985,1.3428,1.3109,1.2902,1.2902,1.2902,1.2902,1.2902,1.3142,1.3341,1.2561,1.2018,1.1764,1.2166,1.2254,1.1966,1.0812,1.0137,0.9528,0.8394,0.7787,0.733,0.6528,0.63,0.63,0.63,0.63,0.63,0.63,0.6377,0.6606,0.7142,0.8016,0.9105,1.0684,1.2174,1.3427,1.4089,1.4572,1.4894,1.4977,1.4734,1.4476,1.4255,1.3864,1.3553,1.3427,1.3966,1.4448,1.4764,1.5947,1.6837,1.7204,1.7074,1.6733,1.6065,1.455,1.315,1.1893,1.1958,1.1536,1.0627,0.975,0.9431,0.9547,1.005,1.0738,0.0,0.0,1.5324,1.5446,1.6006,1.6568,0.0,0.0,1.6487,1.6348,1.6003,1.6023,1.7004,1.7167,1.6786,1.5704,1.4804,1.4071,1.3588,1.3159,1.277,1.2426,1.1942,1.1519,1.1272,1.1012,1.0778,1.0548,1.0492,1.0409,1.0325,1.0485,1.0624,1.0756,1.1115,1.1507,1.1917,1.2283,1.2471,1.2406,1.1886,1.1537,1.1299,1.0511,1.0852,1.2043,1.1888,1.1654,1.131,1.0958,1.0699,1.0566,1.0762,1.08,1.0674,0.9638,0.8867,0.8482,0.9197,0.958,0.9621,0.915,0.8432,0.7625,0.6822,0.671,0.6753,0.6141,0.6145,0.63,0.618,0.6219,0.63,0.63,0.63,0.6412,0.6756,0.7671,0.8904,1.065,1.1736,1.2597,1.3315,1.3833,1.423,1.4398,1.423,1.4062,1.4062,1.3715,1.3459,1.3459,1.3871,1.4193,1.435,1.5328,1.5929,1.588,1.5573,1.5098,1.4404,1.2905,1.1601,1.0572,1.0364,1.0084,0.978,0.9049,0.8941,0.9409,0.9769,1.0368,0.0,1.3015,0.0,1.4245,1.4515,1.4181,0.0,0.0,1.4166,1.4151,1.3892,1.3754,1.4064,1.4655,1.4856,1.4281,1.379,1.3304,1.2822,1.2527,1.212,1.1531,1.1269,1.0921,1.0334,1.0086,0.9839,0.9511,0.9358,0.9286,0.9286,0.9542,0.9743,0.9866,1.0433,1.0877,1.115,1.1809,1.1964,1.1636,1.1316,1.0929,1.0523,0.9787,0.9426,0.9448,1.0643,1.0972,1.0555,0.9215,0.8279,0.7782,0.8409,0.8673,0.8641,0.8576,0.8317,0.7894,0.694,0.6285,0.5954,0.6367,0.5909,0.5051,0.4231,0.4543,0.5135,0.5096,0.5679,0.6219,0.5902,0.606,0.63,0.63,0.63,0.6528,0.7292,0.7965,0.88,1.0105,1.1047,1.1964,1.2855,1.3255,1.3525,1.3737,1.3434,1.3179,1.3179,1.3124,1.3118,1.3118,1.3499,1.3747,1.3769,1.4374,1.4665,1.4442,1.4046,1.3474,1.2762,1.1239,1.0193,0.9689,0.9061,0.8585,0.83,0.8525,0.8702,0.895,0.9614,1.0218,0.0,0.0,0.0,1.3374,1.3045,1.2514,1.2275,1.2246,1.2204,1.1982,1.1854,1.1733,1.1661,1.2617,1.3214,1.2538,1.1886,1.1357,1.1007,1.0804,1.0581,1.0287,1.0026,0.9767,0.9473,0.9279,0.9151,0.9015,0.9061,0.9113,0.9185,0.9614,0.9925,1.0061,1.0633,1.1049,1.1226,1.1302,1.1112,1.0697,1.0128,0.9638,0.9182,0.8449,0.8102,0.8085,0.8809,0.9402,0.9798,0.8436,0.7428,0.6839,0.7302,0.747,0.7503,0.7759,0.7489,0.6946,0.6693,0.5919,0.4975,0.4734,0.3713,0.2628,0.2591,0.2981,0.3567,0.4387,0.5007,0.555,0.6012,0.6289,0.6525,0.6637,0.6602,0.6631,0.712,0.7628,0.8338,0.9596,1.0362,1.1193,1.2578,1.2899,1.3094,1.3434,1.3137,1.279,1.2662,1.2491,1.24,1.24,1.2662,1.29,1.3058,1.3243,1.3328,1.3186,1.2371,1.1655,1.1078,0.9816,0.9021,0.8723,0.8482,0.8435,0.8662,0.8765,0.9138,0.9753,0.9986,1.0406,1.2437,0.0,0.0,0.0,1.1906,1.1325,1.113,1.0748,1.0353,1.0146,0.998,0.9867,0.9825,1.0598,1.1167,1.0959,1.0493,1.0053,0.984,0.971,0.9588,0.9413,0.9237,0.9087,0.8936,0.8857,0.8804,0.8804,0.8962,0.914,0.9263,0.9795,1.0216,1.048,1.0837,1.1015,1.1006,1.0676,1.03,0.9862,0.9237,0.8678,0.8202,0.7566,0.7172,0.7042,0.7179,0.7923,0.8899,0.7754,0.6942,0.6416,0.6782,0.6848,0.6745,0.6966,0.6634,0.6119,0.5959,0.5124,0.4013,0.3319,0.2211,0.1178,0.1415,0.1846,0.255,0.3839,0.4577,0.5196,0.5973,0.6518,0.6945,0.7057,0.6984,0.6971,0.7111,0.7358,0.7845,0.9019,0.9691,1.0512,1.1986,1.2229,1.2363,1.279,1.2314,1.18,1.1585,1.1413,1.1284,1.1284,1.1585,1.1809,1.1871,1.1875,1.1809,1.1518,1.0742,1.0089,0.9669,0.8686,0.8153,0.8201,0.8244,0.8548,0.9104,0.9195,0.9582,1.0297,1.0366,1.0519,0.0,0.0,0.0,0.0,0.0,0.0,0.9499,0.8948,0.8645,0.8616,0.8317,0.8162,0.8563,0.8518,0.8704,0.9562,0.9636,0.9521,0.9384,0.938,0.929,0.9035,0.8982,0.8936,0.8804,0.8804,0.8804,0.8804,0.9035,0.9263,0.9387,0.9973,1.0547,1.1074,1.0947,1.0702,1.0364,0.9961,0.9562,0.9159,0.8606,0.8129,0.7649,0.716,0.6696,0.6248,0.5917,0.6588,0.7859,0.7153,0.6662,0.6404,0.6736,0.6675,0.6346,0.6145,0.5848,0.5448,0.4553,0.3685,0.2849,0.2097,0.1375,0.0785,0.0628,0.1218,0.2161,0.345,0.4384,0.516,0.5783,0.6749,0.7522,0.7522,0.7518,0.7465,0.7334,0.7195,0.7409,0.8383,0.9125,0.9946,1.1063,1.1284,1.137,1.1628,1.0895,1.0164,0.9903,0.9859,0.9859,0.9859,1.0255,1.0426,1.0194,1.036,1.0162,0.9423,0.9177,0.891,0.8515,0.7856,0.7724,0.8201,0.8369,0.882,0.9486,0.9786,1.0104,1.0519,1.0663,1.0443,1.2195,0.0,0.0,0.0,0.0,0.0,0.8382,0.7794,0.7332,0.6846,0.6778,0.683,0.6936,0.6926,0.7077,0.7613,0.8361,0.8819,0.8704,0.8857,0.8929,0.8857,0.8857,0.8831,0.8804,0.8804,0.8804,0.8804,0.9035,0.9263,0.9387,1.0069,1.0531,1.0728,1.0431,1.002,0.954,0.9138,0.8699,0.8243,0.7723,0.716,0.6588,0.6023,0.5595,0.5283,0.5138,0.5301,0.5684,0.584,0.5804,0.5705,0.605,0.5973,0.5664,0.5614,0.519,0.4553,0.3785,0.2938,0.2076,0.1344,0.0897,0.0691,0.0781,0.1335,0.2118,0.3212,0.4226,0.5389,0.7046,0.7931,0.836,0.836,0.8165,0.7845,0.7572,0.7274,0.7272,0.8155,0.8559,0.9244,1.0544,1.0679,1.0722,1.1111,1.0381,0.9733,0.9476,0.9165,0.8942,0.8942,0.9154,0.9309,0.9401,0.9357,0.9279,0.914,0.8596,0.8219,0.8011,0.7492,0.7452,0.7984,0.8162,0.8679,0.9507,1.0072,1.0462,1.07,1.0169,0.9573,0.0,0.0,0.0,0.0,0.0,0.0,0.7934,0.7137,0.6473,0.5981,0.5836,0.5834,0.5913,0.593,0.5989,0.6246,0.6991,0.7648,0.7936,0.818,0.8329,0.8329,0.8386,0.8418,0.8418,0.8418,0.8439,0.8501,0.8721,0.8975,0.9216,0.964,0.9873,0.985,0.9436,0.8967,0.8495,0.7998,0.7578,0.7176,0.6605,0.6145,0.5714,0.5195,0.4894,0.4727,0.4699,0.4671,0.4694,0.4984,0.5104,0.5171,0.5564,0.5487,0.5159,0.5006,0.4522,0.3854,0.2952,0.2173,0.1456,0.09,0.0663,0.0675,0.1089,0.1649,0.2352,0.3407,0.4766,0.6276,0.7817,0.8661,0.9046,0.897,0.8699,0.8344,0.7853,0.7398,0.729,0.7789,0.8069,0.8544,0.9545,0.9637,0.968,0.9937,0.9331,0.8771,0.856,0.8292,0.8184,0.8205,0.8399,0.8559,0.8706,0.8674,0.8586,0.849,0.8058,0.7762,0.765,0.731,0.7363,0.79,0.8076,0.8586,0.9377,1.0034,1.0313,1.0241,0.9413,0.8572,0.0,0.0,0.0,0.0,0.9885,0.0,0.7852,0.6831,0.5985,0.5675,0.5299,0.5069,0.5206,0.5226,0.5236,0.5265,0.5616,0.6223,0.7147,0.7491,0.7641,0.7669,0.7791,0.7882,0.7882,0.7882,0.7933,0.8028,0.8218,0.847,0.8834,0.8882,0.8823,0.8666,0.821,0.7786,0.7331,0.6745,0.6317,0.5991,0.5401,0.5046,0.4886,0.4512,0.4349,0.4405,0.4405,0.4463,0.4491,0.4491,0.461,0.4845,0.5178,0.5125,0.4775,0.4378,0.3854,0.322,0.2185,0.1513,0.1018,0.0716,0.0656,0.0809,0.1509,0.2158,0.2901,0.4068,0.577,0.751,0.836,0.9127,0.9657,0.9435,0.9198,0.8803,0.8028,0.7593,0.7332,0.7421,0.7621,0.7937,0.8368,0.8504,0.8504,0.8456,0.8069,0.772,0.7507,0.7462,0.7519,0.7668,0.7889,0.8073,0.8135,0.8177,0.808,0.7814,0.7692,0.7546,0.7426,0.7241,0.7381,0.7856,0.8053,0.8442,0.9055,0.9714,0.977,0.9268,0.8324,0.7304,0.0,0.0,0.0,0.0,0.0,0.0,0.7312,0.651,0.5777,0.5169,0.4811,0.4525,0.4246,0.415,0.4181,0.4404,0.4548,0.5089,0.6347,0.6973,0.7348,0.744,0.7624,0.7743,0.7743,0.7743,0.7728,0.769,0.7728,0.7841,0.8012,0.8098,0.7998,0.7759,0.745,0.6912,0.615,0.5741,0.5308,0.4818,0.4233,0.3843,0.3647,0.3347,0.3405,0.3793,0.3879,0.4156,0.4491,0.4491,0.461,0.4805,0.4752,0.4622,0.4347,0.3848,0.3218,0.2517,0.168,0.1176,0.0848,0.0859,0.1057,0.1435,0.2127,0.2902,0.3917,0.5628,0.6973,0.8194,0.9311,0.9954,1.0255,1.0067,0.9609,0.8952,0.7955,0.7516,0.7257,0.7064,0.733,0.7724,0.8197,0.8113,0.8072,0.8245,0.7852,0.7551,0.7507,0.7323,0.7245,0.7444,0.7621,0.7769,0.7849,0.7975,0.7992,0.7818,0.7784,0.7648,0.7429,0.7343,0.7406,0.7595,0.7779,0.7956,0.8084,0.8597,0.8528,0.7869,0.6627,0.5566,0.0,0.0,0.0,1.0355,0.0,0.0,0.0,0.6999,0.6281,0.5676,0.5193,0.4784,0.4383,0.4189,0.4108,0.4105,0.4099,0.4326,0.4999,0.5855,0.6437,0.6545,0.6871,0.7132,0.7189,0.7138,0.7053,0.6911,0.681,0.6717,0.6654,0.6628,0.6492,0.6202,0.6071,0.5773,0.5258,0.4846,0.4457,0.4042,0.3436,0.3102,0.2991,0.2852,0.3105,0.3605,0.3741,0.4021,0.4328,0.4215,0.4295,0.4513,0.4588,0.443,0.4133,0.3565,0.2854,0.2049,0.1311,0.0875,0.0679,0.086,0.1311,0.1948,0.2704,0.3837,0.5124,0.6514,0.7629,0.8656,0.9765,1.0368,1.0594,1.04,0.9793,0.9018,0.8067,0.7567,0.7308,0.7144,0.7349,0.7588,0.7628,0.7584,0.754,0.7625,0.7452,0.7323,0.7323,0.7187,0.7183,0.7461,0.7553,0.7689,0.7906,0.7944,0.7958,0.788,0.7851,0.7743,0.7597,0.7522,0.7552,0.762,0.7624,0.7492,0.7088,0.6887,0.6642,0.6429,0.5266,0.4154,0.0,0.0,0.0,0.0,0.0,0.8967,0.0,0.0,0.0,0.6448,0.5873,0.5335,0.488,0.4605,0.4379,0.4119,0.3977,0.3902,0.3902,0.4714,0.5362,0.5477,0.5991,0.6361,0.6464,0.6368,0.6196,0.5922,0.5761,0.5552,0.5247,0.5153,0.501,0.4755,0.4781,0.4703,0.4522,0.4159,0.3796,0.3458,0.291,0.2635,0.2605,0.2605,0.2912,0.3471,0.3605,0.3799,0.4027,0.3799,0.3854,0.4069,0.4296,0.4206,0.3893,0.3236,0.2522,0.1748,0.1042,0.0707,0.0612,0.0932,0.1685,0.264,0.3559,0.4885,0.6286,0.7165,0.8161,0.9155,1.0099,1.0625,1.085,1.0625,0.9906,0.9047,0.8173,0.7649,0.7382,0.7302,0.7451,0.7489,0.7231,0.7187,0.7143,0.7095,0.7095,0.7139,0.7187,0.7187,0.7303,0.7707,0.7738,0.7815,0.8064,0.8088,0.8038,0.7988,0.7874,0.7841,0.7814,0.7675,0.7572,0.7552,0.7379,0.6856,0.6074,0.5097,0.4783,0.4956,0.3901,0.2814,0.0,0.0,0.0,0.0,0.9569,0.0,0.0,0.0,0.7462,0.6938,0.0,0.5902,0.5256,0.0,0.0,0.4387,0.4106,0.3902,0.3902,0.4109,0.4378,0.469,0.5299,0.5691,0.5647,0.5629,0.5383,0.4823,0.4879,0.4721,0.4282,0.4418,0.4401,0.4196,0.4299,0.4217,0.3907,0.3852,0.3547,0.2989,0.2659,0.2437,0.2268,0.2268,0.2517,0.2991,0.313,0.3299,0.3497,0.3469,0.3449,0.3508,0.3514,0.3558,0.3456,0.2616,0.2018,0.1547,0.101,0.0775,0.0851,0.1291,0.255,0.4076,0.5068,0.6012,0.6976,0.7978,0.897,0.9954,1.0775,1.1149,1.1223,1.085,1.0019,0.9041,0.8038,0.7607,0.7343,0.7146,0.7368,0.757,0.7459,0.7459,0.737,0.7143,0.7095,0.7187,0.7415,0.7459,0.7665,0.8163,0.8196,0.8237,0.8354,0.8333,0.8237,0.8041,0.7975,0.7904,0.7818,0.7675,0.7436,0.7103,0.6673,0.5921,0.4872,0.3894,0.3401,0.3443,0.2236,0.1154,0.0,0.0,0.0,0.0,0.0,0.0,0.9088,0.0,0.833,0.7926,0.0,0.0,0.0,0.0,0.0,0.0,0.4391,0.4102,0.3828,0.38,0.3958,0.4371,0.4971,0.5347,0.5271,0.5021,0.4679,0.422,0.4002,0.3655,0.3198,0.3253,0.3227,0.3057,0.337,0.3552,0.3582,0.3655,0.3549,0.3292,0.3105,0.291,0.2713,0.2713,0.2824,0.3019,0.291,0.291,0.2961,0.2627,0.2488,0.2495,0.2239,0.2491,0.2958,0.2287,0.1715,0.1244,0.091,0.0809,0.0987,0.2043,0.3238,0.446,0.547,0.6475,0.7442,0.8322,0.9311,1.0255,1.1074,1.1335,1.1298,1.0887,1.0019,0.9031,0.8008,0.7622,0.7418,0.7316,0.7563,0.7821,0.7746,0.7588,0.7408,0.7139,0.7095,0.7187,0.7462,0.7581,0.7856,0.8268,0.8426,0.8434,0.8411,0.8382,0.8283,0.8041,0.7988,0.7961,0.7897,0.7659,0.7323,0.6948,0.6216,0.5294,0.4249,0.3262,0.2417,0.1733,0.0921,-0.0047,1.1412,0.0,0.0,0.0,0.0,0.0,0.0,0.0,0.0,0.0,0.8308,0.0,0.0,0.0,0.6021,0.5229,0.0,0.4602,0.4157,0.4012,0.4,0.4101,0.4524,0.4823,0.4877,0.4435,0.4016,0.3653,0.3236,0.2793,0.2326,0.2306,0.2282,0.2186,0.2661,0.3051,0.3292,0.3493,0.358,0.3547,0.3438,0.3274,0.3049,0.2965,0.288,0.2796,0.2521,0.2352,0.2237,0.179,0.163,0.1603,0.1233,0.1534,0.2154,0.1817,0.1446,0.1144,0.0943,0.0987,0.1354,0.2611,0.3672,0.4696,0.5783,0.6788,0.7787,0.8737,0.9685,1.0556,1.1298,1.1446,1.126,1.0775,0.9868,0.8884,0.7936,0.7529,0.7387,0.7312,0.7628,0.7866,0.7819,0.7672,0.7492,0.7139,0.7095,0.7231,0.7547,0.7733,0.8018,0.8458,0.8642,0.8705,0.8616,0.8531,0.8382,0.8038,0.7988,0.7988,0.7988,0.7641,0.7211,0.6706,0.5854,0.4787,0.3522,0.2614,0.1581,0.0376,-0.0094,-0.0907,1.1311,1.0916,1.0544,1.0341,1.0049,0.9803,0.0,0.0,0.9574,0.0,0.0,0.0,0.0,0.0,0.0,0.0,0.0,0.0,0.0,0.4941,0.4554,0.3721,0.3746,0.3965,0.4288,0.3835,0.3363,0.2956,0.2679,0.2328,0.1837,0.1817,0.1851,0.1905,0.2426,0.2796,0.3023,0.3411,0.3527,0.3413,0.3413,0.3221,0.2888,0.2635,0.2352,0.2015,0.1738,0.1459,0.115,0.1122,0.1079,0.1019,0.0803,0.0768,0.0874,0.1076,0.121,0.1277,0.1143,0.1498,0.2156,0.2881,0.3836,0.4932,0.6212,0.7134,0.8089,0.9463,1.0331,1.0925,1.1521,1.1558,1.1186,1.0406,0.9458,0.8513,0.7672,0.7305,0.7115,0.7121,0.7361,0.7608,0.7522,0.7724,0.772,0.7183,0.7095,0.7275,0.7808,0.7904,0.821,0.9013,0.9104,0.9104,0.9053,0.8878,0.8577,0.8038,0.7988,0.7988,0.7988,0.7739,0.7162,0.6233,0.5514,0.4282,0.2539,0.1803,0.0803,-0.0392,-0.0735,-0.1421,1.0888,1.063,1.0448,1.0322,1.0205,1.0127,1.0127,1.0,0.9832,0.0,0.0,0.0,0.0,0.0,0.0,0.0,0.0,0.0,0.0,0.519,0.5039,0.4883,0.4473,0.418,0.4162,0.3598,0.3068,0.2672,0.235,0.1994,0.1569,0.1614,0.1691,0.1761,0.2372,0.2794,0.2997,0.3299,0.3441,0.3385,0.3272,0.3105,0.2882,0.2633,0.2268,0.1846,0.1429,0.1094,0.0814,0.0589,0.0496,0.0463,0.0309,0.032,0.0472,0.064,0.0741,0.081,0.1065,0.1682,0.2506,0.324,0.4144,0.5121,0.6251,0.7249,0.8199,0.9226,1.0132,1.0887,1.1223,1.1149,1.0812,0.9992,0.9122,0.8284,0.7484,0.7195,0.7082,0.7121,0.7365,0.7569,0.7522,0.7595,0.7499,0.7143,0.7095,0.7231,0.7591,0.7771,0.7967,0.8402,0.8616,0.8697,0.8522,0.8379,0.8187,0.7988,0.7988,0.7942,0.7743,0.7294,0.6566,0.5482,0.4508,0.3363,0.2029,0.1291,0.0581,-0.0147,-0.0597,-0.15,1.0572,1.0467,1.038,1.0322,1.0303,1.0303,1.0303,1.0147,0.998,0.9773,0.9326,0.0,0.0,0.0,0.0,0.0,0.0,0.0,0.0,0.5972,0.5943,0.5841,0.4968,0.4275,0.4061,0.345,0.2898,0.245,0.2192,0.1882,0.1569,0.1658,0.1805,0.1901,0.2397,0.2743,0.2922,0.3082,0.3135,0.3079,0.2882,0.2713,0.2571,0.224,0.1849,0.1456,0.0981,0.0645,0.0421,0.0227,0.0118,0.0124,0.0031,0.0065,0.0202,0.0371,0.0577,0.0825,0.1246,0.1988,0.2841,0.3587,0.4404,0.5315,0.6363,0.7322,0.8161,0.9069,0.9868,1.0519,1.0625,1.0513,1.0137,0.9268,0.8551,0.7868,0.7142,0.6968,0.6949,0.6967,0.72,0.7418,0.7353,0.737,0.7279,0.7139,0.7095,0.7187,0.7462,0.7637,0.7809,0.8053,0.8296,0.8372,0.8201,0.8055,0.7988,0.7988,0.7892,0.7743,0.7494,0.6845,0.5988,0.4848,0.377,0.2679,0.1542,0.0927,0.0345,-0.0149,-0.0502,-0.1262]},{"header":{"parameterUnit":"m.s-1","parameterCategory":1,"la1":30.6,"la2":29.2853,"lo1":-89.7004,"lo2":-87.6739,"dy":0.0162,"dx":0.0183,"nx":112,"ny":82,"refTime":"2023-09-25T00:00:00:Z","depth":0,"parameterNumber":3,"parameterNumberName":"V-component_of_WINDS"},"data":[0.0,0.0,0.0,0.0,0.0,0.0,0.0,0.0,0.0,0.0,0.0,0.0,0.0,0.0,0.0,0.0,0.0,0.0,0.0,0.0,0.0,0.0,0.0,0.0,0.0,0.0,0.0,0.0,0.0,0.0,0.0,0.0,0.0,0.0,0.0,0.0,0.0,0.0,0.0,0.0,0.0,0.0,0.0,0.0,0.0,0.0,0.0,0.0,0.0,0.0,0.0,0.0,0.0,0.0,0.0,0.0,0.0,0.0,0.0,0.0,0.0,0.0,0.0,0.0,0.0,0.0,0.0,0.0,0.0,0.0,0.0,0.0,0.0,0.0,0.0,0.0,0.0,0.0,0.0,0.0,0.0,0.0,0.0,0.0,0.0,0.0,0.0,0.0,0.0,0.0,0.493,0.5194,0.6495,0.7492,0.7936,0.8174,0.8231,0.8051,0.0,0.0,0.0,0.0,0.0,0.0,0.0,0.0,0.0,0.0,0.0,0.0,0.0,0.0,0.0,0.0,0.0,0.0,0.0,0.0,0.0,0.0,0.0,0.0,0.0,0.0,0.0,0.0,0.0,0.0,0.0,0.0,0.0,0.0,0.0,0.0,0.0,0.0,0.0,0.0,0.0,0.0,0.0,0.0,0.0,0.0,0.0,0.0,0.0,0.0,0.0,0.0,0.0,0.0,0.0,0.0,0.0,0.0,0.0,0.0,0.0,0.0,0.0,0.0,0.0,0.0,0.0,0.0,0.0,0.0,0.0,0.0,0.0,0.0,0.0,0.0,0.0,0.0,0.0,0.0,0.0,0.0,0.0,0.0,0.0,0.0,0.0,0.0,0.0,0.0,0.0,0.0,0.0,0.0,0.0,0.0,0.0,0.0,0.0,0.0,0.0,0.0,0.0,0.0,0.4879,0.5682,0.65,0.7347,0.8233,0.8311,0.8285,0.8262,0.0,0.0,0.0,0.0,0.0,0.0,0.0,0.0,0.0,0.0,0.0,0.0,0.0,0.0,0.0,0.0,0.0,0.0,0.0,0.0,0.0,0.0,0.0,0.0,0.0,0.0,0.0,0.0,0.0,0.0,0.0,0.0,0.0,0.0,0.0,0.0,0.0,0.0,0.0,0.0,0.0,0.0,0.0,0.0,0.0,0.0,0.0,0.0,0.0,0.0,0.0,0.0,0.0,0.0,0.0,0.0,0.0,0.0,0.0,0.0,0.0,0.0,0.0,0.0,0.0,0.0,0.0,0.0,0.0,0.0,0.0,0.0,0.0,0.0,0.0,0.0,0.0,0.0,0.0,0.0,0.0,0.0,0.0,0.0,0.0,0.0,0.0,0.0,0.0,0.0,0.0,0.0,0.0,0.0,0.0,0.0,0.0,0.0,0.0,0.0,0.0,0.0,0.0,0.5002,0.5002,0.5712,0.6524,0.7254,0.7855,0.796,0.7965,0.7926,0.755,0.0,0.0,0.0,0.0,0.0,0.0,0.0,0.0,0.0,0.0,0.0,0.0,0.0,0.0,0.0,0.0,0.0,0.0,0.0,0.0,0.0,0.0,0.0,0.0,0.0,0.0,0.0,0.0,0.0,0.0,0.0,0.0,0.0,0.0,0.0,0.0,0.0,0.0,0.0,0.0,0.0,0.0,0.0,0.0,0.0,0.0,0.0,0.0,0.0,0.0,0.0,0.0,0.0,0.0,0.0,0.0,0.0,0.0,0.0,0.0,0.0,0.0,0.0,0.0,0.0,0.0,0.0,0.0,0.0,0.0,0.0,0.0,0.0,0.0,0.0,0.0,0.0,0.0,0.0,0.0,0.0,0.0,0.0,0.0,0.0,0.0,0.0,0.0,0.0,0.0,0.0,0.0,0.0,0.0,0.0,0.0,0.0,0.0,0.0,0.0,0.0,0.0,0.483,0.5139,0.5605,0.6437,0.7107,0.7474,0.759,0.7642,0.7607,0.7442,0.0,0.0,0.0,0.0,0.0,0.0,0.0,0.0,0.0,0.0,0.0,0.0,0.0,0.0,0.0,0.0,0.0,0.0,0.0,0.0,0.0,0.0,0.0,0.0,0.0,0.0,0.0,0.0,0.0,0.0,0.0,0.0,0.0,0.0,0.0,0.0,0.0,0.0,0.0,0.0,0.0,0.0,0.0,0.0,0.0,0.0,0.0,0.0,0.0,0.0,0.0,0.0,0.0,0.0,0.0,0.0,0.0,0.0,0.0,0.0,0.0,0.0,0.0,0.0,0.0,0.0,0.0,0.0,0.0,0.0,0.0,0.0,0.0,0.0,0.0,0.0,0.0,0.0,0.0,0.0,0.0,0.0,0.0,0.0,0.0,0.0,0.0,0.0,0.0,0.0,0.0,0.0,0.0,0.0,0.0,0.0,0.0,0.0,0.0,0.0,0.0,0.0,0.4819,0.5271,0.5477,0.6122,0.6791,0.7431,0.7523,0.7532,0.7585,0.77,0.0,0.0,0.0,0.0,0.0,0.0,0.0,0.0,0.0,0.0,0.0,0.0,0.0,0.0,0.0,0.0,0.0,0.0,0.0,0.0,0.0,0.0,0.0,0.0,0.0,0.0,0.0,0.0,0.0,0.0,0.0,0.0,0.0,0.0,0.0,0.0,0.0,0.0,0.0,0.0,0.0,0.0,0.0,0.0,0.0,0.0,0.0,0.0,0.0,0.0,0.0,0.0,0.0,0.0,0.0,0.0,0.0,0.0,0.0,0.0,0.0,0.0,0.0,0.0,0.0,0.0,0.0,0.0,0.0,0.0,0.0,0.0,0.0,0.0,0.0,0.0,0.0,0.0,0.0,0.0,0.0,0.0,0.0,0.0,0.0,0.0,0.0,0.0,0.0,0.0,0.0,0.0,0.0,0.0,0.0,0.0,0.0,0.0,0.0,0.0,0.0,0.0,0.4888,0.5173,0.5571,0.6067,0.658,0.7079,0.7279,0.7409,0.753,0.0,0.0,0.0,0.0,0.0,0.0,0.0,0.0,0.0,0.0,0.0,0.0,0.0,0.0,0.0,0.0,0.0,0.0,0.0,0.0,0.0,0.0,0.0,0.0,0.0,0.0,0.0,0.0,0.0,0.0,0.0,0.0,0.0,0.0,0.0,0.0,0.0,0.0,0.0,0.0,0.0,0.0,0.0,0.0,0.0,0.0,0.0,0.0,0.0,0.0,0.0,0.0,0.0,0.0,0.0,0.0,0.0,0.0,0.0,0.0,0.0,0.0,0.0,0.0,0.0,0.0,0.0,0.0,0.0,0.0,0.0,0.0,0.0,0.0,0.0,0.0,0.0,0.0,0.0,0.0,0.0,0.0,0.0,0.0,0.0,0.0,0.0,0.0,0.0,0.0,0.0,0.0,0.0,0.0,0.0,0.0,0.0,0.0,0.0,0.0,0.0,0.0,0.5072,0.5074,0.5264,0.5749,0.6141,0.652,0.6925,0.7115,0.736,0.7724,0.0,0.0,0.0,0.0,0.0,0.0,0.0,0.0,0.0,0.0,0.0,0.0,0.0,0.0,0.0,0.0,0.0,0.0,0.0,0.0,0.0,0.0,0.0,0.0,0.0,0.0,0.0,0.0,0.0,0.0,0.0,0.0,0.0,0.0,0.0,0.0,0.0,0.0,0.0,0.0,0.0,0.0,0.0,0.0,0.0,0.0,0.0,0.0,0.0,0.0,0.0,0.0,0.0,0.0,0.0,0.0,0.0,0.0,0.0,0.0,0.0,0.0,0.0,0.0,0.0,0.0,0.0,0.0,0.0,0.0,0.0,0.0,0.0,0.0,0.0,0.0,0.0,0.0,0.0,0.0,0.0,0.0,0.0,0.0,0.0,0.0,0.0,0.0,0.0,0.0,0.0,0.0,0.0,0.0,0.0,0.0,0.0,0.0,0.0,0.0,0.0,0.0,0.5236,0.539,0.5639,0.5973,0.6299,0.6669,0.707,0.7043,0.7383,0.0,0.0,0.0,0.0,0.0,0.0,0.0,0.0,0.0,0.0,0.0,0.0,0.0,0.0,0.0,0.0,0.0,0.0,0.0,0.0,0.0,0.0,0.0,0.0,0.0,0.0,0.0,0.0,0.0,0.0,0.0,0.0,0.0,0.0,0.0,0.0,0.0,0.0,0.0,0.0,0.0,0.0,0.0,0.0,0.0,0.0,0.0,0.0,0.0,0.0,0.0,0.0,0.0,0.0,0.0,0.0,0.0,0.0,0.0,0.0,0.0,0.0,0.0,0.0,0.0,0.0,0.0,0.0,0.0,0.0,0.0,0.0,0.0,0.0,0.0,0.0,0.0,0.0,0.0,0.0,0.0,0.0,0.0,0.0,0.0,0.0,0.0,0.0,0.0,0.0,0.0,0.0,0.0,0.0,0.0,0.0,0.0,0.0,0.0,0.0,0.0,0.0,0.0,0.5576,0.5608,0.5782,0.61,0.6308,0.6474,0.6591,0.703,0.7398,0.7645,0.0,0.0,0.0,0.0,0.0,0.0,0.0,0.0,0.0,0.0,0.0,0.0,0.0,0.0,0.0,0.0,0.0,0.0,0.0,0.0,0.0,0.0,0.0,0.0,0.0,0.0,0.0,0.0,0.0,0.0,0.0,0.0,0.0,0.0,0.0,0.0,0.0,0.0,0.0,0.0,0.0,0.0,0.0,0.0,0.0,0.0,0.0,0.0,0.0,0.0,0.0,0.0,0.0,0.0,0.0,0.0,0.0,0.0,0.0,0.0,0.0,0.0,0.0,0.0,0.0,0.0,0.0,0.0,0.0,0.0,0.0,0.0,0.0,0.0,0.0,0.0,0.0,0.0,0.0,0.0,0.0,0.0,0.0,0.0,0.0,0.0,0.0,0.0,0.0,0.0,0.0,0.0,0.0,0.0,0.0,0.0,0.0,0.0,0.0,0.0,0.0,0.0,0.608,0.5973,0.6034,0.6371,0.6511,0.6573,0.6527,0.6962,0.74,0.7783,0.0,0.0,0.0,0.0,0.0,0.0,0.0,0.0,0.0,0.0,0.0,0.0,0.0,0.0,0.0,0.0,0.0,0.0,0.0,0.0,0.0,0.0,0.0,0.0,0.0,0.0,0.0,0.0,0.0,0.0,0.0,0.0,0.0,0.0,0.0,0.0,0.0,0.0,0.0,0.0,0.0,0.0,0.0,0.0,0.0,0.0,0.0,0.0,0.0,0.0,0.0,0.0,0.0,0.0,0.0,0.0,0.0,0.0,0.0,0.0,0.0,0.0,0.0,0.0,0.0,0.0,0.0,0.0,0.0,0.0,0.0,0.0,0.0,0.0,0.0,0.0,0.0,0.0,0.0,0.0,0.0,0.0,0.0,0.0,0.0,0.0,0.0,0.0,0.0,0.0,0.0,0.0,0.0,0.0,0.0,0.0,0.0,0.0,0.0,0.0,0.0,0.0,0.6595,0.6389,0.6364,0.6668,0.6823,0.6831,0.6665,0.6882,0.7384,0.8258,0.0,0.0,0.0,0.0,0.0,0.0,0.0,0.0,0.0,0.0,0.0,0.0,0.0,0.0,0.0,0.0,0.0,0.0,0.0,0.0,0.0,0.0,0.0,0.0,0.0,0.0,0.0,0.0,0.0,0.0,0.0,0.0,0.0,0.0,0.0,0.0,0.0,0.0,0.0,0.0,0.0,0.0,0.0,0.0,0.0,0.0,0.0,0.0,0.0,0.0,0.0,0.0,0.0,0.0,0.0,0.0,0.0,0.0,0.0,0.0,0.9972,0.9795,0.0,0.0,0.0,0.0,0.0,0.0,0.0,0.0,0.0,0.0,0.0,0.0,0.0,0.0,0.0,0.0,0.0,0.0,0.0,0.0,0.0,0.0,0.0,0.0,0.0,0.0,0.0,0.0,0.0,0.0,0.0,0.0,0.0,0.0,0.0,0.0,0.0,0.0,0.0,0.0,0.6585,0.6555,0.6612,0.6691,0.6808,0.6766,0.6419,0.6912,0.7353,0.7594,0.9073,0.0,0.0,0.0,0.0,0.0,0.0,0.0,0.0,0.0,0.0,0.0,0.0,0.0,0.0,0.0,0.0,0.0,0.0,0.0,0.0,0.0,0.0,0.0,0.0,0.0,0.0,0.0,0.0,0.0,0.0,0.0,0.0,0.0,0.0,0.0,0.0,0.0,0.0,0.0,0.0,0.0,0.0,0.0,0.0,0.0,0.0,0.0,0.0,0.0,0.0,0.0,0.0,0.0,0.0,0.0,0.0,0.0,0.0,0.0,0.9768,0.9733,0.0,0.0,0.0,0.0,0.0,0.0,0.0,0.0,0.0,0.0,0.0,0.0,0.0,0.0,0.0,0.0,0.0,0.0,0.0,0.0,0.0,0.0,0.0,0.0,0.0,0.0,0.0,0.0,0.0,0.0,0.0,0.0,0.0,0.0,0.0,0.0,0.0,0.0,0.0,0.0,0.7019,0.699,0.7008,0.7032,0.7162,0.7045,0.6576,0.7123,0.7565,0.7735,0.9121,0.0,0.0,0.0,0.0,0.0,0.0,0.0,0.0,0.0,0.0,0.0,0.0,0.0,0.0,0.0,0.0,0.0,0.0,0.0,0.0,0.0,0.0,0.0,0.0,0.0,0.0,0.0,0.0,0.0,0.0,0.0,0.0,0.0,0.0,0.0,0.0,0.0,0.0,0.0,0.0,0.0,0.0,0.0,0.0,0.0,0.0,0.0,0.0,0.0,0.0,0.0,0.0,0.0,0.9869,0.9819,0.9798,1.008,1.0224,1.0243,0.9955,0.9915,1.0043,1.0334,0.0,0.0,0.0,0.0,0.0,0.0,0.0,0.0,0.0,0.0,0.0,0.0,0.0,0.0,0.0,0.0,0.0,0.0,0.0,0.0,0.0,0.0,1.0903,1.018,0.9828,0.9636,0.9578,0.0,0.0,0.0,0.0,0.0,0.0,0.0,0.0,0.0,0.0,0.0,0.7443,0.7407,0.7372,0.7402,0.7571,0.7504,0.6992,0.7462,0.7901,0.8202,0.9273,1.0012,0.0,0.0,0.0,0.0,0.0,0.0,0.0,0.0,0.0,0.0,0.0,0.0,0.0,0.0,0.0,0.0,0.0,0.0,0.0,0.0,0.0,0.0,0.0,0.0,0.0,0.0,0.0,0.0,0.0,0.0,0.0,0.0,0.7832,0.7983,0.0,0.0,0.0,0.0,0.0,0.0,0.0,0.0,0.0,0.0,0.0,0.0,0.0,0.8989,0.891,0.891,0.9436,1.0472,1.0472,1.0215,0.9692,0.9241,0.958,1.0611,1.1506,0.0,0.9368,0.9991,0.0,0.0,0.0,0.0,0.0,0.0,0.0,0.0,0.0,0.0,0.0,0.0,0.0,0.0,0.0,0.0,0.0,0.0,0.0,0.0,0.0,0.0,1.05,1.0165,0.9981,0.9769,0.9501,0.9626,0.9925,1.0411,1.0624,1.0726,0.0,0.0,0.0,0.0,0.0,0.0,0.7172,0.7444,0.7572,0.7425,0.7826,0.7986,0.7602,0.7877,0.823,0.8673,0.9189,0.9733,1.0293,1.0596,0.0,0.0,0.0,0.0,0.0,0.0,0.0,0.0,0.0,0.0,0.0,0.0,0.0,0.0,0.0,0.0,0.0,0.0,0.0,0.0,0.0,0.0,0.0,0.0,0.0,0.0,0.0,0.0,0.0,0.8591,0.7781,0.7832,0.8293,0.8816,0.0,0.0,0.0,0.0,0.0,0.0,0.0,0.0,0.0,0.9869,0.9492,0.9459,0.9816,0.9822,1.0412,1.1578,1.1578,1.1229,1.0641,1.006,1.0104,1.066,1.1797,1.1787,1.0939,1.0982,1.0895,1.0761,0.0,0.0,0.0,0.0,1.141,1.0819,1.1741,1.2459,1.3039,1.3329,0.0,0.0,0.0,0.0,0.0,0.0,0.0,1.1626,1.0946,1.0507,1.0222,1.0043,0.9882,0.9762,0.9712,0.9764,0.9897,0.9982,1.0113,1.019,1.019,0.9699,0.0,0.0,0.0,0.7641,0.7471,0.7667,0.7814,0.7842,0.8155,0.8307,0.8109,0.8523,0.8877,0.9115,0.9554,0.9945,1.0293,1.0607,1.0745,0.0,0.0,0.0,0.0,0.0,0.0,0.0,0.0,0.0,0.0,0.0,0.0,0.0,0.0,0.0,0.0,0.0,0.0,0.0,0.0,0.0,0.0,0.0,0.0,0.0,0.0,0.0,0.0,0.8492,0.7937,0.7919,0.8377,0.8863,0.0,0.0,0.0,0.0,0.0,0.0,1.012,1.0157,1.0224,1.0341,1.009,1.0218,1.0807,1.0961,1.1631,1.2759,1.2759,1.2532,1.2091,1.1698,1.1497,1.1544,1.2378,1.2585,1.2248,1.1793,1.1293,1.0825,1.1191,1.1821,1.2431,1.2051,1.1034,1.0001,1.1011,1.1778,1.2435,1.2898,1.3617,1.436,1.472,0.0,0.0,0.0,0.0,1.1241,1.0617,1.0298,1.0151,1.0087,0.9996,0.9946,0.9953,0.9962,0.99,0.9703,0.9738,0.9761,0.9706,0.9361,0.0,0.8606,0.8189,0.7869,0.7756,0.7894,0.8088,0.8315,0.8543,0.8704,0.8688,0.9131,0.947,0.9572,0.9906,1.0157,1.0303,1.0586,1.0752,1.0752,0.0,0.0,0.0,0.0,0.0,0.0,0.0,0.0,0.0,0.0,0.0,0.0,0.0,0.0,0.0,0.0,0.0,0.0,0.0,0.0,0.0,0.0,0.0,0.0,0.0,0.0,0.0,0.0,0.0,0.8545,0.8586,0.0,0.0,0.0,0.0,0.885,0.9896,1.0787,1.1275,1.0828,1.0814,1.1302,1.0841,1.0795,1.1342,1.1937,1.2819,1.3995,1.3995,1.3981,1.3955,1.3921,1.3908,1.3915,1.3968,1.3353,1.2248,1.1793,1.1586,1.153,1.1501,1.1438,1.1377,1.1343,1.1011,1.0575,1.0636,1.109,1.1802,1.2634,1.3425,1.4005,1.3888,1.343,0.0,0.0,1.1246,1.0768,1.0403,1.0298,1.0343,1.051,1.0546,1.0472,1.0154,1.0094,1.0039,0.991,0.9782,0.9636,0.9463,0.0,0.8725,0.8448,0.8109,0.7901,0.7901,0.8107,0.8391,0.8638,0.9028,0.9308,0.9439,0.9646,0.9863,1.005,1.0089,1.0157,1.0303,1.0322,1.0332,1.0332,1.0352,0.0,0.0,0.0,0.0,0.0,0.0,0.0,0.0,0.0,0.0,0.0,0.0,0.0,0.0,0.0,0.0,0.0,0.0,0.0,0.0,0.0,0.0,0.0,0.0,0.0,0.0,0.0,0.0,0.9631,0.9514,0.0,1.0142,0.9311,0.8996,0.9584,1.0228,1.1182,1.2498,1.2197,1.2002,1.1984,1.179,1.1777,1.1991,1.2959,1.3667,1.4088,1.4088,1.4088,1.413,1.4678,1.4929,1.4929,1.4929,1.4379,1.346,1.3272,1.2742,1.204,1.2017,1.1992,1.1931,1.1931,1.185,1.1683,1.1683,1.1858,1.2282,1.3613,1.4394,1.4876,1.4974,1.4534,1.3819,1.2947,1.2332,1.1828,1.1321,1.1192,1.1138,1.092,1.0868,1.0787,1.0468,1.0432,1.0342,1.008,0.9663,0.937,0.9289,0.9012,0.8778,0.8672,0.8566,0.8513,0.8586,0.8552,0.8659,0.9051,0.9172,0.9357,0.9664,0.9873,1.0069,1.0225,1.0225,1.0264,1.0303,1.0303,1.043,1.0684,1.044,1.0224,0.0,0.0,0.0,0.0,0.0,0.0,0.0,0.0,0.0,0.0,0.0,0.0,0.0,0.0,0.0,0.0,0.0,0.0,0.0,0.0,0.0,0.0,0.0,0.0,0.0,0.9865,0.9776,1.0333,1.0296,1.0462,1.1086,1.0112,0.9666,1.0223,1.1026,1.2058,1.3434,1.314,1.2921,1.2832,1.2479,1.2498,1.2899,1.3974,1.4552,1.4552,1.4552,1.4671,1.4999,1.559,1.5839,1.5839,1.5839,1.534,1.4552,1.4552,1.4069,1.333,1.3022,1.2906,1.2945,1.3253,1.3068,1.2746,1.3003,1.3251,1.3691,1.5008,1.5696,1.6002,1.6079,1.5596,1.4878,1.4054,1.3344,1.2729,1.2139,1.1908,1.1723,1.1323,1.1128,1.0942,1.078,1.066,1.0533,1.0362,0.9845,0.9408,0.928,0.9126,0.8982,0.8936,0.9008,0.9113,0.9185,0.9061,0.914,0.9588,0.9528,0.9582,0.9897,1.0047,1.0137,1.0225,1.0283,1.0303,1.0303,1.044,1.0625,1.0878,1.0595,1.0486,1.0601,0.0,0.0,0.0,0.0,0.0,0.0,0.0,0.0,0.0,0.0,0.0,0.0,0.0,0.0,0.0,0.0,0.0,0.0,0.0,0.0,0.0,0.0,0.0,1.0221,1.024,1.0421,1.0638,1.0914,1.1176,1.147,1.167,1.1504,1.0734,1.2258,1.3487,1.4097,1.3588,1.3471,1.3898,1.2924,1.2951,1.4159,1.5006,1.5431,1.5431,1.5472,1.5922,1.673,1.6779,1.6771,1.6771,1.673,1.6245,1.5431,1.5431,1.5431,1.534,1.4461,1.413,1.4257,1.5138,1.4651,1.3674,1.4389,1.515,1.5938,1.6665,1.7178,1.7458,1.7093,1.6533,1.5835,1.5078,1.4208,1.3364,1.2803,1.2337,1.2004,1.1758,1.1357,1.1015,1.0995,1.0807,1.0663,1.0776,1.0328,0.9822,0.9493,0.9428,0.9401,0.9263,0.9465,0.0,0.964,0.9688,0.9881,1.0253,1.0079,1.0004,1.0206,1.0155,1.0137,1.0137,1.0264,1.0342,1.0342,1.0713,1.0907,1.0907,1.0793,1.0877,1.1173,0.0,0.0,0.0,0.0,0.0,0.0,0.0,0.0,0.0,0.0,0.0,0.0,0.0,0.0,0.0,0.0,0.0,0.0,0.0,0.0,0.0,1.1301,1.1339,1.0838,1.104,1.1384,1.1799,1.2462,1.3003,1.3265,1.3822,1.3717,1.2569,1.3327,1.4206,1.4999,1.4891,1.4544,1.4048,1.4375,1.5017,1.5989,1.6196,1.6327,1.6368,1.6976,1.7424,1.7668,1.8304,1.8585,1.8545,1.791,1.7139,1.6327,1.6327,1.6327,1.6245,1.5382,1.5055,1.5131,1.6038,1.5848,1.5185,1.5407,1.5964,1.663,1.6839,1.8158,1.9635,1.9081,1.8541,1.7825,1.6544,1.5772,1.5095,1.3978,1.3392,1.292,1.2227,1.1865,1.1544,1.1082,1.0929,1.0873,1.0817,1.0768,1.066,1.0244,1.0157,1.0105,1.0081,1.0138,1.0267,1.0506,1.0285,1.0213,1.0423,1.0297,1.0281,1.0458,1.073,1.0932,1.1039,1.1178,1.1232,1.1232,1.134,1.1365,1.1255,1.1411,1.1266,0.0,0.0,0.0,0.0,0.0,0.0,0.0,0.0,0.0,0.0,0.0,0.0,0.0,0.0,0.0,0.0,0.0,0.0,0.0,0.0,0.0,0.0,1.241,1.2718,1.2165,1.2308,1.2597,1.2952,1.386,1.4599,1.4951,1.5205,1.5155,1.4629,1.4287,1.4893,1.6722,1.684,1.6788,1.6686,1.7553,1.8283,1.8803,1.8134,1.7781,1.7821,1.8304,1.8745,1.9103,1.9618,1.9854,1.9814,1.8904,1.8264,1.7781,1.7781,1.7781,1.77,0.0,0.0,0.0,0.0,1.7817,1.7706,1.6961,1.7012,1.747,1.8194,1.9409,2.0546,2.0176,1.985,1.9336,1.8081,1.7208,1.6436,1.5227,1.4381,1.3645,1.2812,1.225,1.1812,1.1436,1.1229,1.1099,1.1155,1.1401,0.0,1.1447,1.1122,1.0918,1.1014,1.0979,1.0989,1.1124,1.0856,1.0623,1.059,1.0418,1.0354,1.047,1.0822,0.0,0.0,0.0,1.1685,1.1836,1.1836,0.0,0.0,0.0,1.1599,1.0977,1.0677,0.0,0.0,0.998,0.9786,0.0,0.0,0.0,0.0,0.0,0.0,0.0,0.0,0.0,0.0,0.0,0.0,0.0,0.0,0.0,0.0,1.3959,1.4448,1.3928,1.3994,1.4119,1.4233,1.5219,1.6053,1.6463,1.6235,1.6235,1.6566,1.5359,1.5915,1.8802,1.9058,0.0,0.0,0.0,2.1696,2.1696,2.0384,1.9645,1.946,1.9645,2.0137,2.0889,2.0693,2.0605,2.0566,1.9775,1.946,1.946,1.946,1.946,1.9341,1.8474,1.8193,1.8393,1.9143,1.9932,2.039,1.8828,0.0,0.0,2.0106,2.0605,2.0605,2.0605,2.0605,2.0401,1.9449,1.844,1.745,1.6439,1.5298,1.4246,1.3492,1.269,1.2053,1.2019,1.1696,1.1492,1.175,1.2119,1.2496,1.2768,1.2256,1.1856,1.1991,1.1901,1.1747,1.1578,1.1301,1.1023,1.0718,1.0491,0.0,1.0392,1.0725,1.0998,1.1155,1.1522,1.1907,1.2262,1.2281,1.2386,1.2676,1.2274,1.1877,1.1444,1.071,1.0138,0.9762,0.9736,0.9588,0.0,0.0,0.0,0.0,0.0,0.0,0.0,0.0,0.0,0.0,0.0,0.0,0.0,0.0,0.0,1.4815,1.4947,1.5078,1.5471,1.6485,1.6781,1.5717,1.6746,1.7406,1.7078,1.7983,1.8193,1.7235,1.7629,1.8488,1.9911,2.0744,2.1239,2.1419,2.1607,2.1696,2.1696,2.2153,2.1684,2.0342,2.1723,0.0,2.2555,2.1201,2.0605,2.0605,2.0411,2.0372,2.0372,2.0372,2.0372,2.0245,1.9381,1.9499,2.0128,2.0294,2.045,2.0556,2.0224,2.0106,2.0165,2.0498,2.0605,2.0605,2.0605,2.0605,0.0,1.9764,1.9193,1.8459,1.6986,1.5933,1.5033,1.4141,1.3542,1.3114,1.2855,1.2732,1.2596,1.2473,1.2789,1.3222,1.3537,1.3293,1.2964,1.2738,1.2599,1.2331,1.1888,1.1494,1.1124,1.0744,1.0661,1.0721,1.0939,1.1393,1.1838,1.2186,1.2484,1.269,1.2754,1.2754,1.2696,1.2529,1.215,1.1703,1.1175,1.0437,0.9862,0.9484,0.9361,0.9237,0.0,0.0,0.0,0.0,0.0,0.0,0.0,0.0,0.0,0.0,0.0,1.5111,0.0,0.0,1.6154,1.6734,1.6765,1.6803,1.7149,1.8305,1.8673,1.7345,1.8366,1.8978,1.856,1.9315,1.9546,1.8858,1.9683,2.0464,2.097,2.1463,2.1909,2.2397,2.2397,2.2397,2.2397,2.2872,2.2662,2.1865,2.2682,2.3091,2.3062,2.2246,2.1387,2.0605,2.0605,2.0605,2.0605,2.0605,2.0605,2.0566,2.0128,2.0216,2.0605,2.0605,2.0605,2.0605,2.0605,2.0605,2.0605,2.0605,2.0605,2.0605,2.0605,2.0605,2.0527,2.0245,1.9754,1.9065,1.7787,1.6684,1.5703,1.4716,1.4129,1.3766,1.3602,1.3535,1.3531,1.3504,1.3729,1.4047,1.439,1.4362,1.41,1.3486,1.3157,1.2782,1.2181,1.1694,1.1251,1.0845,1.0744,1.0769,1.0972,1.1678,1.2274,1.2676,1.2832,1.2905,1.2905,1.2905,1.2774,1.2505,1.2101,1.1653,1.1099,1.0429,0.9921,0.9603,0.9465,0.9211,0.0,0.0,0.0,0.0,0.0,0.0,0.0,0.0,1.7233,1.6689,1.6596,1.6736,1.7122,1.7743,1.8225,1.8402,1.8572,1.8661,1.8689,1.9726,2.0118,1.9178,1.9915,2.0374,2.0184,2.0419,2.0654,2.0826,2.1544,2.1954,2.1954,2.1954,2.2309,2.3091,2.3091,2.3091,2.3091,2.3091,2.3091,2.3091,2.3091,2.3091,2.3091,2.3091,2.2373,2.1085,2.0752,2.0605,2.0605,2.0605,2.0605,2.0605,2.0605,2.0605,2.0605,2.0605,2.0605,2.0605,2.076,2.0838,2.0876,2.1021,2.0944,2.0838,2.0838,2.0722,2.0586,2.0478,2.0042,1.9367,1.8425,1.7388,1.6395,1.5452,1.4867,1.4517,1.4517,1.4544,1.4569,1.4684,1.4841,1.4984,1.5151,1.5251,1.5042,1.4194,1.3712,1.3195,1.2541,1.1947,1.1418,1.1074,1.0896,1.0896,1.1124,1.1902,1.2529,1.2881,1.2905,1.2905,1.2905,1.2905,1.2783,1.2529,1.215,1.1703,1.1226,1.0608,1.018,0.9921,0.9751,0.9413,1.4059,1.3833,1.4139,1.5204,1.5885,1.6387,0.0,0.0,1.8412,1.8334,1.8841,1.9202,1.9022,1.9071,1.9164,1.9274,1.9489,1.966,1.962,2.0466,2.1168,2.1311,2.1204,2.1186,2.1463,2.1508,2.1909,2.274,2.2872,2.2916,2.2916,2.2916,2.3003,2.3091,2.3091,2.3091,2.3091,2.3091,2.3091,2.3091,2.3091,2.3091,2.3091,2.3091,2.2994,2.2721,2.123,2.0605,2.0605,2.0605,2.0605,2.0605,2.0605,2.0605,2.0605,2.0605,2.0605,2.0683,2.1415,2.1655,2.1759,2.2505,2.2252,2.1655,2.1655,2.1185,2.0507,1.9961,1.9686,1.9392,1.836,1.7748,1.7189,1.6571,1.6245,1.6053,1.6053,1.6062,1.6008,1.5853,1.5978,1.5983,1.5616,1.564,1.5505,1.4816,1.4274,1.3715,1.3093,1.2321,1.1753,1.1452,1.1318,1.1418,1.1927,1.2382,1.2735,1.2881,1.2905,1.2905,1.2905,1.2905,1.2832,1.2676,1.2274,1.1927,1.1619,1.0972,1.0539,1.0326,1.0072,0.9788,1.6027,1.6339,1.6829,0.0,1.8176,1.8792,1.8904,1.9541,2.0108,2.0108,2.043,2.073,2.0748,2.0661,2.0616,0.0,2.1077,2.122,2.0934,2.1713,2.2255,2.2132,2.2212,2.2141,2.173,2.2176,2.2696,2.3057,2.3091,2.3091,2.3091,2.3091,2.3091,2.3091,2.3091,2.3091,2.3091,2.3624,2.3927,2.3927,2.4476,2.4733,2.469,2.4176,2.3066,2.1602,2.0918,2.0605,2.0605,2.0605,2.0605,2.0605,2.0605,2.0605,2.0605,2.0605,2.0915,2.1415,2.2214,2.2815,2.3261,2.3604,2.3482,2.3113,2.2628,2.1949,2.1102,2.0183,1.9669,1.9209,1.8547,1.8102,1.7634,1.7086,1.6786,1.6638,1.6638,1.6742,1.68,1.6704,1.6719,1.6703,1.6523,1.621,1.5887,1.5615,1.4923,1.416,1.3326,1.2858,1.2409,1.1904,1.1877,1.2002,1.2308,1.2554,1.2759,1.2881,1.2905,1.2905,1.2905,1.2905,1.2832,1.27,1.2455,1.22,1.1927,1.1569,1.1326,1.1141,1.1032,1.0922,1.7981,0.0,0.0,1.9941,2.0639,2.1208,2.1191,2.158,2.1932,2.185,2.1936,2.2077,2.2154,2.1968,2.185,2.187,2.2317,2.2548,2.2127,2.2814,2.3037,2.2254,2.2442,2.255,2.224,2.2637,2.2967,2.3071,2.3091,2.3091,2.3091,2.3091,2.3222,2.3484,2.3493,2.3614,2.3874,2.4529,2.5009,2.5253,2.5937,2.6271,2.6229,2.5306,2.3577,2.1252,2.1252,2.1252,2.1252,2.1252,2.1136,2.0915,2.0915,2.0915,2.0954,2.1175,2.1634,2.2252,2.3038,2.3849,2.4539,2.4766,2.4694,2.437,2.3556,2.2777,2.1968,2.1137,2.0167,1.9262,1.8859,1.8482,1.8116,1.7714,1.752,1.7417,1.7314,1.7407,1.7476,1.7442,1.7374,1.7301,1.7185,1.6782,1.6378,1.6134,1.5566,1.4796,1.3833,1.3384,1.2947,1.2419,1.2398,1.2455,1.2554,1.2676,1.2808,1.2881,1.2905,1.2905,1.2905,1.2905,1.2856,1.2759,1.2627,1.2455,1.2283,1.2101,1.1952,1.1852,1.1828,1.1794,1.9592,2.0485,2.1249,2.2628,2.315,2.3321,2.3402,2.3618,2.3757,2.3487,2.3458,2.3377,2.3125,2.2846,2.2594,2.241,2.2947,2.3304,2.3079,2.3567,2.3361,2.1728,2.1528,2.2054,0.0,2.2914,2.2665,2.3076,2.3091,2.3091,2.3091,2.3091,2.3537,2.4411,2.4454,2.4882,2.5812,2.5853,2.6271,2.7108,2.7149,2.7149,2.7149,2.6271,2.4796,2.2927,2.2927,2.2927,2.2927,2.2927,2.2478,2.1769,2.1769,2.1769,2.1845,2.2628,2.2927,2.3075,2.3897,2.4647,2.5382,2.6176,2.5886,2.5135,2.4406,2.3593,2.2964,2.2942,2.1408,1.9681,1.9222,1.8885,1.8697,1.8741,1.8741,1.864,1.8337,1.8269,1.8202,1.8008,1.7964,1.7861,1.7451,1.7363,1.7083,1.6222,1.6075,1.5743,1.4863,1.3917,1.324,1.3093,1.2842,1.2686,1.27,1.2832,1.2905,1.2905,1.2905,1.2905,1.2905,1.2905,1.2905,1.2881,1.2759,1.2686,1.2676,1.2431,1.2283,1.2274,1.215,1.2076,2.1829,2.3003,2.3999,2.4804,2.5143,2.5156,2.474,2.4321,2.3975,2.3766,2.3392,2.3002,2.2689,2.2569,2.2349,2.1932,2.2759,2.366,2.4149,2.4233,2.4084,2.3725,2.3732,0.0,0.0,0.0,0.0,2.3032,2.3669,2.4013,2.4013,2.4615,2.5084,2.5433,2.5968,2.6437,2.6768,2.733,2.7777,2.807,2.863,2.863,2.8023,2.6258,2.4895,2.3787,2.3787,2.3787,2.3787,2.3787,2.3641,2.3372,2.3372,2.3372,2.3482,2.4238,2.4515,2.4551,2.485,2.543,2.6129,2.6418,2.6314,2.5955,2.517,2.4743,2.4407,2.3922,2.3285,2.249,2.1358,2.0702,2.0243,2.0146,2.0035,1.9743,1.9111,1.8844,1.8626,1.81,1.8008,1.7969,1.7822,1.7658,1.7427,1.7091,1.6009,1.5164,1.4964,1.4395,1.3959,1.378,1.3611,1.3412,1.3186,1.3089,1.3027,1.3027,1.2954,1.2905,1.2905,1.2905,1.2905,1.2905,1.2856,1.2832,1.2832,1.2735,1.27,1.27,1.2652,1.2627,2.3735,2.5055,2.6054,2.6632,2.6727,2.6497,2.574,2.4959,2.4263,2.379,2.3082,2.2448,2.2136,2.1989,2.1882,2.1749,2.2664,2.3676,2.4455,2.4506,2.4554,2.4614,2.4731,2.4861,0.0,0.0,0.0,2.3806,2.4288,2.4857,2.5443,2.6021,2.652,2.6839,2.7371,2.7829,2.8111,2.8669,2.8946,2.8946,2.952,2.9097,2.775,2.6382,2.5912,2.6207,2.6207,2.6207,2.6207,2.6207,2.602,2.5651,2.4903,2.4575,2.4683,2.5453,2.5746,2.5746,2.5746,2.606,2.6499,2.6499,2.6499,2.6383,2.5886,2.5746,2.5641,2.5147,2.4826,2.4362,2.346,2.2817,2.2213,2.1396,2.1047,2.0646,1.9823,1.9324,1.8924,1.8419,1.8208,1.8144,1.8279,1.8134,1.7968,1.7936,1.6848,1.5989,1.578,1.5431,1.5066,1.478,1.4404,1.4095,1.3855,1.3484,1.3234,1.3138,1.3017,1.2954,1.2905,1.2905,1.2905,1.2905,1.2905,1.2905,1.2905,1.2905,1.2905,1.2905,1.2905,1.2905,2.5235,2.6487,2.7409,2.8014,2.7843,2.7327,2.632,2.5488,2.4661,2.3677,2.2639,2.1814,0.0,0.0,2.1254,2.1812,2.2618,2.3398,2.3973,2.4566,2.4814,0.0,0.0,0.0,0.0,0.0,0.0,2.5365,2.5097,2.559,2.7082,2.7278,2.7708,2.855,2.855,2.8946,2.9792,2.9792,2.9792,2.9792,2.9792,2.8687,2.6663,2.6549,2.7718,2.9792,2.9792,2.9792,2.9792,2.9792,2.9312,2.8333,2.619,2.5382,2.5453,2.6211,2.6499,2.6499,2.6521,2.6521,2.6499,2.6499,2.6499,2.6499,2.6499,2.6499,2.6499,2.6465,2.5886,2.5312,2.5312,2.5052,2.4317,2.244,2.1834,2.1404,2.0457,1.9728,1.9204,1.9014,1.8665,1.8492,1.8808,1.88,1.8786,1.8829,1.8593,1.8134,1.7298,1.6896,1.6508,1.606,1.5307,1.4768,1.4683,1.4077,1.3577,1.3272,1.3192,1.3056,1.2905,1.2905,1.2905,1.2905,1.2905,1.2905,1.2905,1.2905,1.2905,1.2905,1.2905,1.2905,2.6225,2.7347,2.8068,2.7655,2.7293,2.6703,2.519,2.4335,2.3762,2.3407,2.2594,2.1636,0.0,0.0,0.0,2.0521,2.1851,0.0,2.3514,2.4755,0.0,2.5376,0.0,2.6904,2.6781,2.7003,0.0,0.0,2.716,2.6715,2.6539,2.8195,2.9234,2.9468,2.9468,2.9598,2.9792,2.9792,2.9792,2.9792,2.9792,2.949,2.8888,2.7253,2.7718,2.9792,2.9792,2.9792,2.9792,2.9792,2.9675,2.9257,2.7033,2.6198,2.6211,2.6418,2.6499,2.6568,2.7066,2.693,2.6499,2.6499,2.6499,2.6499,2.6499,2.6499,2.6383,2.5769,2.5453,2.5312,2.5312,2.5052,2.4504,2.3424,2.2885,2.2312,2.1188,2.0693,2.0364,1.9961,1.9698,1.9617,1.9746,1.9738,1.991,2.0422,2.0448,1.9898,1.8539,1.7958,1.7652,1.7625,1.6897,1.628,1.5903,1.5347,1.4706,1.3985,1.3701,1.3362,1.2915,1.2905,1.2905,1.2905,1.2905,1.2905,1.2905,1.2905,1.2905,1.2905,1.2905,1.2905,2.6898,2.7485,2.769,2.7288,2.6495,2.5477,2.4076,2.3427,2.2958,2.2264,2.1549,2.0856,2.0165,1.9821,1.9844,0.0,0.0,0.0,2.4174,2.5161,2.5884,0.0,2.7426,0.0,2.8059,2.8359,2.8749,2.9239,2.8394,2.7765,2.7635,2.8876,2.9663,2.9792,2.9792,2.9792,2.9792,3.0508,3.0571,3.0075,3.0241,3.0063,2.9479,2.841,2.8335,2.9051,2.9051,2.9189,2.9428,2.9691,2.9792,2.9566,2.7366,2.6692,2.693,2.693,2.7121,2.7503,2.7855,2.7723,2.7356,2.7032,2.6726,2.6499,2.6499,2.6499,2.6314,2.5523,2.5312,2.5312,2.5312,2.5147,2.4838,2.4043,2.3519,2.2925,2.1935,2.1502,2.122,2.0906,2.1043,2.125,2.1285,2.1247,2.138,2.1745,2.1697,2.1284,2.0488,1.979,1.9304,1.9165,1.8356,1.764,1.717,1.6277,1.5389,1.4609,1.4074,1.36,1.3189,1.3003,1.2905,1.2905,1.2905,1.2905,1.2905,1.2905,1.3003,1.3154,1.3154,1.3154,2.6967,2.6976,2.6758,2.6757,2.5632,2.412,2.2741,2.228,2.1808,2.0657,0.0,1.9851,1.9574,1.9057,1.9256,2.1105,0.0,2.3483,2.4957,2.5461,2.5889,2.6445,2.8098,2.9222,2.9333,2.9511,2.9781,3.0075,2.9124,2.8793,2.9328,2.9353,2.956,3.0023,3.0088,3.0126,3.019,3.1532,3.1643,3.0583,3.0861,3.0413,2.9377,2.9668,2.9264,2.831,2.8021,2.8273,2.89,2.9377,2.9654,2.9591,2.7566,2.7126,2.7669,2.7756,2.8183,2.8716,2.8716,2.8651,2.849,2.7723,2.7066,2.6499,2.6499,2.6499,2.6314,2.5523,2.5312,2.5312,2.5312,2.5312,2.5135,2.4406,2.3849,2.3287,2.2665,2.2316,2.2103,2.2002,2.2525,2.2981,2.2979,2.2914,2.2874,2.2835,2.259,2.2413,2.2482,2.1711,2.1015,2.0677,1.9665,1.8854,1.841,1.707,1.5942,1.5195,1.4517,1.3946,1.3541,1.3238,1.3047,1.2905,1.2964,1.2964,1.2905,1.2905,1.312,1.3531,1.3531,1.3557,2.5516,2.5889,2.6024,2.5468,2.4918,2.3711,2.0755,1.9623,0.0,0.0,1.9569,1.9578,1.9256,1.9359,1.9922,2.1183,2.2522,2.3414,2.3493,2.4795,2.5889,0.0,2.8384,2.9936,3.0603,3.053,0.0,0.0,2.9948,2.9782,2.9702,2.9702,3.0203,3.1261,3.1569,3.1873,3.2187,3.2128,3.1909,3.1479,3.1147,3.0733,3.0177,2.9922,2.9679,2.9402,2.758,2.7542,2.8725,2.8499,2.895,2.9705,2.864,2.8312,2.849,2.9022,2.932,2.9415,2.9415,2.9067,2.849,2.7723,2.7066,2.6499,2.6499,2.6499,2.6314,2.5523,2.5312,2.5312,2.5312,2.5312,2.517,2.4658,2.4116,2.3604,2.3224,2.3478,2.3699,2.3409,2.3699,2.3982,2.3875,2.385,2.3774,2.3557,2.3485,2.3325,2.3019,2.2126,2.1581,2.1777,2.0611,1.9679,1.9365,1.8251,1.7129,1.6058,1.5602,1.4863,1.3724,1.3971,1.3742,1.2915,1.3223,1.3232,1.2905,1.2905,1.317,1.3669,1.3669,1.3786,2.4344,2.4645,2.4796,2.4536,2.3558,2.1986,1.9531,0.0,0.0,0.0,1.7921,1.8612,1.9291,1.9581,0.0,2.1083,2.2339,2.319,2.3188,2.506,2.64,2.6483,2.8828,3.0723,3.1545,3.1336,3.0999,3.0647,3.0381,3.0113,2.983,2.9934,3.0381,3.1261,3.22,3.2988,3.3597,3.3255,3.2946,3.2684,3.2151,3.1579,3.0934,3.0368,2.9872,2.9365,2.7931,2.7656,2.8158,2.8521,2.8749,2.8888,2.8688,2.8813,2.9194,2.9867,3.0326,3.0538,3.0249,2.9682,2.894,2.7855,2.7066,2.6499,2.6499,2.6499,2.6418,2.6025,2.5921,2.5921,2.5921,2.5629,2.5312,2.5265,2.4754,2.4274,2.4347,2.4659,2.498,2.5068,2.5446,2.5701,2.5707,2.5562,2.5414,2.5288,2.4677,2.4144,2.3956,2.3177,2.263,2.263,2.1634,2.0746,2.0173,1.9086,1.7979,1.695,1.6309,1.5618,1.4881,1.4787,1.4531,1.4043,1.422,1.4109,1.3625,1.3625,1.3761,1.4013,1.4063,1.4179,2.2809,2.313,2.3274,2.3349,2.1989,2.0144,1.8375,1.7077,0.0,1.5631,1.6357,1.7627,1.9382,1.9708,1.9956,0.0,2.1732,2.251,2.2804,2.484,2.6518,0.0,2.9439,0.0,3.2132,3.189,0.0,3.1286,3.0634,3.0113,2.983,3.0011,3.0381,3.0986,3.2309,3.3374,3.4162,3.4031,3.3831,3.3624,3.3044,3.2318,3.1539,3.081,3.0023,2.9212,2.8446,2.8072,2.8108,2.8721,2.8773,2.846,2.8246,2.8825,2.9882,3.0538,3.1087,3.1409,3.0821,3.0052,2.9194,2.7921,2.7066,2.6499,2.6499,2.6499,2.6499,2.6499,2.6499,2.6499,2.6499,2.6025,2.5664,2.6141,2.5652,2.517,2.5511,2.5791,2.6151,2.6552,2.696,2.7229,2.7364,2.7144,2.6947,2.6816,2.5816,2.4975,2.4827,2.4201,2.3645,2.3395,2.246,2.1568,2.0868,1.9665,1.8608,1.7755,1.7005,1.6429,1.6067,1.5733,1.5448,1.5185,1.5279,1.5086,1.46,1.46,1.465,1.475,1.4829,1.4913,2.0175,2.086,2.133,2.1361,2.0494,1.9043,1.674,0.0,1.5334,1.5036,1.573,1.7077,1.9289,1.9708,1.9805,2.014,2.0539,2.0941,2.1336,2.2841,2.5301,2.9038,0.0,0.0,3.2132,3.2182,3.2146,3.2096,3.0685,2.983,2.9792,2.983,3.0203,3.0986,3.1593,3.2417,3.3374,3.3667,3.3805,3.377,3.3234,3.2533,3.1759,3.0936,3.0279,2.9667,2.8574,2.8674,2.9515,2.8611,2.8762,2.944,2.7477,2.8256,3.0568,3.1205,3.1438,3.1409,3.0821,2.9761,2.8554,2.7756,2.7066,2.6499,2.6499,2.6499,2.6499,2.6499,2.6499,2.6499,2.6499,2.6465,2.6555,2.7188,2.679,2.6299,2.6539,2.6981,2.7338,2.7384,2.7663,2.7908,2.7941,2.7887,2.7721,2.7221,2.6596,2.5892,2.5259,2.4619,2.4234,2.4205,2.2714,2.1643,2.1437,2.0045,1.8958,1.8456,1.8101,1.7506,1.6578,1.6841,1.6537,1.547,1.5812,1.5855,1.5585,1.5585,1.5789,1.6207,1.6273,1.6343,1.7983,1.9187,2.0059,2.022,1.9535,1.8428,1.6841,0.0,1.5467,1.5852,1.6374,1.7209,1.8605,1.9316,1.9649,1.9517,1.9823,0.0,1.9736,2.0907,2.3286,2.7326,2.9696,0.0,0.0,0.0,3.1803,3.0836,3.0164,2.9792,2.9792,2.9792,3.0088,3.0748,3.1542,3.2511,3.3589,3.3977,3.4307,3.4578,3.3933,3.3297,3.2663,3.1917,3.1194,3.0471,2.9543,2.9377,2.9754,2.9302,2.939,2.9742,2.9358,2.9774,3.0657,3.1263,3.1511,3.1409,3.0821,2.9991,2.9004,2.7855,2.7066,2.6499,2.6499,2.6499,2.6499,2.6499,2.6499,2.6499,2.6499,2.7121,2.7789,2.7908,2.763,2.743,2.7716,2.7947,2.8241,2.868,2.8885,2.9012,2.9233,2.9265,2.9195,2.8976,2.8266,2.7506,2.6799,2.6048,2.54,2.5005,2.387,2.2853,2.2085,2.1218,2.0248,1.9223,1.883,1.8439,1.7936,1.7985,1.7867,1.7496,1.7626,1.7583,1.733,1.742,1.7239,1.6883,1.7127,1.7097,1.565,1.7032,1.8096,1.8548,1.8211,1.7538,0.0,0.0,1.5704,1.6499,1.6914,1.7379,1.8226,1.9102,1.9581,1.9176,1.9291,1.929,1.8891,1.9745,2.1567,2.4633,0.0,2.9967,3.0757,3.1424,3.1286,2.9908,2.9792,2.9895,3.0126,3.0343,3.0596,3.0872,3.1726,3.2761,3.3899,3.4216,3.4651,3.511,3.4353,3.3762,3.3251,3.2397,3.1638,3.0956,3.0164,2.9792,2.9792,2.9792,2.9946,3.0241,3.1061,3.139,3.1363,3.1069,3.094,3.0881,3.0447,2.9882,2.9085,2.7888,2.7066,2.6499,2.6499,2.6499,2.6499,2.6499,2.6624,2.6952,2.7564,2.83,2.8862,2.8803,2.8643,2.8578,2.8885,2.898,2.917,2.9716,2.987,2.9962,3.0221,3.0251,3.0251,3.0251,2.9525,2.8706,2.7995,2.7215,2.647,2.5798,2.5175,2.4239,2.2831,2.2138,2.1219,1.9925,1.9448,1.9146,1.8919,1.8866,1.8869,1.8989,1.9069,1.9045,1.8996,1.9146,1.885,1.8235,1.8515,1.8463,1.3166,1.4246,1.5067,1.5998,1.6248,1.6188,0.0,1.5901,1.5915,1.6647,1.7015,1.7495,1.8414,1.9206,1.9581,1.9176,1.895,1.8891,1.915,1.965,2.0394,0.0,0.0,2.6798,2.7462,2.964,3.0685,2.9869,2.9792,3.0164,3.0949,3.1666,3.1896,3.1516,3.2078,3.2925,3.407,3.4298,3.4646,3.5112,3.435,3.3747,3.3248,3.2104,3.1399,3.0956,3.0164,2.9792,2.9792,2.9792,3.0279,3.1061,3.1877,3.2624,3.2988,3.0516,2.9602,2.9602,2.9602,2.9162,2.849,2.7723,2.7066,2.6499,2.6499,2.6499,2.6499,2.6499,2.6998,2.7973,3.0038,3.0097,2.9696,3.0068,2.987,2.9685,3.0007,3.019,3.0282,3.0282,3.0447,3.0598,3.0598,3.0598,3.0598,3.0598,3.0031,2.9305,2.8497,2.7863,2.7243,2.6556,2.6484,2.5651,2.3569,2.2516,2.1532,2.0461,2.0003,1.9618,1.9212,1.933,1.9408,1.9397,1.9643,1.9991,2.0382,2.0508,2.0598,2.0667,2.0804,2.0864,1.0524,1.195,1.3328,1.4605,1.4905,1.5164,1.6149,1.5744,1.5396,1.6286,1.6718,1.737,1.8856,1.9465,1.9599,1.9288,1.8988,1.8891,0.0,0.0,0.0,2.1076,2.383,2.6356,0.0,2.939,3.0049,2.983,3.0318,3.1408,3.3234,3.3563,3.3374,3.2761,3.2654,3.3094,3.4079,3.4074,3.436,3.4956,3.3976,3.2895,3.1688,3.0808,3.0316,3.0188,2.9896,2.9792,2.9792,2.9792,3.0279,3.1024,3.1286,3.1877,3.2242,2.98,2.8908,2.8908,2.8908,2.8444,2.7789,2.7603,2.7066,2.6589,2.7032,2.6863,2.6589,2.7053,2.8371,2.9808,3.0643,3.0687,3.0538,3.0703,3.0718,3.0778,3.1131,3.1146,3.1204,3.1423,3.1336,3.1278,3.1395,3.1307,3.1205,3.1205,3.0954,3.0483,2.9778,2.9047,2.8347,2.773,2.7249,2.6361,2.4895,2.3863,2.2823,2.1709,2.0832,2.0207,1.9888,2.0016,2.0156,2.0333,2.061,2.1006,2.1479,2.1718,2.1787,2.1722,2.1305,2.1239,0.0,0.9725,1.1191,1.2726,1.3442,0.0,1.5735,1.5546,1.5332,1.6318,1.6833,1.7515,1.8883,1.9435,1.9599,1.9269,1.9045,1.8954,0.0,0.0,0.0,2.1308,0.0,0.0,2.8266,2.9273,3.0164,3.1048,3.1836,3.2917,3.4312,3.4414,3.4264,3.4011,3.3548,3.3667,3.4312,3.4191,3.4292,3.4699,3.3739,3.25,3.096,3.0181,2.9789,2.9809,2.9807,2.9792,0.0,2.9792,3.0088,3.0546,3.0546,3.0836,3.1101,2.9614,2.852,2.7789,2.7789,2.749,2.7154,2.7423,2.739,2.7423,2.8085,2.7809,2.7423,2.8105,2.9718,3.1292,3.1335,3.1408,3.1466,3.1522,3.1622,3.1792,3.2074,3.2046,3.2048,3.2191,3.2007,3.1838,3.1855,3.1712,3.1597,3.1511,3.1438,3.1127,3.0471,2.9941,2.9409,2.8797,2.8132,2.7399,2.6585,2.5217,2.3891,2.2762,2.1924,2.1353,2.1121,2.1302,2.1414,2.1439,2.1809,2.2062,2.2249,2.2632,2.2782,2.2728,2.2342,2.2321,0.0,0.7644,0.8944,1.0578,1.1899,0.0,1.4983,1.5319,0.0,1.6609,1.7213,1.7796,1.8608,1.9253,1.9545,1.9139,1.9082,1.9064,0.0,1.8971,0.0,0.0,2.3512,2.5592,2.8542,2.9599,3.0998,3.3136,3.3971,3.4414,3.4414,3.4448,3.4683,3.5082,3.4683,3.453,3.4664,3.4462,3.4374,3.4358,3.3642,3.2521,3.1051,3.0246,2.9897,2.9869,2.983,2.9792,2.9792,2.9792,2.9792,2.9792,2.9869,2.9908,2.9908,2.9908,2.8483,2.6555,2.6533,2.6521,2.6692,2.7423,2.8151,2.8876,2.9477,2.9226,2.8876,2.9509,3.097,3.2342,3.2076,3.2216,3.2437,3.2492,3.2602,3.2749,3.2895,3.2895,3.2841,3.2722,3.2547,3.237,3.2094,3.1927,3.1756,3.1539,3.1511,3.1271,3.0657,3.0537,3.0283,2.9726,2.9071,2.8599,2.8434,2.6451,2.4777,2.3689,2.3202,2.2858,2.2671,2.2976,2.2981,2.2624,2.3126,2.3169,2.2777,2.326,2.356,2.3616,2.376,2.3952,0.5216,0.0,0.823,0.9617,1.0828,1.2288,0.0,1.5083,1.521,1.5921,0.0,1.7504,1.8966,1.9365,1.9343,1.8936,1.9007,1.9256,1.968,1.9651,0.0,2.2,2.4738,2.7975,3.1792,3.2868,3.3304,3.3318,3.3991,3.4481,3.4698,3.5063,3.5213,3.5103,3.5189,3.5005,3.4496,3.422,3.408,3.3994,3.3529,3.2798,3.1909,3.1068,3.072,3.0685,3.0062,2.9792,2.9792,2.9792,2.9792,2.9869,3.047,3.0723,3.0723,3.0723,2.9235,2.7201,2.6692,2.6829,2.7456,2.8702,2.9588,3.0174,3.0326,3.0266,3.0174,3.0326,3.1335,3.248,3.2877,3.2834,3.2857,3.3403,3.3652,3.3815,3.4043,3.3942,3.3739,3.3626,3.3203,3.2761,3.252,3.2163,3.1883,3.1756,3.1597,3.1451,3.1286,3.0808,3.0447,3.0298,2.9729,2.9092,2.8464,2.6711,2.5397,2.4845,2.3996,2.3423,2.3291,2.3551,2.3763,2.3875,2.4004,2.3816,2.3319,2.3603,2.3797,2.3903,2.4094,2.4364,0.5062,0.609,0.7241,0.8431,0.9974,1.1907,1.4572,0.0,0.0,0.0,0.0,1.7037,1.8209,1.8641,1.8797,1.8841,1.9143,1.9852,0.0,0.0,2.3294,2.5912,2.8455,3.0882,3.3108,3.3957,3.423,3.3839,3.4366,3.475,3.485,3.5148,3.5311,3.5297,3.5428,3.5226,3.4641,3.434,3.4174,3.4115,3.3579,3.3079,3.2676,3.1904,3.096,2.9865,2.9441,2.9262,2.934,3.0431,3.0685,3.0432,3.1248,3.1767,3.2046,3.2046,3.0323,2.7954,2.759,2.7908,2.8624,2.9713,3.0477,3.1073,3.135,3.1623,3.1766,3.1508,3.2104,3.2958,3.3513,3.3523,3.3533,3.4034,3.4325,3.4497,3.4643,3.457,3.4399,3.4226,3.3815,3.3361,3.2868,3.2453,3.2094,3.1841,3.1626,3.1511,3.1511,3.1182,3.0943,3.0943,3.0387,2.9836,2.9409,2.7894,2.6648,2.585,2.5184,2.4817,2.4801,2.4984,2.5191,2.5354,2.4805,2.4425,2.4198,2.4033,2.403,2.4234,2.4426,2.4731,0.5239,0.5711,0.6234,0.7523,0.9367,1.1662,1.4629,0.0,0.0,0.0,0.0,0.0,0.0,1.7862,0.0,1.8774,0.0,0.0,2.2798,2.4858,2.7404,3.0775,3.2372,3.3227,3.3339,3.4011,3.4448,3.4448,3.485,3.5082,3.4935,3.5085,3.5267,3.5494,3.5493,3.5278,3.4839,3.4525,3.435,3.42,3.347,3.2981,3.2707,3.2105,3.0754,2.8908,2.8812,2.8812,2.9059,3.1131,3.1613,3.1146,3.2028,3.2816,3.3466,3.3466,3.1537,2.8908,2.8908,2.9289,2.9851,3.0507,3.1087,3.1611,3.2231,3.2877,3.333,3.29,3.3102,3.3555,3.4075,3.4201,3.425,3.4521,3.4804,3.4994,3.5001,3.4994,3.4923,3.4667,3.4399,3.3968,3.3293,3.2803,3.237,3.1968,3.1712,3.1582,3.1582,3.1611,3.1611,3.164,3.1142,3.0751,3.0633,2.9415,2.8139,2.6936,2.6476,2.6353,2.6537,2.6669,2.6725,2.6723,2.5629,2.5075,2.5079,2.4484,2.4349,2.4605,2.4835,2.5169,0.4888,0.5126,0.5696,0.7906,0.9202,1.0853,1.4476,0.0,0.0,0.0,0.0,0.0,0.0,1.8481,1.9055,0.0,0.0,2.113,0.0,0.0,3.0618,3.1873,3.248,3.2974,3.352,3.4283,3.4731,3.4664,3.4983,3.518,3.5148,3.5326,3.5449,3.5497,3.5486,3.5175,3.4477,3.4438,3.4094,3.3465,3.2742,3.1598,3.014,3.0034,3.0111,3.0266,2.9682,2.9789,3.0325,3.0682,3.1027,3.1451,3.2647,3.3591,3.4244,3.4244,3.2562,3.0296,3.0296,3.0357,3.0552,3.1176,3.1409,3.1611,3.2231,3.314,3.405,3.4407,3.4275,3.4101,3.4643,3.4667,3.4602,3.4937,3.5205,3.5429,3.5487,3.5452,3.5377,3.5198,3.4875,3.4472,3.4009,3.3361,3.2815,3.252,3.2163,3.1953,3.2079,3.2079,3.2135,3.2259,3.2167,3.1848,3.1146,3.0278,2.9392,2.8494,2.7554,2.7192,2.7549,2.771,2.7616,2.7279,2.658,2.5969,2.5431,2.4987,2.4899,2.5095,2.5462,2.5852,0.5266,0.5462,0.5879,0.7964,1.1135,1.3973,1.4837,1.6063,0.0,0.0,0.0,0.0,0.0,0.0,1.9123,2.1754,0.0,2.433,2.4847,2.7928,3.0596,3.1965,3.2668,3.315,3.3506,3.3965,3.4288,3.4517,3.4448,3.4414,3.4493,3.5121,3.5491,3.5507,3.4083,3.3017,3.2365,3.2341,3.181,3.0759,3.0429,3.0,2.9613,2.9968,3.0502,3.1058,3.0747,3.0732,3.0895,3.1107,3.0874,3.054,3.1789,3.3389,3.482,3.3372,3.209,3.1087,3.1087,3.1087,3.1205,3.1796,3.1994,3.2148,3.306,3.3908,3.4643,3.5142,3.5102,3.4961,3.5211,3.5195,3.5195,3.5413,3.565,3.5839,3.5905,3.5905,3.5812,3.5526,3.5228,3.4875,3.4399,3.379,3.3256,3.2964,3.2656,3.2437,3.252,3.252,3.2547,3.2629,3.2629,3.2323,3.1592,3.0792,2.974,2.8369,2.7916,2.7795,2.8067,2.8407,2.8513,2.8318,2.7435,2.6829,2.6541,2.6106,2.6028,2.6238,2.6684,2.7058,0.567,0.6461,0.7439,0.9024,0.0,1.6748,1.5622,1.6817,0.0,0.0,0.0,0.0,0.0,1.7819,0.0,2.4163,2.6349,2.754,2.7785,2.8957,3.0436,3.2172,3.2848,3.3273,3.3485,3.359,3.3854,3.431,3.4045,3.3909,3.4059,3.4725,3.509,3.5,3.2721,3.1269,3.0803,3.0816,3.0164,2.8828,2.882,2.9105,2.961,3.0301,3.0937,3.1511,3.1511,3.1395,3.122,3.1524,3.098,3.0043,3.0899,3.2661,3.4541,3.2478,3.1726,3.1697,3.1553,3.1582,3.1796,3.2398,3.2699,3.298,3.3984,3.4643,3.5165,3.5627,3.5827,3.5893,3.5783,3.5849,3.5958,3.6054,3.6156,3.6259,3.6314,3.6293,3.6165,3.5844,3.56,3.5297,3.4811,3.4259,3.3806,3.3507,3.3203,3.3044,3.3097,3.3082,3.3124,3.3188,3.3045,3.2551,3.163,3.0914,2.9863,2.8296,2.8262,2.8376,2.8599,2.9035,2.928,2.9364,2.8362,2.784,2.784,2.7441,2.7352,2.7578,2.8027,2.8305,0.5672,0.8253,1.1292,1.2174,1.4487,0.0,1.6935,1.7164,0.0,1.7261,0.0,0.0,0.0,1.8545,1.991,2.3357,2.6493,2.924,3.1384,3.1384,3.166,3.3066,3.299,3.3025,3.354,3.3543,3.3727,3.4196,3.4284,3.4415,3.4546,3.42,3.3879,3.3567,3.221,3.1485,3.1453,3.1457,3.078,2.9519,2.9543,2.9569,2.9631,3.0285,3.0937,3.1511,3.1511,3.1511,3.1482,3.1512,3.1293,3.0969,3.0744,3.1456,3.2604,3.2419,3.2342,3.2259,3.1697,3.1853,3.2425,3.3054,3.3565,3.4101,3.4667,3.5165,3.5644,3.611,3.655,3.6811,3.6364,3.6571,3.6891,3.6911,3.6774,3.6673,3.6655,3.6568,3.6423,3.628,3.6105,3.5822,3.5402,3.488,3.4472,3.4259,3.3899,3.372,3.3958,3.4025,3.4084,3.4349,3.377,3.2649,3.0923,3.0505,3.0037,2.9428,2.9044,2.9044,2.9483,2.9661,2.9853,3.0124,2.9481,2.9169,2.9169,2.876,2.8694,2.8967,2.9368,2.9368,0.6183,0.894,1.245,1.4895,1.7307,0.0,0.0,1.7826,1.8819,1.8819,1.9915,0.0,0.0,0.0,2.165,2.3974,2.6185,2.8112,2.9639,3.0623,3.1481,3.2254,3.2562,3.2885,3.3425,3.3336,3.3493,3.4027,3.3419,3.3126,3.335,3.3456,3.3124,3.2305,3.08,3.025,3.0745,3.0749,3.0518,3.0038,3.0351,3.0417,3.023,3.089,3.1293,3.1514,3.1497,3.1511,3.1511,3.1726,3.1626,3.1424,3.2035,3.2765,3.3419,3.3091,3.2958,3.2931,3.2687,3.1622,3.0441,3.0991,3.1491,3.2012,3.2765,3.3274,3.3759,3.4528,3.6348,3.7915,3.7262,3.7223,3.7429,3.7632,3.7632,3.7505,3.7246,3.7169,3.7015,3.6676,3.6409,3.6114,3.5711,3.5304,3.4977,3.4811,3.4667,3.4594,3.4707,3.4826,3.4738,3.4283,3.3127,3.2028,3.1203,3.0585,3.0134,2.9836,2.9589,2.9595,2.9957,3.0215,3.0405,3.0506,2.9932,2.9629,2.9674,2.9732,2.9929,3.0231,3.062,3.0831,0.6796,0.9103,1.243,1.6257,0.0,0.0,1.8269,1.8832,1.9986,2.0698,2.2211,2.3257,2.2673,0.0,0.0,2.4674,2.6131,2.7543,2.894,3.0165,3.1207,3.205,3.2291,3.2539,3.302,3.2654,3.266,3.324,3.2593,3.2325,3.2676,3.287,3.2531,3.1537,3.0002,2.9633,3.048,3.0454,3.0448,3.0422,3.0792,3.0814,3.0521,3.1396,3.1782,3.1793,3.2,3.2051,3.2094,3.2318,3.2453,3.2668,3.3497,3.4025,3.43,3.3949,3.3797,3.3643,3.2586,3.1047,2.9605,2.9973,3.038,3.0855,3.1578,3.2144,3.2739,3.3569,3.6174,3.858,3.807,3.795,3.8002,3.8236,3.8219,3.8085,3.7809,3.7703,3.7541,3.7129,3.6838,3.6498,3.6041,3.5711,3.5435,3.5268,3.5205,3.5228,3.5297,3.5273,3.4844,3.3832,3.2656,3.1763,3.1298,3.0724,3.0316,3.0231,3.0113,3.0151,3.0295,3.0589,3.0753,3.0753,3.0386,3.0216,3.0316,3.0658,3.1007,3.1358,3.1772,3.1977,0.7501,0.8823,1.1336,0.0,0.0,0.0,2.0692,2.0224,2.0431,2.2663,2.3625,2.3897,2.3153,2.318,0.0,2.5274,2.6476,2.7972,3.0161,3.048,3.1106,3.2673,3.2317,3.2007,3.2256,3.1451,3.1135,3.1686,3.1963,3.2327,3.286,3.2505,3.1967,3.1286,3.0137,2.994,3.0864,3.0729,3.0668,3.0668,3.0668,3.0552,3.0357,3.1723,3.2376,3.2451,3.3052,3.3309,3.3309,3.3293,3.3949,3.4899,3.4899,3.4899,3.4899,3.4866,3.4849,3.4388,3.1071,3.0167,3.0506,3.051,3.0834,3.1288,3.1688,3.2318,3.3024,3.3625,3.6156,3.867,3.867,3.867,3.8689,3.8707,3.8499,3.8303,3.8303,3.8154,3.7933,3.7649,3.7375,3.7015,3.6409,3.6148,3.5905,3.556,3.5458,3.5492,3.5756,3.5275,3.438,3.3059,3.2596,3.2029,3.1102,3.0814,3.0692,3.0692,3.0692,3.0651,3.0506,3.0753,3.0892,3.0892,3.0972,3.1072,3.121,3.1614,3.1983,3.2318,3.2784,3.2748,0.7951,0.9728,0.0,1.4732,0.0,0.0,0.0,1.9952,0.0,0.0,2.396,2.4682,2.4455,2.4229,2.4559,2.6029,2.6719,2.7538,2.8983,2.9561,3.0279,3.1445,3.1593,3.1622,3.1595,3.17,3.1892,3.2243,3.2066,3.2012,3.2127,3.1439,3.0652,2.9778,2.9286,2.8914,2.8721,2.8726,2.8726,2.8742,2.9269,2.9798,3.039,3.076,3.1886,3.3612,3.3786,3.3848,3.3899,3.4275,3.4811,3.5396,3.5396,3.5396,3.5143,3.3059,3.2303,3.2165,3.1173,3.0895,3.1035,3.1312,3.1502,3.1746,3.2387,3.2882,3.3345,3.3802,3.4634,3.5551,3.615,3.6754,3.7464,3.8462,3.8627,3.8564,3.8446,3.8399,3.8269,3.7932,3.7632,3.7246,3.6736,3.6381,3.6079,3.5883,3.5927,3.5963,3.5948,3.533,3.4565,3.3706,3.2718,3.1971,3.1595,3.1252,3.0992,3.0851,3.0851,3.0773,3.0651,3.0712,3.0753,3.0753,3.0915,3.1134,3.1406,3.1857,3.2283,3.2668,3.2988,3.3171,0.8729,1.0438,0.0,1.4283,1.6923,1.9402,2.0494,0.0,0.0,0.0,2.4775,2.5342,2.5369,2.5259,2.5559,2.6806,2.6987,2.7495,2.8886,2.9513,3.0078,3.0686,3.0723,3.0735,3.0727,3.0648,3.0696,3.0931,3.0775,3.0751,3.0962,3.0413,2.9633,2.8622,2.846,2.8272,2.799,2.805,2.807,2.807,2.8516,2.9056,2.9669,2.9967,3.0931,3.2416,3.2958,3.3178,3.32,3.3544,3.3739,3.3842,3.3842,3.3842,3.3643,3.185,3.119,3.119,3.119,3.1308,3.1483,3.191,3.2126,3.2335,3.2914,3.3244,3.3481,3.3815,3.3998,3.4185,3.4659,3.5582,3.6734,3.8065,3.8361,3.8405,3.8655,3.8649,3.8525,3.8219,3.7914,3.7541,3.7013,3.6612,3.6297,3.6122,3.6276,3.6269,3.5757,3.5297,3.4639,3.3638,3.2736,3.2126,3.1966,3.1909,3.1635,3.1092,3.1281,3.1169,3.0605,3.0609,3.0609,3.0568,3.0855,3.1157,3.1468,3.2038,3.2521,3.2894,3.3144,3.3371,0.9652,1.0931,1.2552,1.4502,1.7057,0.0,2.2805,2.4707,2.5849,2.5702,0.0,2.6008,2.6004,2.6204,2.6644,2.7463,2.727,2.7606,2.9322,2.9788,3.0014,3.0133,2.971,2.9496,2.9762,2.8865,2.8384,2.8607,2.8721,2.9036,2.9624,2.9502,2.891,2.7845,2.7793,2.7909,2.8141,2.8141,2.8141,2.8158,2.8207,2.8334,2.8479,2.9447,2.9924,3.0054,3.1276,3.18,3.18,3.18,3.1559,3.119,3.119,3.119,3.119,3.119,3.119,3.121,3.1249,3.1519,3.1928,3.2319,3.2674,3.3011,3.3378,3.3481,3.352,3.3807,3.4049,3.4209,3.4086,3.5002,3.6247,3.7346,3.7649,3.791,3.8637,3.8685,3.8541,3.835,3.8094,3.7755,3.7226,3.6856,3.6533,3.6314,3.6612,3.6487,3.5384,3.5256,3.4697,3.3216,3.2825,3.2578,3.2389,3.2782,3.2601,3.1572,3.2019,3.1763,3.0591,3.0497,3.0464,3.0438,3.0834,3.1198,3.1475,3.2197,3.2737,3.3068,3.3301,3.3452,0.9729,1.0936,0.0,0.0,1.7291,1.9758,2.2547,2.447,2.5818,2.6351,2.6608,2.6798,2.697,2.6983,2.7133,2.755,2.731,2.721,2.762,2.7969,2.8161,2.8184,2.8458,2.8677,2.8784,2.8443,2.8397,2.8795,2.8706,2.8848,2.9275,2.8931,2.8468,2.7907,2.7836,2.7565,2.7044,2.7044,2.7044,2.7044,2.7633,2.7972,2.8163,2.9785,3.0825,3.1389,3.1671,3.18,3.18,3.18,3.1559,3.119,3.119,3.119,3.119,3.119,3.119,3.1249,3.1557,3.1928,3.2336,3.2673,3.3011,3.3375,3.3881,3.4023,3.4086,3.4351,3.4473,3.4506,3.4484,3.4705,3.5004,3.5378,3.6269,3.7055,3.7171,3.7129,3.7193,3.761,3.7416,3.7294,3.7542,3.7169,3.6818,3.6759,3.7169,3.7041,3.5752,3.5729,3.5224,3.3655,3.3733,3.3824,3.3626,3.3897,3.3813,3.3211,3.3158,3.2648,3.1527,3.0799,3.0485,3.063,3.1083,3.1587,3.2196,3.2765,3.322,3.3559,3.3545,3.3563,0.976,0.0,0.0,1.5837,0.0,2.0064,2.2704,2.4206,2.528,2.6025,2.6363,2.651,2.6484,2.6763,2.6991,2.7063,2.7064,2.7045,2.7034,2.7307,2.7377,2.7179,2.7759,2.8208,2.8292,2.7944,2.7845,2.8152,2.8081,2.8131,2.837,2.8148,2.7909,2.767,2.762,2.7382,2.6908,2.6891,2.6891,2.6859,2.7233,2.7675,2.8203,2.9747,3.0948,3.1818,3.2,3.209,3.209,3.209,3.1855,3.15,3.15,3.15,3.1462,3.1269,3.1327,3.1557,3.1946,3.2336,3.2691,3.3026,3.3345,3.3657,3.4074,3.4293,3.4431,3.4689,3.4802,3.4898,3.4898,3.4964,3.5046,3.5117,3.5513,3.6024,3.6501,3.6652,3.676,3.6971,3.6776,3.6712,3.7178,3.72,3.7169,3.7225,3.7523,3.7413,3.6488,3.6154,3.5535,3.4355,3.4362,3.4351,3.4159,3.473,3.4795,3.3987,3.411,3.3743,3.2689,3.2398,3.2069,3.1667,3.2215,3.295,3.3877,3.4039,3.4243,3.446,3.3972,3.3712,0.9631,0.0,1.2923,1.6559,1.8554,0.0,2.2601,2.3482,2.4107,2.4986,2.558,2.5894,2.5681,2.62,2.664,2.6583,2.6767,2.6962,2.7025,2.7118,2.7073,2.6801,2.7368,2.7777,2.7791,2.7353,2.7047,2.7035,2.7096,2.7156,2.72,2.72,2.7185,2.7126,2.7065,2.6941,2.6769,2.6739,2.6762,2.6819,2.6988,2.7478,2.8227,2.9348,3.0439,3.1475,3.2196,3.2491,3.2491,3.2491,3.2284,3.1983,3.1983,3.1947,3.1873,3.1538,3.1632,3.1964,3.2336,3.2707,3.3057,3.3419,3.3684,3.3921,3.4227,3.4498,3.4751,3.4955,3.5124,3.525,3.525,3.5388,3.55,3.55,3.5234,3.5211,3.6071,3.6366,3.6447,3.6363,3.6329,3.6416,3.6752,3.7201,3.7559,3.7685,3.7809,3.7729,3.7196,3.6632,3.5977,3.5227,3.5096,3.4974,3.4765,3.5634,3.5744,3.4714,3.5126,3.4946,3.3997,3.4443,3.4335,3.3541,3.3879,3.4609,3.5727,3.5404,3.5291,3.5399,3.4431,3.3881,0.9158,0.0,1.3659,0.0,1.776,1.9397,0.0,0.0,2.1689,0.0,2.47,2.5837,2.5847,2.623,2.6621,2.6879,2.678,2.6785,2.7125,2.6893,2.6775,2.7008,2.7206,2.7093,2.6593,2.6516,2.6236,2.5638,2.5848,2.6029,2.6029,2.6029,2.6029,2.6016,2.5723,2.5544,2.5442,2.5276,2.5504,2.6146,2.7032,2.7517,2.7696,2.8301,2.9082,3.0091,3.2005,3.2836,3.2836,3.2836,3.2804,3.2737,3.2737,3.2591,3.2301,3.2267,3.2267,3.2371,3.2706,3.3042,3.3422,3.3934,3.4124,3.4233,3.4662,3.4945,3.5157,3.5361,3.5439,3.5453,3.5453,3.5486,3.55,3.55,3.5417,3.5323,3.5292,3.5173,3.5208,3.5715,3.6528,3.7085,3.6924,3.751,3.8017,3.8034,3.8203,3.8059,3.7351,3.7293,3.6986,3.6197,3.6547,3.6778,3.6568,3.6952,3.6993,3.6479,3.6527,3.6212,3.5449,3.6025,3.653,3.6841,3.5987,3.5877,3.6609,3.6014,3.5766,3.5886,3.4771,3.4148,0.964,1.1303,1.317,0.0,1.6084,1.8089,2.0073,2.0604,2.1069,2.247,2.3524,2.4395,2.5147,2.5519,2.574,2.5763,2.5682,2.5694,2.5967,2.5706,2.555,2.5727,2.6115,2.6265,2.6041,2.6109,2.6055,2.5768,2.5881,2.5985,2.6009,2.5985,2.5948,2.5911,2.5699,2.55,2.537,2.5209,2.5288,2.5608,2.616,2.677,2.7378,2.7756,2.8192,2.8752,2.9896,3.0421,3.0488,3.0488,3.0488,3.0488,3.0488,3.0406,3.032,3.0609,3.0805,3.1154,3.3088,3.3784,3.3908,3.4293,3.4498,3.4651,3.4963,3.5124,3.5242,3.5439,3.55,3.55,3.55,3.55,3.55,3.55,3.5486,3.5424,3.53,3.5072,3.5048,3.5497,3.6253,3.689,3.7186,3.7838,3.83,3.8267,3.8382,3.8334,3.8,3.7708,3.7364,3.7015,3.7107,3.7153,3.7007,3.7343,3.7486,3.7319,3.7357,3.7254,3.7058,3.7658,3.819,3.86,3.7638,3.7586,3.8481,3.7362,3.6799,3.6749,3.5195,3.4316,0.0,0.0,1.1919,1.2705,1.4507,1.6605,0.0,0.0,2.0451,2.1943,2.2436,2.3043,2.4454,2.4746,2.477,2.4709,2.476,2.487,2.5092,2.4945,2.4861,2.4991,2.5464,2.5722,2.5618,2.5709,2.5703,2.5544,2.5567,2.5602,2.5636,2.5549,2.5492,2.5415,2.526,2.5105,2.4914,2.4975,2.5013,2.5088,2.549,2.6142,2.6945,2.7472,2.7906,2.8285,2.8435,2.8574,2.8712,2.8827,2.8904,2.8932,2.888,2.8887,2.8934,2.9336,2.9578,3.0077,3.2473,3.3826,3.4545,3.4753,3.4954,3.5119,3.5304,3.5345,3.5357,3.5508,3.5527,3.55,3.5501,3.5494,3.55,3.55,3.55,3.546,3.5376,3.5329,3.5381,3.5528,3.6253,3.6976,3.747,3.8135,3.8572,3.851,3.8572,3.8634,3.8634,3.8198,3.7875,3.7875,3.7726,3.7585,3.7505,3.7938,3.822,3.8219,3.8303,3.8451,3.8653,3.8994,3.932,3.963,3.9018,3.8991,3.9591,3.8241,3.7423,3.7046,3.5375,3.445,0.0,0.9697,0.0,1.1613,1.3388,1.4976,0.0,0.0,1.9014,2.1129,2.1649,2.2335,2.4176,2.4211,2.4065,2.4365,2.4624,2.489,2.5164,2.5333,2.5553,2.5824,2.5918,2.5727,2.5104,2.5121,2.482,2.4068,2.4065,2.4113,2.4113,2.3993,2.389,2.3819,2.364,2.346,2.331,2.388,2.4261,2.4464,2.5492,2.6063,2.6293,2.7448,2.8481,2.9295,2.8945,2.8864,2.8998,2.9451,2.9728,2.9822,2.9692,2.9636,2.9645,2.9664,2.9738,2.9853,3.0209,3.2523,3.5342,3.5429,3.5547,3.566,3.5747,3.5708,3.5687,3.5693,3.5605,3.5494,3.5509,3.5502,3.55,3.55,3.55,3.5439,3.525,3.5744,3.6131,3.5829,3.6999,3.7944,3.7734,3.836,3.8866,3.8792,3.8877,3.8964,3.8964,3.8942,3.8923,3.8923,3.8792,3.8685,3.8615,3.9227,3.9619,3.968,3.9801,3.9978,4.017,3.9852,3.9769,3.9975,4.0042,3.9747,3.9049,3.8061,3.7139,3.6235,3.5114,3.4495,0.0,0.0,0.0,1.0951,1.2272,1.3567,1.499,1.6474,1.7966,1.9504,2.0377,2.1276,2.2642,2.3419,2.3961,2.4344,2.4169,2.4012,2.4153,2.4266,2.4407,2.4532,2.4661,2.4638,2.4439,2.4492,2.4395,2.4112,2.4074,2.4054,2.4006,2.3795,2.3667,2.3631,2.34,2.3229,2.3144,2.3432,2.3696,2.3886,2.445,2.5108,2.5839,2.6395,2.7462,2.891,2.9269,2.9372,2.9283,2.9664,2.9932,3.0072,2.9983,2.9962,2.9953,2.9868,2.9897,3.0087,3.0665,3.1937,3.3539,3.5072,3.5706,3.59,3.5922,3.5872,3.5819,3.5728,3.5626,3.5546,3.5451,3.5442,3.542,3.5379,3.5405,3.5559,3.6002,3.6277,3.6661,3.7442,3.8007,3.8402,3.8567,3.8832,3.8993,3.8877,3.8979,3.9073,3.9115,3.917,3.9178,3.9178,3.9115,3.9263,3.9746,4.0014,4.0418,4.1039,4.0782,4.0647,4.0808,4.0306,4.0071,4.0177,3.969,3.926,3.8871,3.7966,3.6994,3.5926,3.4969,3.4439,0.9099,0.0,0.0,0.0,1.1598,1.2773,1.4181,1.5602,1.702,1.8493,1.9378,2.0286,2.1558,2.247,2.3281,2.4046,2.3848,2.3613,2.3682,2.3735,2.3806,2.3896,2.3986,2.4064,2.4141,2.417,2.419,2.419,2.4132,2.4044,2.3976,2.3721,2.3565,2.347,2.3307,2.3223,2.3206,2.3359,2.3549,2.3736,2.3986,2.4505,2.5244,2.5747,2.6649,2.7854,2.8927,2.9441,2.9569,2.9849,3.0068,3.0185,3.0125,3.011,3.0113,3.0023,3.0078,3.0246,3.0836,3.146,3.2389,3.4469,3.5517,3.5996,3.6007,3.5968,3.5906,3.5771,3.5664,3.556,3.5457,3.5381,3.532,3.5278,3.5312,3.5653,3.68,3.699,3.7309,3.8489,3.8869,3.9059,3.9205,3.9232,3.921,3.9073,3.9205,3.9363,3.9427,3.9477,3.9514,3.9514,3.9427,3.9707,4.0564,4.0909,4.1355,4.2065,4.1725,4.1426,4.1265,4.0645,4.0297,4.0307,3.942,3.8756,3.8288,3.7402,3.6396,3.5327,3.4716,3.4404,0.0,0.0,0.0,0.0,0.0,0.0,1.3472,1.4674,1.613,1.8114,1.8681,1.9345,2.0997,2.1352,2.1887,2.3373,2.3702,2.379,2.3824,2.3888,2.3966,2.4084,2.4103,2.4141,2.419,2.419,2.419,2.419,2.4084,2.3976,2.3907,2.3711,2.3482,2.3217,2.3277,2.3348,2.3414,2.361,2.3816,2.4016,2.4219,2.4384,2.4539,2.56,2.6128,2.6279,2.7835,2.8967,2.972,2.9939,3.0052,3.0128,3.0075,3.0109,3.018,3.0202,3.026,3.0315,3.0462,3.113,3.2159,3.3685,3.4992,3.5968,3.5991,3.5995,3.597,3.583,3.5708,3.5585,3.5509,3.5338,3.5201,3.5201,3.5182,3.5693,3.7512,3.7897,3.8115,3.8812,3.9527,3.9892,3.9556,3.9514,3.9489,3.9414,3.9623,3.9837,3.9903,3.9914,3.9914,3.9914,3.9834,4.0133,4.1078,4.1942,4.2533,4.2723,4.2717,4.2374,4.1618,4.0893,4.0441,4.0307,3.9374,3.8394,3.7349,3.6362,3.5382,3.4404,3.434,3.4427,0.9421,0.0,0.0,0.0,0.0,0.0,1.3094,1.4281,1.5459,1.6275,1.6936,1.7734,1.8863,1.9095,1.9643,2.1277,2.2438,2.2975,2.2454,2.3378,2.4123,2.417,2.417,2.418,2.419,2.419,2.419,2.419,2.4084,2.3976,2.3907,2.3649,2.3447,2.3271,2.3427,2.3606,2.3762,2.3961,2.4145,2.4284,2.4495,2.4665,2.4804,2.5208,2.5767,2.641,2.628,2.6805,2.7784,2.7772,2.8058,2.8517,2.9084,2.9359,2.948,3.0106,3.04,3.0462,3.0548,3.1229,3.2218,3.3274,3.4266,3.5188,3.5812,3.5971,3.5914,3.5813,3.5708,3.5531,3.522,3.5051,3.4992,3.4992,3.5018,3.5571,3.7425,3.7862,3.83,3.9639,4.0053,4.004,3.9698,3.9682,3.967,3.9563,3.9781,3.9965,4.0046,4.0099,4.0129,4.0129,4.0662,4.1348,4.2188,4.3097,4.3654,4.3703,4.3216,4.2533,4.1698,4.0921,4.0452,4.037,3.9457,3.8747,3.831,3.6629,3.5319,3.4328,3.4469,3.4963,0.0,0.0,0.0,0.0,0.0,0.0,1.4204,1.4838,1.5436,1.6051,1.6311,1.6706,1.7608,1.7788,1.8097,1.9082,2.0521,2.1596,2.1804,2.2629,2.3198,2.3198,2.3199,2.3208,2.3208,2.3208,2.3346,2.3676,2.3638,2.3689,2.3931,2.3785,2.3689,2.3635,2.3803,2.3984,2.4155,2.4345,2.4499,2.462,2.4759,2.4877,2.5,2.5113,2.5472,2.598,2.5508,2.5672,2.6283,2.625,2.6724,2.7566,2.8624,2.9076,2.9256,3.0114,3.0487,3.0559,3.0659,3.1076,3.1763,3.2995,3.3743,3.4388,3.5628,3.5958,3.588,3.5795,3.56,3.5365,3.5077,3.4898,3.4821,3.484,3.4889,3.5437,3.7347,3.7838,3.8396,4.007,4.0334,4.0196,3.995,3.9948,3.9937,3.9854,4.002,4.0187,4.0272,4.0308,4.045,4.0784,4.1283,4.2068,4.3273,4.3857,4.4173,4.4192,4.3478,4.2659,4.1786,4.0934,4.0468,4.0407,3.9475,3.8728,3.8141,3.6963,3.6115,3.5567,3.5754,3.6226,0.0,0.0,0.0,0.0,1.4724,0.0,1.601,1.5899,1.5903,1.6719,1.6371,1.6137,1.683,1.7028,1.7128,1.7221,1.8441,1.9889,2.1438,2.1754,2.1805,2.1733,2.1773,2.1803,2.1803,2.1803,2.2096,2.2829,2.2968,2.3272,2.3867,2.3995,2.4079,2.4136,2.4274,2.4414,2.4554,2.4741,2.4874,2.4955,2.5009,2.5083,2.5135,2.5264,2.5313,2.5303,2.5303,2.5313,2.5308,2.5308,2.5981,2.7129,2.8458,2.9063,2.9321,3.0192,3.0559,3.0632,3.0762,3.0803,3.1097,3.2824,3.3392,3.3721,3.5456,3.5931,3.5859,3.5706,3.5432,3.5144,3.4992,3.482,3.4676,3.4758,3.4781,3.5306,3.717,3.774,3.8388,4.0041,4.0381,4.036,4.0233,4.0224,4.0224,4.0214,4.0334,4.0422,4.0502,4.051,4.0817,4.1624,4.1801,4.2522,4.4159,4.439,4.4407,4.4316,4.3624,4.2797,4.1846,4.1066,4.0564,4.0415,3.958,3.8679,3.7717,3.7392,3.7276,3.7344,3.7545,3.7797,0.0,0.0,0.0,0.0,0.0,0.0,1.6328,1.658,1.6602,1.6269,1.6113,1.5912,1.5442,1.5974,1.6691,1.734,1.7666,1.835,1.9829,2.1146,2.1803,2.1379,2.1604,2.179,2.179,2.179,2.1899,2.2099,2.2767,2.3182,2.3269,2.3941,2.4345,2.4422,2.4559,2.4716,2.4896,2.4993,2.5109,2.5228,2.5293,2.5335,2.5344,2.5425,2.5437,2.5382,2.5389,2.5345,2.5308,2.5308,2.5981,2.7077,2.7839,2.8574,2.9308,3.0244,3.0613,3.0698,3.0774,3.0798,3.1082,3.2821,3.3401,3.3719,3.5405,3.5879,3.5763,3.5534,3.5255,3.4971,3.4751,3.4572,3.4484,3.4539,3.4649,3.5087,3.6447,3.7357,3.8223,3.9312,4.0038,4.0441,4.0288,4.0325,4.0353,4.0298,4.0396,4.0493,4.0502,4.0495,4.0827,4.1684,4.2407,4.3233,4.4231,4.4942,4.5038,4.4335,4.4143,4.3374,4.1865,4.1643,4.1215,4.0485,4.0251,3.9998,3.9733,3.8185,3.7499,3.7623,3.7822,3.8388,0.0,0.0,0.0,1.6098,0.0,0.0,0.0,1.7542,1.7376,1.7151,1.6855,1.6549,1.6215,1.6569,1.7031,1.7433,1.7495,1.7762,1.8496,1.9532,2.0108,1.9847,2.0315,2.0638,2.066,2.0657,2.0851,2.1351,2.2018,2.2495,2.2738,2.3599,2.4122,2.4198,2.4694,2.5006,2.514,2.5222,2.5274,2.5344,2.5453,2.5495,2.5509,2.5525,2.5515,2.5449,2.541,2.5387,2.5356,2.5355,2.6193,2.7523,2.7788,2.8169,2.8728,3.0122,3.0688,3.0752,3.0792,3.0827,3.1125,3.284,3.3373,3.3655,3.5346,3.5752,3.561,3.5362,3.5138,3.4879,3.4626,3.445,3.4381,3.442,3.4577,3.5029,3.6202,3.6988,3.7816,3.9019,3.9895,4.0447,4.0419,4.0427,4.0436,4.04,4.0452,4.0495,4.0495,4.05,4.0997,4.2316,4.2835,4.3605,4.4836,4.5344,4.5421,4.4979,4.4528,4.3912,4.3085,4.2662,4.2022,4.1116,4.0639,4.0425,4.0458,3.9561,3.9167,3.9203,3.9336,3.9941,0.0,0.0,0.0,0.0,0.0,1.8487,0.0,0.0,0.0,1.8146,1.7745,1.7383,1.7375,1.757,1.7729,1.7751,1.7663,1.76,1.76,1.7825,1.8028,1.8198,1.8856,1.9291,1.9318,1.9453,1.9877,2.0652,2.1224,2.1663,2.196,2.3004,2.3695,2.3907,2.4598,2.507,2.5322,2.5364,2.5401,2.541,2.5538,2.5607,2.559,2.559,2.5557,2.5507,2.5449,2.5421,2.5425,2.5421,2.638,2.7849,2.7913,2.8144,2.8603,3.0159,3.0756,3.079,3.0803,3.0851,3.1185,3.2858,3.3551,3.4019,3.5349,3.5604,3.5423,3.5216,3.4999,3.4772,3.4509,3.4351,3.4281,3.4351,3.4545,3.4982,3.5938,3.6572,3.7324,3.8692,3.9717,4.0406,4.0492,4.05,4.0508,4.0496,4.0496,4.0489,4.05,4.05,4.1154,4.2887,4.306,4.3761,4.5442,4.5577,4.5586,4.5594,4.494,4.447,4.4316,4.3528,4.2673,4.1764,4.1061,4.0696,4.0642,4.0776,4.0795,4.0735,4.0987,4.1545,0.0,0.0,0.0,0.0,1.8139,0.0,0.0,0.0,1.8703,1.8132,0.0,1.79,1.7326,0.0,0.0,1.8631,1.8055,1.76,1.76,1.6951,1.6701,1.7427,1.8108,1.8541,1.8615,1.9313,1.9829,1.9993,2.0823,2.1079,2.0475,2.1962,2.318,2.3952,2.4072,2.4543,2.5385,2.5393,2.5437,2.5489,2.5565,2.5607,2.5603,2.5603,2.556,2.5509,2.5492,2.549,2.5484,2.5488,2.62,2.7334,2.7865,2.8982,3.0331,3.067,3.0793,3.0801,3.0862,3.0889,3.118,3.2865,3.4319,3.543,3.5499,3.5451,3.5274,3.5081,3.484,3.4572,3.4305,3.4185,3.4161,3.4281,3.4513,3.4802,3.5167,3.5982,3.6913,3.7867,3.9276,4.0351,4.0491,4.0491,4.0507,4.0508,4.0496,4.05,4.0499,4.0491,4.1108,4.2743,4.2916,4.3644,4.535,4.5513,4.555,4.5605,4.5518,4.5114,4.4335,4.3528,4.2717,4.1882,4.1834,4.1474,4.0784,4.0909,4.0933,4.089,4.1796,4.2289,0.0,0.0,0.0,0.0,0.0,0.0,1.8428,0.0,1.8654,1.8448,0.0,0.0,0.0,0.0,0.0,0.0,1.8028,1.7334,1.6916,1.606,1.5801,1.6602,1.7775,1.8724,1.9252,1.9682,1.9967,2.0069,2.0472,2.0596,2.0336,2.098,2.1754,2.2646,2.3608,2.4312,2.4703,2.5205,2.5457,2.5432,2.5515,2.5538,2.554,2.554,2.5528,2.5506,2.5538,2.5538,2.5493,2.5529,2.6446,2.7818,2.8055,2.921,3.0717,3.0774,3.0792,3.0815,3.0885,3.0907,3.1176,3.2807,3.4418,3.5679,3.5538,3.5369,3.5198,3.5001,3.4751,3.4484,3.4209,3.4124,3.4136,3.4269,3.4513,3.4764,3.5034,3.5479,3.6261,3.7635,3.8682,3.9546,4.0317,4.0447,4.046,4.0489,4.0496,4.05,4.051,4.0905,4.1628,4.2783,4.3349,4.4163,4.5379,4.5504,4.5522,4.5605,4.5594,4.5441,4.5075,4.4284,4.3469,4.2661,4.2221,4.1618,4.0854,4.1454,4.1766,4.178,4.2197,4.293,1.7039,0.0,0.0,0.0,0.0,0.0,0.0,0.0,0.0,0.0,1.8771,0.0,0.0,0.0,1.9318,1.8697,0.0,1.7026,1.6294,1.5444,1.5125,1.5785,1.7107,1.8483,1.9839,1.9802,1.9852,2.02,2.029,2.0356,2.0415,2.0437,2.0832,2.1707,2.3129,2.3986,2.4191,2.5051,2.5472,2.5437,2.5472,2.5513,2.5522,2.5531,2.5522,2.5531,2.5599,2.5595,2.5566,2.5601,2.6649,2.8236,2.8235,2.9276,3.0804,3.0806,3.0806,3.0819,3.0864,3.1195,3.1807,3.3179,3.4571,3.5669,3.5509,3.533,3.5124,3.4879,3.4628,3.4393,3.4136,3.4086,3.4148,3.4305,3.4556,3.4822,3.507,3.542,3.6107,3.7616,3.835,3.9099,4.0224,4.0411,4.0425,4.0489,4.0496,4.0492,4.0474,4.0976,4.1737,4.2765,4.3446,4.4269,4.5381,4.5476,4.5504,4.5586,4.5594,4.5594,4.5594,4.506,4.428,4.3253,4.2667,4.2013,4.1295,4.1989,4.2607,4.3104,4.3105,4.3741,1.713,1.7384,1.7635,1.7777,1.7944,1.8102,0.0,0.0,1.8246,0.0,0.0,0.0,0.0,0.0,0.0,0.0,0.0,0.0,0.0,1.5152,1.4722,1.4994,1.5832,1.7346,1.9855,1.939,1.9319,2.0234,2.0352,2.0434,2.0484,2.0506,2.0895,2.1772,2.2605,2.3408,2.4187,2.5062,2.5499,2.5495,2.5495,2.554,2.5599,2.5607,2.5595,2.5604,2.5664,2.5701,2.5697,2.5698,2.6716,2.8302,2.8309,2.9326,3.0808,3.0801,3.0796,3.0794,3.0799,3.1918,3.3446,3.4215,3.5025,3.5657,3.5456,3.5262,3.5035,3.471,3.4461,3.4257,3.4061,3.4049,3.4173,3.4439,3.4691,3.4955,3.5149,3.5905,3.6819,3.7732,3.8542,3.9369,4.034,4.0441,4.0422,4.0481,4.0496,4.0484,4.0405,4.0426,4.1042,4.2632,4.2832,4.3531,4.5256,4.541,4.5448,4.5586,4.5594,4.5594,4.5594,4.5637,4.4901,4.3323,4.3342,4.299,4.2267,4.2344,4.3274,4.492,4.4916,4.4919,1.7425,1.7561,1.7692,1.7789,1.7856,1.79,1.79,1.7994,1.8108,0.0,0.0,0.0,0.0,0.0,0.0,0.0,0.0,0.0,0.0,1.5234,1.5921,1.7171,1.7141,1.7837,1.9901,1.9415,1.9368,2.0294,2.0432,2.047,2.0506,2.0503,2.0908,2.1765,2.2571,2.3388,2.419,2.5057,2.5491,2.5499,2.5494,2.5515,2.5541,2.5587,2.5603,2.5598,2.5663,2.5699,2.571,2.5696,2.6734,2.8297,2.8299,2.9354,3.0875,3.0872,3.087,3.0946,3.1486,3.2769,3.4225,3.4438,3.5009,3.559,3.5449,3.5239,3.499,3.4733,3.448,3.4269,3.4161,3.4185,3.4293,3.4561,3.4801,3.501,3.5209,3.5967,3.6865,3.7732,3.8561,3.9397,4.034,4.0485,4.0463,4.0508,4.0496,4.0492,4.0466,4.0929,4.1468,4.2,4.3072,4.3972,4.4623,4.5207,4.5559,4.5594,4.5594,4.5622,4.5657,4.573,4.5288,4.4251,4.4283,4.3953,4.3234,4.3829,4.441,4.5019,4.5582,4.5815,1.7595,1.7681,1.771,1.7789,1.78,1.78,1.78,1.7889,1.8005,1.814,1.8352,0.0,0.0,0.0,0.0,0.0,0.0,0.0,0.0,1.5762,1.7019,1.8248,1.7837,1.8156,1.9962,1.9442,1.9394,2.0322,2.043,2.048,2.0506,2.0499,2.0899,2.1733,2.2568,2.3394,2.4238,2.5104,2.5531,2.5538,2.5541,2.554,2.5535,2.5605,2.5636,2.5642,2.5684,2.5695,2.5719,2.6034,2.7011,2.834,2.8633,2.9648,3.0898,3.0896,3.1088,3.1493,3.2632,3.3711,3.4649,3.4855,3.5234,3.5562,3.5409,3.5203,3.4999,3.4754,3.4556,3.4404,3.4351,3.4386,3.4498,3.4742,3.4945,3.5126,3.53,3.627,3.7268,3.7821,3.885,3.9783,4.0411,4.0507,4.0503,4.0489,4.0496,4.05,4.051,4.0954,4.1379,4.167,4.2678,4.3578,4.4246,4.5107,4.5594,4.5594,4.5631,4.5657,4.5698,4.58,4.5486,4.4718,4.4783,4.4607,4.4153,4.4736,4.5155,4.5488,4.6032,4.6272]}]]